<?xml version="1.0" encoding="UTF-8" standalone="no" ?>
<gpx xmlns="http://www.topografix.com/GPX/1/1" xmlns:xsi="http://www.w3.org/2001/XMLSchema-instance" xsi:schemaLocation="http://www.topografix.com/GPX/1/1 http://www.topografix.com/GPX/1/1/gpx.xsd" version="1.1" creator="VisuGPX - https://www.visugpx.com">
  <metadata>
    <name>Puyloubier - Vacon</name>
    <desc><![CDATA[Parcours assez roulant, pas du tout technique.
Au départ de Puyloubier en passant par le domaine de Vacon --> fortement déconseillé en période de chasse.]]></desc>
  </metadata>
  <trk>
    <name><![CDATA[20190330220749-N2KvY]]></name>
    <trkseg>
      <trkpt lat="43.52633" lon="5.68157">
        <ele>312.05</ele>
        <time>2019-03-30T07:09:25Z</time>
      </trkpt>
      <trkpt lat="43.52633" lon="5.68157">
        <ele>312.05</ele>
        <time>2019-03-30T07:09:25Z</time>
      </trkpt>
      <trkpt lat="43.52621" lon="5.68177">
        <ele>314.93</ele>
        <time>2019-03-30T07:13:08Z</time>
      </trkpt>
      <trkpt lat="43.52612" lon="5.68201">
        <ele>316.3</ele>
        <time>2019-03-30T07:13:21Z</time>
      </trkpt>
      <trkpt lat="43.52615" lon="5.68227">
        <ele>318.78</ele>
        <time>2019-03-30T07:13:32Z</time>
      </trkpt>
      <trkpt lat="43.5262" lon="5.68253">
        <ele>320.72</ele>
        <time>2019-03-30T07:13:39Z</time>
      </trkpt>
      <trkpt lat="43.52624" lon="5.6828">
        <ele>322.2</ele>
        <time>2019-03-30T07:13:47Z</time>
      </trkpt>
      <trkpt lat="43.52633" lon="5.68305">
        <ele>323</ele>
        <time>2019-03-30T07:13:53Z</time>
      </trkpt>
      <trkpt lat="43.5263" lon="5.6833">
        <ele>324.1</ele>
        <time>2019-03-30T07:14:01Z</time>
      </trkpt>
      <trkpt lat="43.52622" lon="5.68356">
        <ele>324.15</ele>
        <time>2019-03-30T07:14:05Z</time>
      </trkpt>
      <trkpt lat="43.52617" lon="5.68383">
        <ele>323.68</ele>
        <time>2019-03-30T07:14:08Z</time>
      </trkpt>
      <trkpt lat="43.52615" lon="5.6841">
        <ele>323.08</ele>
        <time>2019-03-30T07:14:11Z</time>
      </trkpt>
      <trkpt lat="43.52613" lon="5.68436">
        <ele>322.47</ele>
        <time>2019-03-30T07:14:14Z</time>
      </trkpt>
      <trkpt lat="43.5261" lon="5.68467">
        <ele>321.79</ele>
        <time>2019-03-30T07:14:18Z</time>
      </trkpt>
      <trkpt lat="43.52607" lon="5.68497">
        <ele>320.54</ele>
        <time>2019-03-30T07:14:22Z</time>
      </trkpt>
      <trkpt lat="43.52603" lon="5.68526">
        <ele>319.3</ele>
        <time>2019-03-30T07:14:26Z</time>
      </trkpt>
      <trkpt lat="43.52596" lon="5.68549">
        <ele>317.96</ele>
        <time>2019-03-30T07:14:30Z</time>
      </trkpt>
      <trkpt lat="43.52591" lon="5.68574">
        <ele>316.63</ele>
        <time>2019-03-30T07:14:34Z</time>
      </trkpt>
      <trkpt lat="43.52591" lon="5.68605">
        <ele>315.32</ele>
        <time>2019-03-30T07:14:39Z</time>
      </trkpt>
      <trkpt lat="43.526" lon="5.68633">
        <ele>314.57</ele>
        <time>2019-03-30T07:14:43Z</time>
      </trkpt>
      <trkpt lat="43.52611" lon="5.68655">
        <ele>313.99</ele>
        <time>2019-03-30T07:14:46Z</time>
      </trkpt>
      <trkpt lat="43.52625" lon="5.68679">
        <ele>313.67</ele>
        <time>2019-03-30T07:14:49Z</time>
      </trkpt>
      <trkpt lat="43.52638" lon="5.687">
        <ele>313.2</ele>
        <time>2019-03-30T07:14:52Z</time>
      </trkpt>
      <trkpt lat="43.52654" lon="5.68724">
        <ele>312.5</ele>
        <time>2019-03-30T07:14:56Z</time>
      </trkpt>
      <trkpt lat="43.52666" lon="5.68748">
        <ele>311.3</ele>
        <time>2019-03-30T07:15:01Z</time>
      </trkpt>
      <trkpt lat="43.52676" lon="5.68774">
        <ele>310.57</ele>
        <time>2019-03-30T07:15:07Z</time>
      </trkpt>
      <trkpt lat="43.52679" lon="5.68799">
        <ele>310.25</ele>
        <time>2019-03-30T07:15:14Z</time>
      </trkpt>
      <trkpt lat="43.52673" lon="5.68822">
        <ele>310.34</ele>
        <time>2019-03-30T07:15:21Z</time>
      </trkpt>
      <trkpt lat="43.52665" lon="5.68846">
        <ele>311.78</ele>
        <time>2019-03-30T07:15:31Z</time>
      </trkpt>
      <trkpt lat="43.5266" lon="5.6887">
        <ele>313.68</ele>
        <time>2019-03-30T07:15:42Z</time>
      </trkpt>
      <trkpt lat="43.52665" lon="5.68895">
        <ele>316.67</ele>
        <time>2019-03-30T07:15:52Z</time>
      </trkpt>
      <trkpt lat="43.52669" lon="5.6892">
        <ele>319.85</ele>
        <time>2019-03-30T07:16:02Z</time>
      </trkpt>
      <trkpt lat="43.52677" lon="5.68946">
        <ele>322.95</ele>
        <time>2019-03-30T07:16:10Z</time>
      </trkpt>
      <trkpt lat="43.52685" lon="5.6897">
        <ele>326.19</ele>
        <time>2019-03-30T07:16:19Z</time>
      </trkpt>
      <trkpt lat="43.52697" lon="5.68989">
        <ele>326.78</ele>
        <time>2019-03-30T07:16:24Z</time>
      </trkpt>
      <trkpt lat="43.52711" lon="5.69009">
        <ele>326.93</ele>
        <time>2019-03-30T07:16:29Z</time>
      </trkpt>
      <trkpt lat="43.52727" lon="5.69024">
        <ele>327.94</ele>
        <time>2019-03-30T07:16:35Z</time>
      </trkpt>
      <trkpt lat="43.52731" lon="5.6905">
        <ele>330.28</ele>
        <time>2019-03-30T07:16:48Z</time>
      </trkpt>
      <trkpt lat="43.5274" lon="5.69075">
        <ele>332.49</ele>
        <time>2019-03-30T07:16:57Z</time>
      </trkpt>
      <trkpt lat="43.52751" lon="5.69097">
        <ele>334.18</ele>
        <time>2019-03-30T07:17:04Z</time>
      </trkpt>
      <trkpt lat="43.52761" lon="5.6912">
        <ele>335.69</ele>
        <time>2019-03-30T07:17:12Z</time>
      </trkpt>
      <trkpt lat="43.52772" lon="5.6914">
        <ele>336.3</ele>
        <time>2019-03-30T07:17:16Z</time>
      </trkpt>
      <trkpt lat="43.52785" lon="5.69164">
        <ele>337.6</ele>
        <time>2019-03-30T07:17:24Z</time>
      </trkpt>
      <trkpt lat="43.5279" lon="5.69188">
        <ele>339.57</ele>
        <time>2019-03-30T07:17:35Z</time>
      </trkpt>
      <trkpt lat="43.52796" lon="5.69212">
        <ele>340.9</ele>
        <time>2019-03-30T07:17:43Z</time>
      </trkpt>
      <trkpt lat="43.52803" lon="5.69236">
        <ele>336.62</ele>
        <time>2019-03-30T07:17:59Z</time>
      </trkpt>
      <trkpt lat="43.52822" lon="5.69242">
        <ele>337.86</ele>
        <time>2019-03-30T07:18:10Z</time>
      </trkpt>
      <trkpt lat="43.5284" lon="5.6925">
        <ele>340.17</ele>
        <time>2019-03-30T07:18:20Z</time>
      </trkpt>
      <trkpt lat="43.5286" lon="5.69247">
        <ele>340.76</ele>
        <time>2019-03-30T07:18:31Z</time>
      </trkpt>
      <trkpt lat="43.52871" lon="5.69266">
        <ele>340.7</ele>
        <time>2019-03-30T07:18:47Z</time>
      </trkpt>
      <trkpt lat="43.52872" lon="5.69292">
        <ele>340.44</ele>
        <time>2019-03-30T07:18:59Z</time>
      </trkpt>
      <trkpt lat="43.52876" lon="5.69317">
        <ele>341.98</ele>
        <time>2019-03-30T07:19:11Z</time>
      </trkpt>
      <trkpt lat="43.52878" lon="5.69343">
        <ele>343.99</ele>
        <time>2019-03-30T07:19:23Z</time>
      </trkpt>
      <trkpt lat="43.52883" lon="5.69369">
        <ele>348.47</ele>
        <time>2019-03-30T07:19:37Z</time>
      </trkpt>
      <trkpt lat="43.5289" lon="5.69393">
        <ele>351.68</ele>
        <time>2019-03-30T07:19:49Z</time>
      </trkpt>
      <trkpt lat="43.529" lon="5.69414">
        <ele>353.18</ele>
        <time>2019-03-30T07:19:56Z</time>
      </trkpt>
      <trkpt lat="43.52907" lon="5.69437">
        <ele>354.55</ele>
        <time>2019-03-30T07:20:10Z</time>
      </trkpt>
      <trkpt lat="43.52921" lon="5.69456">
        <ele>354.93</ele>
        <time>2019-03-30T07:20:26Z</time>
      </trkpt>
      <trkpt lat="43.52936" lon="5.69471">
        <ele>356.12</ele>
        <time>2019-03-30T07:20:41Z</time>
      </trkpt>
      <trkpt lat="43.52955" lon="5.69471">
        <ele>357.92</ele>
        <time>2019-03-30T07:20:55Z</time>
      </trkpt>
      <trkpt lat="43.52973" lon="5.6947">
        <ele>365.24</ele>
        <time>2019-03-30T07:21:13Z</time>
      </trkpt>
      <trkpt lat="43.52991" lon="5.6947">
        <ele>371.12</ele>
        <time>2019-03-30T07:21:26Z</time>
      </trkpt>
      <trkpt lat="43.53008" lon="5.69459">
        <ele>374.81</ele>
        <time>2019-03-30T07:21:36Z</time>
      </trkpt>
      <trkpt lat="43.53026" lon="5.69454">
        <ele>381.5</ele>
        <time>2019-03-30T07:21:50Z</time>
      </trkpt>
      <trkpt lat="43.53042" lon="5.69443">
        <ele>375.49</ele>
        <time>2019-03-30T07:21:58Z</time>
      </trkpt>
      <trkpt lat="43.53041" lon="5.69468">
        <ele>365.36</ele>
        <time>2019-03-30T07:22:22Z</time>
      </trkpt>
      <trkpt lat="43.53043" lon="5.69493">
        <ele>368.27</ele>
        <time>2019-03-30T07:22:34Z</time>
      </trkpt>
      <trkpt lat="43.53049" lon="5.69518">
        <ele>371.99</ele>
        <time>2019-03-30T07:22:45Z</time>
      </trkpt>
      <trkpt lat="43.53058" lon="5.69541">
        <ele>373.88</ele>
        <time>2019-03-30T07:22:54Z</time>
      </trkpt>
      <trkpt lat="43.53065" lon="5.69565">
        <ele>376.49</ele>
        <time>2019-03-30T07:23:05Z</time>
      </trkpt>
      <trkpt lat="43.53071" lon="5.69588">
        <ele>379.07</ele>
        <time>2019-03-30T07:23:15Z</time>
      </trkpt>
      <trkpt lat="43.53077" lon="5.69613">
        <ele>381.49</ele>
        <time>2019-03-30T07:23:26Z</time>
      </trkpt>
      <trkpt lat="43.53084" lon="5.69647">
        <ele>382.13</ele>
        <time>2019-03-30T07:24:15Z</time>
      </trkpt>
      <trkpt lat="43.53081" lon="5.69673">
        <ele>377.55</ele>
        <time>2019-03-30T07:25:27Z</time>
      </trkpt>
      <trkpt lat="43.53087" lon="5.69699">
        <ele>377.54</ele>
        <time>2019-03-30T07:25:40Z</time>
      </trkpt>
      <trkpt lat="43.53101" lon="5.69718">
        <ele>378.11</ele>
        <time>2019-03-30T07:25:50Z</time>
      </trkpt>
      <trkpt lat="43.53117" lon="5.69731">
        <ele>380.24</ele>
        <time>2019-03-30T07:26:00Z</time>
      </trkpt>
      <trkpt lat="43.53134" lon="5.6974">
        <ele>382.25</ele>
        <time>2019-03-30T07:26:11Z</time>
      </trkpt>
      <trkpt lat="43.53153" lon="5.69748">
        <ele>385.57</ele>
        <time>2019-03-30T07:26:21Z</time>
      </trkpt>
      <trkpt lat="43.53156" lon="5.69774">
        <ele>389.57</ele>
        <time>2019-03-30T07:26:38Z</time>
      </trkpt>
      <trkpt lat="43.53148" lon="5.69796">
        <ele>388.78</ele>
        <time>2019-03-30T07:26:46Z</time>
      </trkpt>
      <trkpt lat="43.53141" lon="5.6982">
        <ele>389.9</ele>
        <time>2019-03-30T07:26:55Z</time>
      </trkpt>
      <trkpt lat="43.53147" lon="5.69844">
        <ele>390.9</ele>
        <time>2019-03-30T07:27:03Z</time>
      </trkpt>
      <trkpt lat="43.53156" lon="5.69868">
        <ele>393.59</ele>
        <time>2019-03-30T07:27:14Z</time>
      </trkpt>
      <trkpt lat="43.5317" lon="5.69884">
        <ele>395.47</ele>
        <time>2019-03-30T07:27:23Z</time>
      </trkpt>
      <trkpt lat="43.53184" lon="5.699">
        <ele>397.97</ele>
        <time>2019-03-30T07:27:34Z</time>
      </trkpt>
      <trkpt lat="43.532" lon="5.69912">
        <ele>400.48</ele>
        <time>2019-03-30T07:27:44Z</time>
      </trkpt>
      <trkpt lat="43.53218" lon="5.69925">
        <ele>404.95</ele>
        <time>2019-03-30T07:27:56Z</time>
      </trkpt>
      <trkpt lat="43.53211" lon="5.69949">
        <ele>409.27</ele>
        <time>2019-03-30T07:28:08Z</time>
      </trkpt>
      <trkpt lat="43.53208" lon="5.69974">
        <ele>410.75</ele>
        <time>2019-03-30T07:28:18Z</time>
      </trkpt>
      <trkpt lat="43.53198" lon="5.69994">
        <ele>411.5</ele>
        <time>2019-03-30T07:28:26Z</time>
      </trkpt>
      <trkpt lat="43.53193" lon="5.7002">
        <ele>414.17</ele>
        <time>2019-03-30T07:28:37Z</time>
      </trkpt>
      <trkpt lat="43.53196" lon="5.70045">
        <ele>416.99</ele>
        <time>2019-03-30T07:28:47Z</time>
      </trkpt>
      <trkpt lat="43.53195" lon="5.7007">
        <ele>419.29</ele>
        <time>2019-03-30T07:28:57Z</time>
      </trkpt>
      <trkpt lat="43.53201" lon="5.70096">
        <ele>421.2</ele>
        <time>2019-03-30T07:29:06Z</time>
      </trkpt>
      <trkpt lat="43.53204" lon="5.70121">
        <ele>423.99</ele>
        <time>2019-03-30T07:29:17Z</time>
      </trkpt>
      <trkpt lat="43.53209" lon="5.70146">
        <ele>425.52</ele>
        <time>2019-03-30T07:29:26Z</time>
      </trkpt>
      <trkpt lat="43.53215" lon="5.7017">
        <ele>427.37</ele>
        <time>2019-03-30T07:29:33Z</time>
      </trkpt>
      <trkpt lat="43.53224" lon="5.70194">
        <ele>427.35</ele>
        <time>2019-03-30T07:29:40Z</time>
      </trkpt>
      <trkpt lat="43.53233" lon="5.70219">
        <ele>428.5</ele>
        <time>2019-03-30T07:29:49Z</time>
      </trkpt>
      <trkpt lat="43.53249" lon="5.70235">
        <ele>429.39</ele>
        <time>2019-03-30T07:29:58Z</time>
      </trkpt>
      <trkpt lat="43.53266" lon="5.70249">
        <ele>430.73</ele>
        <time>2019-03-30T07:30:07Z</time>
      </trkpt>
      <trkpt lat="43.5326" lon="5.70275">
        <ele>431.06</ele>
        <time>2019-03-30T07:30:18Z</time>
      </trkpt>
      <trkpt lat="43.53262" lon="5.70302">
        <ele>432.89</ele>
        <time>2019-03-30T07:30:31Z</time>
      </trkpt>
      <trkpt lat="43.53265" lon="5.70327">
        <ele>434.22</ele>
        <time>2019-03-30T07:30:40Z</time>
      </trkpt>
      <trkpt lat="43.53269" lon="5.70352">
        <ele>435.42</ele>
        <time>2019-03-30T07:30:49Z</time>
      </trkpt>
      <trkpt lat="43.53278" lon="5.70373">
        <ele>436.32</ele>
        <time>2019-03-30T07:30:56Z</time>
      </trkpt>
      <trkpt lat="43.53287" lon="5.70399">
        <ele>437.52</ele>
        <time>2019-03-30T07:31:03Z</time>
      </trkpt>
      <trkpt lat="43.53293" lon="5.70423">
        <ele>437.92</ele>
        <time>2019-03-30T07:31:10Z</time>
      </trkpt>
      <trkpt lat="43.533" lon="5.70447">
        <ele>439.4</ele>
        <time>2019-03-30T07:31:19Z</time>
      </trkpt>
      <trkpt lat="43.53309" lon="5.70473">
        <ele>441.06</ele>
        <time>2019-03-30T07:31:27Z</time>
      </trkpt>
      <trkpt lat="43.53319" lon="5.70494">
        <ele>442.39</ele>
        <time>2019-03-30T07:31:32Z</time>
      </trkpt>
      <trkpt lat="43.53328" lon="5.70517">
        <ele>444.1</ele>
        <time>2019-03-30T07:31:40Z</time>
      </trkpt>
      <trkpt lat="43.5334" lon="5.7054">
        <ele>445.3</ele>
        <time>2019-03-30T07:31:47Z</time>
      </trkpt>
      <trkpt lat="43.53352" lon="5.70563">
        <ele>446.68</ele>
        <time>2019-03-30T07:31:54Z</time>
      </trkpt>
      <trkpt lat="43.53362" lon="5.70585">
        <ele>448.6</ele>
        <time>2019-03-30T07:32:03Z</time>
      </trkpt>
      <trkpt lat="43.53375" lon="5.70611">
        <ele>449.68</ele>
        <time>2019-03-30T07:32:10Z</time>
      </trkpt>
      <trkpt lat="43.53385" lon="5.70633">
        <ele>450.99</ele>
        <time>2019-03-30T07:32:14Z</time>
      </trkpt>
      <trkpt lat="43.53394" lon="5.70654">
        <ele>452.21</ele>
        <time>2019-03-30T07:32:19Z</time>
      </trkpt>
      <trkpt lat="43.53403" lon="5.70676">
        <ele>453.4</ele>
        <time>2019-03-30T07:32:24Z</time>
      </trkpt>
      <trkpt lat="43.53412" lon="5.70698">
        <ele>453.72</ele>
        <time>2019-03-30T07:32:28Z</time>
      </trkpt>
      <trkpt lat="43.53422" lon="5.70724">
        <ele>454</ele>
        <time>2019-03-30T07:32:33Z</time>
      </trkpt>
      <trkpt lat="43.53431" lon="5.7075">
        <ele>454.82</ele>
        <time>2019-03-30T07:32:38Z</time>
      </trkpt>
      <trkpt lat="43.53442" lon="5.70778">
        <ele>455.34</ele>
        <time>2019-03-30T07:32:43Z</time>
      </trkpt>
      <trkpt lat="43.5345" lon="5.70802">
        <ele>455.46</ele>
        <time>2019-03-30T07:32:48Z</time>
      </trkpt>
      <trkpt lat="43.53461" lon="5.70827">
        <ele>455.94</ele>
        <time>2019-03-30T07:32:53Z</time>
      </trkpt>
      <trkpt lat="43.53468" lon="5.70854">
        <ele>456.8</ele>
        <time>2019-03-30T07:32:59Z</time>
      </trkpt>
      <trkpt lat="43.53475" lon="5.70878">
        <ele>457.22</ele>
        <time>2019-03-30T07:33:04Z</time>
      </trkpt>
      <trkpt lat="43.53484" lon="5.70902">
        <ele>458.1</ele>
        <time>2019-03-30T07:33:10Z</time>
      </trkpt>
      <trkpt lat="43.53492" lon="5.70927">
        <ele>458.82</ele>
        <time>2019-03-30T07:33:16Z</time>
      </trkpt>
      <trkpt lat="43.53501" lon="5.70949">
        <ele>459.2</ele>
        <time>2019-03-30T07:33:21Z</time>
      </trkpt>
      <trkpt lat="43.5351" lon="5.70973">
        <ele>459.03</ele>
        <time>2019-03-30T07:33:27Z</time>
      </trkpt>
      <trkpt lat="43.53519" lon="5.70996">
        <ele>459.6</ele>
        <time>2019-03-30T07:33:33Z</time>
      </trkpt>
      <trkpt lat="43.53527" lon="5.71019">
        <ele>460.32</ele>
        <time>2019-03-30T07:33:39Z</time>
      </trkpt>
      <trkpt lat="43.53534" lon="5.71043">
        <ele>460.9</ele>
        <time>2019-03-30T07:33:45Z</time>
      </trkpt>
      <trkpt lat="43.53541" lon="5.71071">
        <ele>461.49</ele>
        <time>2019-03-30T07:33:52Z</time>
      </trkpt>
      <trkpt lat="43.53553" lon="5.71095">
        <ele>462.1</ele>
        <time>2019-03-30T07:33:57Z</time>
      </trkpt>
      <trkpt lat="43.53565" lon="5.71116">
        <ele>462.34</ele>
        <time>2019-03-30T07:34:01Z</time>
      </trkpt>
      <trkpt lat="43.53578" lon="5.71139">
        <ele>462.06</ele>
        <time>2019-03-30T07:34:05Z</time>
      </trkpt>
      <trkpt lat="43.53592" lon="5.71159">
        <ele>462.62</ele>
        <time>2019-03-30T07:34:11Z</time>
      </trkpt>
      <trkpt lat="43.53607" lon="5.7118">
        <ele>463.5</ele>
        <time>2019-03-30T07:34:16Z</time>
      </trkpt>
      <trkpt lat="43.53619" lon="5.712">
        <ele>463.8</ele>
        <time>2019-03-30T07:34:21Z</time>
      </trkpt>
      <trkpt lat="43.53632" lon="5.71222">
        <ele>463.86</ele>
        <time>2019-03-30T07:34:27Z</time>
      </trkpt>
      <trkpt lat="43.53644" lon="5.71241">
        <ele>464.22</ele>
        <time>2019-03-30T07:34:33Z</time>
      </trkpt>
      <trkpt lat="43.53659" lon="5.7126">
        <ele>465.1</ele>
        <time>2019-03-30T07:34:39Z</time>
      </trkpt>
      <trkpt lat="43.53671" lon="5.71282">
        <ele>465.81</ele>
        <time>2019-03-30T07:34:45Z</time>
      </trkpt>
      <trkpt lat="43.53683" lon="5.71301">
        <ele>467.4</ele>
        <time>2019-03-30T07:34:51Z</time>
      </trkpt>
      <trkpt lat="43.53695" lon="5.71321">
        <ele>468.82</ele>
        <time>2019-03-30T07:34:58Z</time>
      </trkpt>
      <trkpt lat="43.53706" lon="5.71341">
        <ele>469.52</ele>
        <time>2019-03-30T07:35:04Z</time>
      </trkpt>
      <trkpt lat="43.53717" lon="5.71361">
        <ele>469.21</ele>
        <time>2019-03-30T07:35:11Z</time>
      </trkpt>
      <trkpt lat="43.53731" lon="5.71377">
        <ele>469.82</ele>
        <time>2019-03-30T07:35:16Z</time>
      </trkpt>
      <trkpt lat="43.53743" lon="5.71396">
        <ele>470.5</ele>
        <time>2019-03-30T07:35:23Z</time>
      </trkpt>
      <trkpt lat="43.53757" lon="5.71414">
        <ele>471.4</ele>
        <time>2019-03-30T07:35:30Z</time>
      </trkpt>
      <trkpt lat="43.53765" lon="5.71438">
        <ele>471.26</ele>
        <time>2019-03-30T07:35:42Z</time>
      </trkpt>
      <trkpt lat="43.53753" lon="5.71457">
        <ele>470.72</ele>
        <time>2019-03-30T07:35:51Z</time>
      </trkpt>
      <trkpt lat="43.5374" lon="5.71478">
        <ele>471.01</ele>
        <time>2019-03-30T07:36:00Z</time>
      </trkpt>
      <trkpt lat="43.53728" lon="5.71497">
        <ele>471.62</ele>
        <time>2019-03-30T07:36:08Z</time>
      </trkpt>
      <trkpt lat="43.53717" lon="5.71521">
        <ele>470.57</ele>
        <time>2019-03-30T07:36:18Z</time>
      </trkpt>
      <trkpt lat="43.53729" lon="5.71541">
        <ele>472.07</ele>
        <time>2019-03-30T07:36:27Z</time>
      </trkpt>
      <trkpt lat="43.53744" lon="5.71554">
        <ele>473.51</ele>
        <time>2019-03-30T07:36:35Z</time>
      </trkpt>
      <trkpt lat="43.53758" lon="5.71571">
        <ele>476.29</ele>
        <time>2019-03-30T07:36:46Z</time>
      </trkpt>
      <trkpt lat="43.53777" lon="5.71573">
        <ele>477.73</ele>
        <time>2019-03-30T07:36:55Z</time>
      </trkpt>
      <trkpt lat="43.53797" lon="5.71576">
        <ele>479.07</ele>
        <time>2019-03-30T07:37:05Z</time>
      </trkpt>
      <trkpt lat="43.53815" lon="5.71575">
        <ele>480.87</ele>
        <time>2019-03-30T07:37:19Z</time>
      </trkpt>
      <trkpt lat="43.53833" lon="5.71577">
        <ele>481.05</ele>
        <time>2019-03-30T07:37:28Z</time>
      </trkpt>
      <trkpt lat="43.53854" lon="5.71577">
        <ele>481.46</ele>
        <time>2019-03-30T07:37:36Z</time>
      </trkpt>
      <trkpt lat="43.53872" lon="5.71571">
        <ele>480.15</ele>
        <time>2019-03-30T07:37:45Z</time>
      </trkpt>
      <trkpt lat="43.5389" lon="5.71562">
        <ele>476.18</ele>
        <time>2019-03-30T07:37:54Z</time>
      </trkpt>
      <trkpt lat="43.5391" lon="5.71559">
        <ele>471.76</ele>
        <time>2019-03-30T07:38:07Z</time>
      </trkpt>
      <trkpt lat="43.53929" lon="5.71557">
        <ele>469.43</ele>
        <time>2019-03-30T07:38:17Z</time>
      </trkpt>
      <trkpt lat="43.53947" lon="5.71548">
        <ele>465.9</ele>
        <time>2019-03-30T07:38:26Z</time>
      </trkpt>
      <trkpt lat="43.53963" lon="5.71563">
        <ele>453.58</ele>
        <time>2019-03-30T07:40:32Z</time>
      </trkpt>
      <trkpt lat="43.53981" lon="5.71566">
        <ele>454.17</ele>
        <time>2019-03-30T07:40:45Z</time>
      </trkpt>
      <trkpt lat="43.53994" lon="5.71584">
        <ele>454.94</ele>
        <time>2019-03-30T07:40:50Z</time>
      </trkpt>
      <trkpt lat="43.54011" lon="5.71594">
        <ele>454.77</ele>
        <time>2019-03-30T07:40:58Z</time>
      </trkpt>
      <trkpt lat="43.54029" lon="5.71595">
        <ele>454.1</ele>
        <time>2019-03-30T07:41:04Z</time>
      </trkpt>
      <trkpt lat="43.5405" lon="5.71606">
        <ele>451.47</ele>
        <time>2019-03-30T07:41:10Z</time>
      </trkpt>
      <trkpt lat="43.54069" lon="5.71607">
        <ele>448.73</ele>
        <time>2019-03-30T07:41:23Z</time>
      </trkpt>
      <trkpt lat="43.54089" lon="5.71605">
        <ele>448.83</ele>
        <time>2019-03-30T07:41:33Z</time>
      </trkpt>
      <trkpt lat="43.54109" lon="5.71608">
        <ele>448.14</ele>
        <time>2019-03-30T07:41:39Z</time>
      </trkpt>
      <trkpt lat="43.54129" lon="5.71604">
        <ele>446.35</ele>
        <time>2019-03-30T07:41:43Z</time>
      </trkpt>
      <trkpt lat="43.54152" lon="5.71601">
        <ele>444.56</ele>
        <time>2019-03-30T07:41:47Z</time>
      </trkpt>
      <trkpt lat="43.54173" lon="5.71598">
        <ele>445.69</ele>
        <time>2019-03-30T07:41:52Z</time>
      </trkpt>
      <trkpt lat="43.54193" lon="5.71584">
        <ele>447.44</ele>
        <time>2019-03-30T07:41:58Z</time>
      </trkpt>
      <trkpt lat="43.54209" lon="5.71567">
        <ele>449.27</ele>
        <time>2019-03-30T07:42:03Z</time>
      </trkpt>
      <trkpt lat="43.54225" lon="5.71555">
        <ele>449.91</ele>
        <time>2019-03-30T07:42:08Z</time>
      </trkpt>
      <trkpt lat="43.54238" lon="5.71534">
        <ele>450.85</ele>
        <time>2019-03-30T07:42:15Z</time>
      </trkpt>
      <trkpt lat="43.54254" lon="5.71514">
        <ele>451.98</ele>
        <time>2019-03-30T07:42:22Z</time>
      </trkpt>
      <trkpt lat="43.54271" lon="5.71503">
        <ele>453.32</ele>
        <time>2019-03-30T07:42:29Z</time>
      </trkpt>
      <trkpt lat="43.54287" lon="5.71491">
        <ele>455.24</ele>
        <time>2019-03-30T07:42:35Z</time>
      </trkpt>
      <trkpt lat="43.54305" lon="5.71479">
        <ele>455.94</ele>
        <time>2019-03-30T07:42:41Z</time>
      </trkpt>
      <trkpt lat="43.54326" lon="5.71474">
        <ele>455.85</ele>
        <time>2019-03-30T07:42:46Z</time>
      </trkpt>
      <trkpt lat="43.54345" lon="5.7147">
        <ele>455.95</ele>
        <time>2019-03-30T07:42:51Z</time>
      </trkpt>
      <trkpt lat="43.54368" lon="5.71463">
        <ele>455.88</ele>
        <time>2019-03-30T07:42:56Z</time>
      </trkpt>
      <trkpt lat="43.54385" lon="5.71452">
        <ele>457.37</ele>
        <time>2019-03-30T07:43:02Z</time>
      </trkpt>
      <trkpt lat="43.54407" lon="5.71462">
        <ele>461</ele>
        <time>2019-03-30T07:43:08Z</time>
      </trkpt>
      <trkpt lat="43.54427" lon="5.71463">
        <ele>462.2</ele>
        <time>2019-03-30T07:43:12Z</time>
      </trkpt>
      <trkpt lat="43.54447" lon="5.7146">
        <ele>462.19</ele>
        <time>2019-03-30T07:43:17Z</time>
      </trkpt>
      <trkpt lat="43.54468" lon="5.71457">
        <ele>462.1</ele>
        <time>2019-03-30T07:43:22Z</time>
      </trkpt>
      <trkpt lat="43.54489" lon="5.71457">
        <ele>461.88</ele>
        <time>2019-03-30T07:43:26Z</time>
      </trkpt>
      <trkpt lat="43.54509" lon="5.71464">
        <ele>461.94</ele>
        <time>2019-03-30T07:43:29Z</time>
      </trkpt>
      <trkpt lat="43.54527" lon="5.71471">
        <ele>464.07</ele>
        <time>2019-03-30T07:43:32Z</time>
      </trkpt>
      <trkpt lat="43.54548" lon="5.71479">
        <ele>466.43</ele>
        <time>2019-03-30T07:43:36Z</time>
      </trkpt>
      <trkpt lat="43.54569" lon="5.7149">
        <ele>467.95</ele>
        <time>2019-03-30T07:43:40Z</time>
      </trkpt>
      <trkpt lat="43.54588" lon="5.715">
        <ele>469.91</ele>
        <time>2019-03-30T07:43:44Z</time>
      </trkpt>
      <trkpt lat="43.54607" lon="5.7151">
        <ele>470.62</ele>
        <time>2019-03-30T07:43:48Z</time>
      </trkpt>
      <trkpt lat="43.54629" lon="5.71523">
        <ele>471.51</ele>
        <time>2019-03-30T07:43:52Z</time>
      </trkpt>
      <trkpt lat="43.54646" lon="5.71533">
        <ele>472.1</ele>
        <time>2019-03-30T07:43:55Z</time>
      </trkpt>
      <trkpt lat="43.54667" lon="5.71549">
        <ele>472.76</ele>
        <time>2019-03-30T07:43:59Z</time>
      </trkpt>
      <trkpt lat="43.54688" lon="5.71564">
        <ele>473.24</ele>
        <time>2019-03-30T07:44:03Z</time>
      </trkpt>
      <trkpt lat="43.54706" lon="5.71573">
        <ele>473.43</ele>
        <time>2019-03-30T07:44:06Z</time>
      </trkpt>
      <trkpt lat="43.54726" lon="5.71582">
        <ele>473.34</ele>
        <time>2019-03-30T07:44:10Z</time>
      </trkpt>
      <trkpt lat="43.54743" lon="5.71595">
        <ele>472.97</ele>
        <time>2019-03-30T07:44:14Z</time>
      </trkpt>
      <trkpt lat="43.54762" lon="5.71605">
        <ele>472.65</ele>
        <time>2019-03-30T07:44:18Z</time>
      </trkpt>
      <trkpt lat="43.5478" lon="5.71617">
        <ele>472.62</ele>
        <time>2019-03-30T07:44:22Z</time>
      </trkpt>
      <trkpt lat="43.54801" lon="5.71632">
        <ele>472.9</ele>
        <time>2019-03-30T07:44:26Z</time>
      </trkpt>
      <trkpt lat="43.54815" lon="5.71649">
        <ele>471.81</ele>
        <time>2019-03-30T07:44:30Z</time>
      </trkpt>
      <trkpt lat="43.54826" lon="5.71671">
        <ele>470.67</ele>
        <time>2019-03-30T07:44:34Z</time>
      </trkpt>
      <trkpt lat="43.54834" lon="5.71695">
        <ele>470.85</ele>
        <time>2019-03-30T07:44:39Z</time>
      </trkpt>
      <trkpt lat="43.54847" lon="5.71719">
        <ele>469.95</ele>
        <time>2019-03-30T07:44:43Z</time>
      </trkpt>
      <trkpt lat="43.54862" lon="5.71745">
        <ele>467.85</ele>
        <time>2019-03-30T07:44:47Z</time>
      </trkpt>
      <trkpt lat="43.54877" lon="5.7177">
        <ele>464.73</ele>
        <time>2019-03-30T07:44:51Z</time>
      </trkpt>
      <trkpt lat="43.54888" lon="5.71791">
        <ele>463.21</ele>
        <time>2019-03-30T07:44:55Z</time>
      </trkpt>
      <trkpt lat="43.54901" lon="5.71811">
        <ele>462.85</ele>
        <time>2019-03-30T07:44:59Z</time>
      </trkpt>
      <trkpt lat="43.54915" lon="5.71829">
        <ele>463.22</ele>
        <time>2019-03-30T07:45:03Z</time>
      </trkpt>
      <trkpt lat="43.5493" lon="5.71847">
        <ele>463.88</ele>
        <time>2019-03-30T07:45:07Z</time>
      </trkpt>
      <trkpt lat="43.54946" lon="5.71864">
        <ele>464.7</ele>
        <time>2019-03-30T07:45:11Z</time>
      </trkpt>
      <trkpt lat="43.54963" lon="5.71882">
        <ele>464.94</ele>
        <time>2019-03-30T07:45:15Z</time>
      </trkpt>
      <trkpt lat="43.5498" lon="5.71901">
        <ele>465.23</ele>
        <time>2019-03-30T07:45:19Z</time>
      </trkpt>
      <trkpt lat="43.54996" lon="5.71922">
        <ele>465.34</ele>
        <time>2019-03-30T07:45:23Z</time>
      </trkpt>
      <trkpt lat="43.55011" lon="5.71941">
        <ele>465.25</ele>
        <time>2019-03-30T07:45:27Z</time>
      </trkpt>
      <trkpt lat="43.55024" lon="5.71961">
        <ele>464.95</ele>
        <time>2019-03-30T07:45:31Z</time>
      </trkpt>
      <trkpt lat="43.5504" lon="5.71982">
        <ele>465.05</ele>
        <time>2019-03-30T07:45:35Z</time>
      </trkpt>
      <trkpt lat="43.55054" lon="5.71999">
        <ele>465.32</ele>
        <time>2019-03-30T07:45:38Z</time>
      </trkpt>
      <trkpt lat="43.55067" lon="5.72018">
        <ele>464.87</ele>
        <time>2019-03-30T07:45:41Z</time>
      </trkpt>
      <trkpt lat="43.55079" lon="5.72036">
        <ele>464.77</ele>
        <time>2019-03-30T07:45:44Z</time>
      </trkpt>
      <trkpt lat="43.55095" lon="5.72058">
        <ele>465.19</ele>
        <time>2019-03-30T07:45:48Z</time>
      </trkpt>
      <trkpt lat="43.55108" lon="5.72078">
        <ele>464.99</ele>
        <time>2019-03-30T07:45:51Z</time>
      </trkpt>
      <trkpt lat="43.55124" lon="5.721">
        <ele>464.95</ele>
        <time>2019-03-30T07:45:55Z</time>
      </trkpt>
      <trkpt lat="43.55137" lon="5.72118">
        <ele>464.85</ele>
        <time>2019-03-30T07:45:58Z</time>
      </trkpt>
      <trkpt lat="43.55153" lon="5.72139">
        <ele>464.67</ele>
        <time>2019-03-30T07:46:02Z</time>
      </trkpt>
      <trkpt lat="43.55168" lon="5.72161">
        <ele>464.37</ele>
        <time>2019-03-30T07:46:06Z</time>
      </trkpt>
      <trkpt lat="43.55183" lon="5.72183">
        <ele>463.76</ele>
        <time>2019-03-30T07:46:10Z</time>
      </trkpt>
      <trkpt lat="43.55198" lon="5.72201">
        <ele>463.91</ele>
        <time>2019-03-30T07:46:14Z</time>
      </trkpt>
      <trkpt lat="43.55214" lon="5.72218">
        <ele>463.85</ele>
        <time>2019-03-30T07:46:18Z</time>
      </trkpt>
      <trkpt lat="43.55228" lon="5.72241">
        <ele>462.85</ele>
        <time>2019-03-30T07:46:23Z</time>
      </trkpt>
      <trkpt lat="43.55235" lon="5.72266">
        <ele>459.87</ele>
        <time>2019-03-30T07:46:29Z</time>
      </trkpt>
      <trkpt lat="43.55244" lon="5.7229">
        <ele>457.91</ele>
        <time>2019-03-30T07:46:34Z</time>
      </trkpt>
      <trkpt lat="43.55254" lon="5.72311">
        <ele>457.07</ele>
        <time>2019-03-30T07:46:39Z</time>
      </trkpt>
      <trkpt lat="43.55267" lon="5.72333">
        <ele>456.67</ele>
        <time>2019-03-30T07:46:44Z</time>
      </trkpt>
      <trkpt lat="43.55281" lon="5.72353">
        <ele>456.76</ele>
        <time>2019-03-30T07:46:49Z</time>
      </trkpt>
      <trkpt lat="43.55293" lon="5.72375">
        <ele>456.97</ele>
        <time>2019-03-30T07:46:54Z</time>
      </trkpt>
      <trkpt lat="43.55305" lon="5.72396">
        <ele>456.25</ele>
        <time>2019-03-30T07:47:00Z</time>
      </trkpt>
      <trkpt lat="43.55319" lon="5.72416">
        <ele>455.75</ele>
        <time>2019-03-30T07:47:05Z</time>
      </trkpt>
      <trkpt lat="43.55334" lon="5.72438">
        <ele>455.75</ele>
        <time>2019-03-30T07:47:11Z</time>
      </trkpt>
      <trkpt lat="43.55345" lon="5.72457">
        <ele>454.19</ele>
        <time>2019-03-30T07:47:18Z</time>
      </trkpt>
      <trkpt lat="43.55355" lon="5.72483">
        <ele>443.58</ele>
        <time>2019-03-30T07:48:33Z</time>
      </trkpt>
      <trkpt lat="43.55367" lon="5.72502">
        <ele>443.37</ele>
        <time>2019-03-30T07:48:38Z</time>
      </trkpt>
      <trkpt lat="43.55379" lon="5.7252">
        <ele>443.17</ele>
        <time>2019-03-30T07:48:42Z</time>
      </trkpt>
      <trkpt lat="43.55392" lon="5.72541">
        <ele>442.5</ele>
        <time>2019-03-30T07:48:46Z</time>
      </trkpt>
      <trkpt lat="43.55407" lon="5.72563">
        <ele>441.99</ele>
        <time>2019-03-30T07:48:50Z</time>
      </trkpt>
      <trkpt lat="43.55424" lon="5.72582">
        <ele>441.28</ele>
        <time>2019-03-30T07:48:54Z</time>
      </trkpt>
      <trkpt lat="43.5544" lon="5.72597">
        <ele>440.87</ele>
        <time>2019-03-30T07:48:58Z</time>
      </trkpt>
      <trkpt lat="43.55454" lon="5.72619">
        <ele>439.73</ele>
        <time>2019-03-30T07:49:02Z</time>
      </trkpt>
      <trkpt lat="43.55471" lon="5.72637">
        <ele>438.6</ele>
        <time>2019-03-30T07:49:08Z</time>
      </trkpt>
      <trkpt lat="43.55485" lon="5.72662">
        <ele>438.17</ele>
        <time>2019-03-30T07:49:12Z</time>
      </trkpt>
      <trkpt lat="43.55499" lon="5.72678">
        <ele>437.7</ele>
        <time>2019-03-30T07:49:15Z</time>
      </trkpt>
      <trkpt lat="43.55513" lon="5.72694">
        <ele>436.9</ele>
        <time>2019-03-30T07:49:19Z</time>
      </trkpt>
      <trkpt lat="43.55531" lon="5.72717">
        <ele>434.9</ele>
        <time>2019-03-30T07:49:23Z</time>
      </trkpt>
      <trkpt lat="43.55549" lon="5.72723">
        <ele>427.81</ele>
        <time>2019-03-30T07:49:29Z</time>
      </trkpt>
      <trkpt lat="43.55546" lon="5.72694">
        <ele>422.06</ele>
        <time>2019-03-30T07:49:35Z</time>
      </trkpt>
      <trkpt lat="43.55542" lon="5.7267">
        <ele>418.54</ele>
        <time>2019-03-30T07:49:40Z</time>
      </trkpt>
      <trkpt lat="43.55545" lon="5.72645">
        <ele>416.92</ele>
        <time>2019-03-30T07:49:46Z</time>
      </trkpt>
      <trkpt lat="43.55526" lon="5.72631">
        <ele>412.28</ele>
        <time>2019-03-30T07:49:53Z</time>
      </trkpt>
      <trkpt lat="43.5551" lon="5.72618">
        <ele>409.86</ele>
        <time>2019-03-30T07:49:58Z</time>
      </trkpt>
      <trkpt lat="43.555" lon="5.72594">
        <ele>407.32</ele>
        <time>2019-03-30T07:50:05Z</time>
      </trkpt>
      <trkpt lat="43.55493" lon="5.72569">
        <ele>405.99</ele>
        <time>2019-03-30T07:50:13Z</time>
      </trkpt>
      <trkpt lat="43.55491" lon="5.72543">
        <ele>405.45</ele>
        <time>2019-03-30T07:50:23Z</time>
      </trkpt>
      <trkpt lat="43.55496" lon="5.72518">
        <ele>405.05</ele>
        <time>2019-03-30T07:50:33Z</time>
      </trkpt>
      <trkpt lat="43.55499" lon="5.72491">
        <ele>404.95</ele>
        <time>2019-03-30T07:50:40Z</time>
      </trkpt>
      <trkpt lat="43.55506" lon="5.72465">
        <ele>404.87</ele>
        <time>2019-03-30T07:50:47Z</time>
      </trkpt>
      <trkpt lat="43.55505" lon="5.72437">
        <ele>404.44</ele>
        <time>2019-03-30T07:50:56Z</time>
      </trkpt>
      <trkpt lat="43.55503" lon="5.7241">
        <ele>404.14</ele>
        <time>2019-03-30T07:51:04Z</time>
      </trkpt>
      <trkpt lat="43.555" lon="5.72385">
        <ele>405.27</ele>
        <time>2019-03-30T07:51:11Z</time>
      </trkpt>
      <trkpt lat="43.55492" lon="5.72363">
        <ele>405.74</ele>
        <time>2019-03-30T07:51:27Z</time>
      </trkpt>
      <trkpt lat="43.55492" lon="5.72334">
        <ele>405.71</ele>
        <time>2019-03-30T07:52:17Z</time>
      </trkpt>
      <trkpt lat="43.55501" lon="5.72311">
        <ele>402.95</ele>
        <time>2019-03-30T07:52:41Z</time>
      </trkpt>
      <trkpt lat="43.55498" lon="5.72286">
        <ele>403.82</ele>
        <time>2019-03-30T07:52:49Z</time>
      </trkpt>
      <trkpt lat="43.55497" lon="5.72259">
        <ele>404.62</ele>
        <time>2019-03-30T07:52:57Z</time>
      </trkpt>
      <trkpt lat="43.5549" lon="5.72235">
        <ele>405.22</ele>
        <time>2019-03-30T07:53:06Z</time>
      </trkpt>
      <trkpt lat="43.55496" lon="5.72207">
        <ele>406.42</ele>
        <time>2019-03-30T07:53:12Z</time>
      </trkpt>
      <trkpt lat="43.55498" lon="5.72181">
        <ele>407.89</ele>
        <time>2019-03-30T07:53:21Z</time>
      </trkpt>
      <trkpt lat="43.55502" lon="5.72156">
        <ele>409.32</ele>
        <time>2019-03-30T07:53:28Z</time>
      </trkpt>
      <trkpt lat="43.55508" lon="5.72129">
        <ele>410.5</ele>
        <time>2019-03-30T07:53:35Z</time>
      </trkpt>
      <trkpt lat="43.55517" lon="5.72107">
        <ele>411.71</ele>
        <time>2019-03-30T07:53:44Z</time>
      </trkpt>
      <trkpt lat="43.55527" lon="5.72085">
        <ele>412.82</ele>
        <time>2019-03-30T07:53:52Z</time>
      </trkpt>
      <trkpt lat="43.5553" lon="5.72059">
        <ele>415.65</ele>
        <time>2019-03-30T07:54:02Z</time>
      </trkpt>
      <trkpt lat="43.55537" lon="5.72033">
        <ele>418.83</ele>
        <time>2019-03-30T07:54:11Z</time>
      </trkpt>
      <trkpt lat="43.55543" lon="5.72008">
        <ele>421.14</ele>
        <time>2019-03-30T07:54:19Z</time>
      </trkpt>
      <trkpt lat="43.55542" lon="5.71983">
        <ele>425.07</ele>
        <time>2019-03-30T07:54:31Z</time>
      </trkpt>
      <trkpt lat="43.55548" lon="5.71958">
        <ele>428.76</ele>
        <time>2019-03-30T07:54:39Z</time>
      </trkpt>
      <trkpt lat="43.55556" lon="5.71935">
        <ele>431.7</ele>
        <time>2019-03-30T07:54:46Z</time>
      </trkpt>
      <trkpt lat="43.55564" lon="5.71912">
        <ele>435.63</ele>
        <time>2019-03-30T07:54:54Z</time>
      </trkpt>
      <trkpt lat="43.55571" lon="5.71889">
        <ele>441.42</ele>
        <time>2019-03-30T07:55:04Z</time>
      </trkpt>
      <trkpt lat="43.55576" lon="5.71864">
        <ele>448.88</ele>
        <time>2019-03-30T07:55:18Z</time>
      </trkpt>
      <trkpt lat="43.5558" lon="5.71837">
        <ele>456.59</ele>
        <time>2019-03-30T07:55:31Z</time>
      </trkpt>
      <trkpt lat="43.55573" lon="5.71812">
        <ele>452.81</ele>
        <time>2019-03-30T07:55:53Z</time>
      </trkpt>
      <trkpt lat="43.55574" lon="5.71784">
        <ele>449.21</ele>
        <time>2019-03-30T07:56:02Z</time>
      </trkpt>
      <trkpt lat="43.55566" lon="5.7176">
        <ele>447.77</ele>
        <time>2019-03-30T07:56:14Z</time>
      </trkpt>
      <trkpt lat="43.55565" lon="5.71734">
        <ele>446.96</ele>
        <time>2019-03-30T07:56:24Z</time>
      </trkpt>
      <trkpt lat="43.5557" lon="5.7171">
        <ele>446.9</ele>
        <time>2019-03-30T07:56:33Z</time>
      </trkpt>
      <trkpt lat="43.55577" lon="5.71687">
        <ele>446.9</ele>
        <time>2019-03-30T07:56:39Z</time>
      </trkpt>
      <trkpt lat="43.55583" lon="5.71661">
        <ele>447.61</ele>
        <time>2019-03-30T07:56:48Z</time>
      </trkpt>
      <trkpt lat="43.55591" lon="5.71638">
        <ele>448.66</ele>
        <time>2019-03-30T07:56:56Z</time>
      </trkpt>
      <trkpt lat="43.55597" lon="5.71612">
        <ele>448.66</ele>
        <time>2019-03-30T07:57:06Z</time>
      </trkpt>
      <trkpt lat="43.55603" lon="5.71587">
        <ele>449.79</ele>
        <time>2019-03-30T07:57:19Z</time>
      </trkpt>
      <trkpt lat="43.55609" lon="5.71563">
        <ele>451.25</ele>
        <time>2019-03-30T07:57:28Z</time>
      </trkpt>
      <trkpt lat="43.55618" lon="5.71541">
        <ele>451.54</ele>
        <time>2019-03-30T07:57:35Z</time>
      </trkpt>
      <trkpt lat="43.55632" lon="5.71522">
        <ele>451</ele>
        <time>2019-03-30T07:57:42Z</time>
      </trkpt>
      <trkpt lat="43.55636" lon="5.71496">
        <ele>451.5</ele>
        <time>2019-03-30T07:57:54Z</time>
      </trkpt>
      <trkpt lat="43.55639" lon="5.71471">
        <ele>450.69</ele>
        <time>2019-03-30T07:58:05Z</time>
      </trkpt>
      <trkpt lat="43.55647" lon="5.71447">
        <ele>449.75</ele>
        <time>2019-03-30T07:58:15Z</time>
      </trkpt>
      <trkpt lat="43.55655" lon="5.71425">
        <ele>448.85</ele>
        <time>2019-03-30T07:58:30Z</time>
      </trkpt>
      <trkpt lat="43.55672" lon="5.71439">
        <ele>432.42</ele>
        <time>2019-03-30T08:02:02Z</time>
      </trkpt>
      <trkpt lat="43.55685" lon="5.71458">
        <ele>433.22</ele>
        <time>2019-03-30T08:02:08Z</time>
      </trkpt>
      <trkpt lat="43.55696" lon="5.7148">
        <ele>433.82</ele>
        <time>2019-03-30T08:02:13Z</time>
      </trkpt>
      <trkpt lat="43.55703" lon="5.71506">
        <ele>434.4</ele>
        <time>2019-03-30T08:02:18Z</time>
      </trkpt>
      <trkpt lat="43.5571" lon="5.71535">
        <ele>435.1</ele>
        <time>2019-03-30T08:02:23Z</time>
      </trkpt>
      <trkpt lat="43.55719" lon="5.71566">
        <ele>435.52</ele>
        <time>2019-03-30T08:02:27Z</time>
      </trkpt>
      <trkpt lat="43.55726" lon="5.71596">
        <ele>435.74</ele>
        <time>2019-03-30T08:02:31Z</time>
      </trkpt>
      <trkpt lat="43.55733" lon="5.71625">
        <ele>435.67</ele>
        <time>2019-03-30T08:02:35Z</time>
      </trkpt>
      <trkpt lat="43.55741" lon="5.71654">
        <ele>435.82</ele>
        <time>2019-03-30T08:02:39Z</time>
      </trkpt>
      <trkpt lat="43.55753" lon="5.71678">
        <ele>435.85</ele>
        <time>2019-03-30T08:02:43Z</time>
      </trkpt>
      <trkpt lat="43.55766" lon="5.71697">
        <ele>436.12</ele>
        <time>2019-03-30T08:02:47Z</time>
      </trkpt>
      <trkpt lat="43.55779" lon="5.71714">
        <ele>436.62</ele>
        <time>2019-03-30T08:02:51Z</time>
      </trkpt>
      <trkpt lat="43.55794" lon="5.71732">
        <ele>437.1</ele>
        <time>2019-03-30T08:02:55Z</time>
      </trkpt>
      <trkpt lat="43.5581" lon="5.71748">
        <ele>437.8</ele>
        <time>2019-03-30T08:02:59Z</time>
      </trkpt>
      <trkpt lat="43.55825" lon="5.71767">
        <ele>438.7</ele>
        <time>2019-03-30T08:03:03Z</time>
      </trkpt>
      <trkpt lat="43.55842" lon="5.71785">
        <ele>439.22</ele>
        <time>2019-03-30T08:03:07Z</time>
      </trkpt>
      <trkpt lat="43.55858" lon="5.71805">
        <ele>439.7</ele>
        <time>2019-03-30T08:03:11Z</time>
      </trkpt>
      <trkpt lat="43.55874" lon="5.71823">
        <ele>439.77</ele>
        <time>2019-03-30T08:03:15Z</time>
      </trkpt>
      <trkpt lat="43.55892" lon="5.71842">
        <ele>440.03</ele>
        <time>2019-03-30T08:03:19Z</time>
      </trkpt>
      <trkpt lat="43.55909" lon="5.71861">
        <ele>439.77</ele>
        <time>2019-03-30T08:03:23Z</time>
      </trkpt>
      <trkpt lat="43.55926" lon="5.71878">
        <ele>440.38</ele>
        <time>2019-03-30T08:03:27Z</time>
      </trkpt>
      <trkpt lat="43.55943" lon="5.71896">
        <ele>441.12</ele>
        <time>2019-03-30T08:03:31Z</time>
      </trkpt>
      <trkpt lat="43.55961" lon="5.71913">
        <ele>441.9</ele>
        <time>2019-03-30T08:03:35Z</time>
      </trkpt>
      <trkpt lat="43.55978" lon="5.7193">
        <ele>442.52</ele>
        <time>2019-03-30T08:03:39Z</time>
      </trkpt>
      <trkpt lat="43.55994" lon="5.71949">
        <ele>442.92</ele>
        <time>2019-03-30T08:03:43Z</time>
      </trkpt>
      <trkpt lat="43.56008" lon="5.71967">
        <ele>443.42</ele>
        <time>2019-03-30T08:03:47Z</time>
      </trkpt>
      <trkpt lat="43.56025" lon="5.71988">
        <ele>444.4</ele>
        <time>2019-03-30T08:03:52Z</time>
      </trkpt>
      <trkpt lat="43.56038" lon="5.72005">
        <ele>445.57</ele>
        <time>2019-03-30T08:03:56Z</time>
      </trkpt>
      <trkpt lat="43.56052" lon="5.72023">
        <ele>446.32</ele>
        <time>2019-03-30T08:04:00Z</time>
      </trkpt>
      <trkpt lat="43.56064" lon="5.72043">
        <ele>446.45</ele>
        <time>2019-03-30T08:04:04Z</time>
      </trkpt>
      <trkpt lat="43.5607" lon="5.72068">
        <ele>446.57</ele>
        <time>2019-03-30T08:04:08Z</time>
      </trkpt>
      <trkpt lat="43.56072" lon="5.72096">
        <ele>445.88</ele>
        <time>2019-03-30T08:04:12Z</time>
      </trkpt>
      <trkpt lat="43.5607" lon="5.72124">
        <ele>445.3</ele>
        <time>2019-03-30T08:04:16Z</time>
      </trkpt>
      <trkpt lat="43.56069" lon="5.72154">
        <ele>444.87</ele>
        <time>2019-03-30T08:04:20Z</time>
      </trkpt>
      <trkpt lat="43.56072" lon="5.72178">
        <ele>444.77</ele>
        <time>2019-03-30T08:04:23Z</time>
      </trkpt>
      <trkpt lat="43.56079" lon="5.72207">
        <ele>444.66</ele>
        <time>2019-03-30T08:04:27Z</time>
      </trkpt>
      <trkpt lat="43.56088" lon="5.72237">
        <ele>444.75</ele>
        <time>2019-03-30T08:04:31Z</time>
      </trkpt>
      <trkpt lat="43.56099" lon="5.7226">
        <ele>444.65</ele>
        <time>2019-03-30T08:04:35Z</time>
      </trkpt>
      <trkpt lat="43.56111" lon="5.72285">
        <ele>444.94</ele>
        <time>2019-03-30T08:04:39Z</time>
      </trkpt>
      <trkpt lat="43.56121" lon="5.7231">
        <ele>445.24</ele>
        <time>2019-03-30T08:04:43Z</time>
      </trkpt>
      <trkpt lat="43.56133" lon="5.72335">
        <ele>445.23</ele>
        <time>2019-03-30T08:04:47Z</time>
      </trkpt>
      <trkpt lat="43.56144" lon="5.72358">
        <ele>445.24</ele>
        <time>2019-03-30T08:04:51Z</time>
      </trkpt>
      <trkpt lat="43.56152" lon="5.72387">
        <ele>445.38</ele>
        <time>2019-03-30T08:04:55Z</time>
      </trkpt>
      <trkpt lat="43.5616" lon="5.72416">
        <ele>444.87</ele>
        <time>2019-03-30T08:04:59Z</time>
      </trkpt>
      <trkpt lat="43.56175" lon="5.72439">
        <ele>444.1</ele>
        <time>2019-03-30T08:05:03Z</time>
      </trkpt>
      <trkpt lat="43.56193" lon="5.72458">
        <ele>443.12</ele>
        <time>2019-03-30T08:05:07Z</time>
      </trkpt>
      <trkpt lat="43.5621" lon="5.72475">
        <ele>441.92</ele>
        <time>2019-03-30T08:05:11Z</time>
      </trkpt>
      <trkpt lat="43.56227" lon="5.72484">
        <ele>440.09</ele>
        <time>2019-03-30T08:05:16Z</time>
      </trkpt>
      <trkpt lat="43.56234" lon="5.72459">
        <ele>433.77</ele>
        <time>2019-03-30T08:05:24Z</time>
      </trkpt>
      <trkpt lat="43.56241" lon="5.72434">
        <ele>429.2</ele>
        <time>2019-03-30T08:05:33Z</time>
      </trkpt>
      <trkpt lat="43.56246" lon="5.72408">
        <ele>423.04</ele>
        <time>2019-03-30T08:05:42Z</time>
      </trkpt>
      <trkpt lat="43.56245" lon="5.72381">
        <ele>419.96</ele>
        <time>2019-03-30T08:05:49Z</time>
      </trkpt>
      <trkpt lat="43.56241" lon="5.72353">
        <ele>415.2</ele>
        <time>2019-03-30T08:05:56Z</time>
      </trkpt>
      <trkpt lat="43.56233" lon="5.72329">
        <ele>412.01</ele>
        <time>2019-03-30T08:06:04Z</time>
      </trkpt>
      <trkpt lat="43.56227" lon="5.72305">
        <ele>410.51</ele>
        <time>2019-03-30T08:06:11Z</time>
      </trkpt>
      <trkpt lat="43.56229" lon="5.72279">
        <ele>411.15</ele>
        <time>2019-03-30T08:06:20Z</time>
      </trkpt>
      <trkpt lat="43.56232" lon="5.72251">
        <ele>412.88</ele>
        <time>2019-03-30T08:06:29Z</time>
      </trkpt>
      <trkpt lat="43.5623" lon="5.72226">
        <ele>412.41</ele>
        <time>2019-03-30T08:06:36Z</time>
      </trkpt>
      <trkpt lat="43.56233" lon="5.722">
        <ele>413.89</ele>
        <time>2019-03-30T08:06:44Z</time>
      </trkpt>
      <trkpt lat="43.56238" lon="5.72175">
        <ele>414.81</ele>
        <time>2019-03-30T08:06:52Z</time>
      </trkpt>
      <trkpt lat="43.56238" lon="5.7215">
        <ele>417.02</ele>
        <time>2019-03-30T08:07:00Z</time>
      </trkpt>
      <trkpt lat="43.56241" lon="5.72124">
        <ele>418.58</ele>
        <time>2019-03-30T08:07:08Z</time>
      </trkpt>
      <trkpt lat="43.56247" lon="5.72099">
        <ele>419.23</ele>
        <time>2019-03-30T08:07:16Z</time>
      </trkpt>
      <trkpt lat="43.56246" lon="5.72071">
        <ele>420.89</ele>
        <time>2019-03-30T08:07:25Z</time>
      </trkpt>
      <trkpt lat="43.56247" lon="5.72046">
        <ele>423.08</ele>
        <time>2019-03-30T08:07:34Z</time>
      </trkpt>
      <trkpt lat="43.56253" lon="5.72022">
        <ele>422.59</ele>
        <time>2019-03-30T08:07:41Z</time>
      </trkpt>
      <trkpt lat="43.56257" lon="5.71996">
        <ele>426.39</ele>
        <time>2019-03-30T08:07:52Z</time>
      </trkpt>
      <trkpt lat="43.56266" lon="5.71974">
        <ele>428.32</ele>
        <time>2019-03-30T08:08:01Z</time>
      </trkpt>
      <trkpt lat="43.56274" lon="5.71949">
        <ele>428.71</ele>
        <time>2019-03-30T08:08:09Z</time>
      </trkpt>
      <trkpt lat="43.56277" lon="5.71922">
        <ele>429.44</ele>
        <time>2019-03-30T08:08:18Z</time>
      </trkpt>
      <trkpt lat="43.5628" lon="5.71896">
        <ele>431.25</ele>
        <time>2019-03-30T08:08:27Z</time>
      </trkpt>
      <trkpt lat="43.5629" lon="5.71874">
        <ele>437.3</ele>
        <time>2019-03-30T08:08:38Z</time>
      </trkpt>
      <trkpt lat="43.56295" lon="5.71849">
        <ele>440.7</ele>
        <time>2019-03-30T08:08:48Z</time>
      </trkpt>
      <trkpt lat="43.56297" lon="5.71823">
        <ele>443.87</ele>
        <time>2019-03-30T08:08:57Z</time>
      </trkpt>
      <trkpt lat="43.56296" lon="5.71797">
        <ele>444.6</ele>
        <time>2019-03-30T08:09:05Z</time>
      </trkpt>
      <trkpt lat="43.56293" lon="5.71771">
        <ele>444.32</ele>
        <time>2019-03-30T08:09:14Z</time>
      </trkpt>
      <trkpt lat="43.56285" lon="5.71746">
        <ele>442.03</ele>
        <time>2019-03-30T08:09:24Z</time>
      </trkpt>
      <trkpt lat="43.56276" lon="5.71722">
        <ele>441.25</ele>
        <time>2019-03-30T08:09:34Z</time>
      </trkpt>
      <trkpt lat="43.56276" lon="5.71696">
        <ele>441.59</ele>
        <time>2019-03-30T08:09:44Z</time>
      </trkpt>
      <trkpt lat="43.56279" lon="5.7167">
        <ele>444.56</ele>
        <time>2019-03-30T08:09:55Z</time>
      </trkpt>
      <trkpt lat="43.5628" lon="5.71644">
        <ele>446.42</ele>
        <time>2019-03-30T08:10:05Z</time>
      </trkpt>
      <trkpt lat="43.56278" lon="5.71619">
        <ele>449.25</ele>
        <time>2019-03-30T08:10:15Z</time>
      </trkpt>
      <trkpt lat="43.56277" lon="5.71592">
        <ele>452.39</ele>
        <time>2019-03-30T08:10:25Z</time>
      </trkpt>
      <trkpt lat="43.56282" lon="5.71566">
        <ele>456.76</ele>
        <time>2019-03-30T08:10:36Z</time>
      </trkpt>
      <trkpt lat="43.56289" lon="5.71543">
        <ele>459.78</ele>
        <time>2019-03-30T08:10:46Z</time>
      </trkpt>
      <trkpt lat="43.5629" lon="5.71518">
        <ele>459.92</ele>
        <time>2019-03-30T08:10:55Z</time>
      </trkpt>
      <trkpt lat="43.56303" lon="5.71537">
        <ele>453</ele>
        <time>2019-03-30T08:12:06Z</time>
      </trkpt>
      <trkpt lat="43.56301" lon="5.71565">
        <ele>454.2</ele>
        <time>2019-03-30T08:12:12Z</time>
      </trkpt>
      <trkpt lat="43.56301" lon="5.7159">
        <ele>455.49</ele>
        <time>2019-03-30T08:12:17Z</time>
      </trkpt>
      <trkpt lat="43.56301" lon="5.71617">
        <ele>456.14</ele>
        <time>2019-03-30T08:12:22Z</time>
      </trkpt>
      <trkpt lat="43.56302" lon="5.71644">
        <ele>456.42</ele>
        <time>2019-03-30T08:12:27Z</time>
      </trkpt>
      <trkpt lat="43.56305" lon="5.71671">
        <ele>456.72</ele>
        <time>2019-03-30T08:12:32Z</time>
      </trkpt>
      <trkpt lat="43.56312" lon="5.71699">
        <ele>456.95</ele>
        <time>2019-03-30T08:12:37Z</time>
      </trkpt>
      <trkpt lat="43.56323" lon="5.71725">
        <ele>456.95</ele>
        <time>2019-03-30T08:12:42Z</time>
      </trkpt>
      <trkpt lat="43.56335" lon="5.71751">
        <ele>456.55</ele>
        <time>2019-03-30T08:12:47Z</time>
      </trkpt>
      <trkpt lat="43.56344" lon="5.7178">
        <ele>456.25</ele>
        <time>2019-03-30T08:12:52Z</time>
      </trkpt>
      <trkpt lat="43.56351" lon="5.71804">
        <ele>456.15</ele>
        <time>2019-03-30T08:12:56Z</time>
      </trkpt>
      <trkpt lat="43.56365" lon="5.71827">
        <ele>455.75</ele>
        <time>2019-03-30T08:13:01Z</time>
      </trkpt>
      <trkpt lat="43.56368" lon="5.71852">
        <ele>455.13</ele>
        <time>2019-03-30T08:13:05Z</time>
      </trkpt>
      <trkpt lat="43.5637" lon="5.71878">
        <ele>454.85</ele>
        <time>2019-03-30T08:13:09Z</time>
      </trkpt>
      <trkpt lat="43.56375" lon="5.71905">
        <ele>454.47</ele>
        <time>2019-03-30T08:13:13Z</time>
      </trkpt>
      <trkpt lat="43.56384" lon="5.71927">
        <ele>454.17</ele>
        <time>2019-03-30T08:13:17Z</time>
      </trkpt>
      <trkpt lat="43.56394" lon="5.71949">
        <ele>453.58</ele>
        <time>2019-03-30T08:13:21Z</time>
      </trkpt>
      <trkpt lat="43.56408" lon="5.71971">
        <ele>453.45</ele>
        <time>2019-03-30T08:13:25Z</time>
      </trkpt>
      <trkpt lat="43.56421" lon="5.71994">
        <ele>453.44</ele>
        <time>2019-03-30T08:13:29Z</time>
      </trkpt>
      <trkpt lat="43.56436" lon="5.72015">
        <ele>453.63</ele>
        <time>2019-03-30T08:13:33Z</time>
      </trkpt>
      <trkpt lat="43.5645" lon="5.72034">
        <ele>453.92</ele>
        <time>2019-03-30T08:13:37Z</time>
      </trkpt>
      <trkpt lat="43.56466" lon="5.7205">
        <ele>454.59</ele>
        <time>2019-03-30T08:13:41Z</time>
      </trkpt>
      <trkpt lat="43.56485" lon="5.72066">
        <ele>454.93</ele>
        <time>2019-03-30T08:13:45Z</time>
      </trkpt>
      <trkpt lat="43.56501" lon="5.72087">
        <ele>454.95</ele>
        <time>2019-03-30T08:13:49Z</time>
      </trkpt>
      <trkpt lat="43.56514" lon="5.72112">
        <ele>454.87</ele>
        <time>2019-03-30T08:13:53Z</time>
      </trkpt>
      <trkpt lat="43.56527" lon="5.72137">
        <ele>454.94</ele>
        <time>2019-03-30T08:13:57Z</time>
      </trkpt>
      <trkpt lat="43.5654" lon="5.72161">
        <ele>454.87</ele>
        <time>2019-03-30T08:14:01Z</time>
      </trkpt>
      <trkpt lat="43.56551" lon="5.72183">
        <ele>454.19</ele>
        <time>2019-03-30T08:14:05Z</time>
      </trkpt>
      <trkpt lat="43.56562" lon="5.72205">
        <ele>453.65</ele>
        <time>2019-03-30T08:14:09Z</time>
      </trkpt>
      <trkpt lat="43.56576" lon="5.72225">
        <ele>453.11</ele>
        <time>2019-03-30T08:14:13Z</time>
      </trkpt>
      <trkpt lat="43.56594" lon="5.72231">
        <ele>452.22</ele>
        <time>2019-03-30T08:14:17Z</time>
      </trkpt>
      <trkpt lat="43.56615" lon="5.72223">
        <ele>448.49</ele>
        <time>2019-03-30T08:14:22Z</time>
      </trkpt>
      <trkpt lat="43.56632" lon="5.72235">
        <ele>446.03</ele>
        <time>2019-03-30T08:14:28Z</time>
      </trkpt>
      <trkpt lat="43.56624" lon="5.72258">
        <ele>437.07</ele>
        <time>2019-03-30T08:15:32Z</time>
      </trkpt>
      <trkpt lat="43.56616" lon="5.72285">
        <ele>437.05</ele>
        <time>2019-03-30T08:15:38Z</time>
      </trkpt>
      <trkpt lat="43.56616" lon="5.72311">
        <ele>437.05</ele>
        <time>2019-03-30T08:15:44Z</time>
      </trkpt>
      <trkpt lat="43.56623" lon="5.72335">
        <ele>436.95</ele>
        <time>2019-03-30T08:15:51Z</time>
      </trkpt>
      <trkpt lat="43.56634" lon="5.72357">
        <ele>434.98</ele>
        <time>2019-03-30T08:16:12Z</time>
      </trkpt>
      <trkpt lat="43.56647" lon="5.72374">
        <ele>435.04</ele>
        <time>2019-03-30T08:16:17Z</time>
      </trkpt>
      <trkpt lat="43.56667" lon="5.7238">
        <ele>435.33</ele>
        <time>2019-03-30T08:16:22Z</time>
      </trkpt>
      <trkpt lat="43.56689" lon="5.72377">
        <ele>435.74</ele>
        <time>2019-03-30T08:16:27Z</time>
      </trkpt>
      <trkpt lat="43.56709" lon="5.72369">
        <ele>436.24</ele>
        <time>2019-03-30T08:16:32Z</time>
      </trkpt>
      <trkpt lat="43.5673" lon="5.72366">
        <ele>436.38</ele>
        <time>2019-03-30T08:16:37Z</time>
      </trkpt>
      <trkpt lat="43.56745" lon="5.72386">
        <ele>437.97</ele>
        <time>2019-03-30T08:16:42Z</time>
      </trkpt>
      <trkpt lat="43.56758" lon="5.72407">
        <ele>439.35</ele>
        <time>2019-03-30T08:16:46Z</time>
      </trkpt>
      <trkpt lat="43.56772" lon="5.72433">
        <ele>440.55</ele>
        <time>2019-03-30T08:16:50Z</time>
      </trkpt>
      <trkpt lat="43.56785" lon="5.7246">
        <ele>441.58</ele>
        <time>2019-03-30T08:16:54Z</time>
      </trkpt>
      <trkpt lat="43.56804" lon="5.72467">
        <ele>442.97</ele>
        <time>2019-03-30T08:16:58Z</time>
      </trkpt>
      <trkpt lat="43.5682" lon="5.72455">
        <ele>443.6</ele>
        <time>2019-03-30T08:17:02Z</time>
      </trkpt>
      <trkpt lat="43.56839" lon="5.72445">
        <ele>443.92</ele>
        <time>2019-03-30T08:17:07Z</time>
      </trkpt>
      <trkpt lat="43.56848" lon="5.72468">
        <ele>445.08</ele>
        <time>2019-03-30T08:17:13Z</time>
      </trkpt>
      <trkpt lat="43.56856" lon="5.72492">
        <ele>446</ele>
        <time>2019-03-30T08:17:18Z</time>
      </trkpt>
      <trkpt lat="43.56869" lon="5.72511">
        <ele>447.83</ele>
        <time>2019-03-30T08:17:23Z</time>
      </trkpt>
      <trkpt lat="43.56887" lon="5.72521">
        <ele>449.47</ele>
        <time>2019-03-30T08:17:28Z</time>
      </trkpt>
      <trkpt lat="43.56906" lon="5.72512">
        <ele>450.72</ele>
        <time>2019-03-30T08:17:34Z</time>
      </trkpt>
      <trkpt lat="43.56919" lon="5.72492">
        <ele>447.81</ele>
        <time>2019-03-30T08:17:39Z</time>
      </trkpt>
      <trkpt lat="43.56932" lon="5.72471">
        <ele>443.82</ele>
        <time>2019-03-30T08:17:44Z</time>
      </trkpt>
      <trkpt lat="43.56948" lon="5.72454">
        <ele>441.52</ele>
        <time>2019-03-30T08:17:49Z</time>
      </trkpt>
      <trkpt lat="43.56965" lon="5.7244">
        <ele>440.97</ele>
        <time>2019-03-30T08:17:54Z</time>
      </trkpt>
      <trkpt lat="43.56962" lon="5.72468">
        <ele>441.02</ele>
        <time>2019-03-30T08:18:01Z</time>
      </trkpt>
      <trkpt lat="43.56958" lon="5.72492">
        <ele>441.05</ele>
        <time>2019-03-30T08:18:06Z</time>
      </trkpt>
      <trkpt lat="43.56965" lon="5.72517">
        <ele>441.52</ele>
        <time>2019-03-30T08:18:11Z</time>
      </trkpt>
      <trkpt lat="43.56974" lon="5.72543">
        <ele>441.9</ele>
        <time>2019-03-30T08:18:16Z</time>
      </trkpt>
      <trkpt lat="43.56973" lon="5.72573">
        <ele>442.52</ele>
        <time>2019-03-30T08:18:21Z</time>
      </trkpt>
      <trkpt lat="43.56968" lon="5.72598">
        <ele>442.92</ele>
        <time>2019-03-30T08:18:25Z</time>
      </trkpt>
      <trkpt lat="43.56961" lon="5.72627">
        <ele>443.52</ele>
        <time>2019-03-30T08:18:30Z</time>
      </trkpt>
      <trkpt lat="43.56959" lon="5.72655">
        <ele>443.96</ele>
        <time>2019-03-30T08:18:35Z</time>
      </trkpt>
      <trkpt lat="43.56965" lon="5.72682">
        <ele>443.97</ele>
        <time>2019-03-30T08:18:40Z</time>
      </trkpt>
      <trkpt lat="43.56973" lon="5.72706">
        <ele>443.83</ele>
        <time>2019-03-30T08:18:44Z</time>
      </trkpt>
      <trkpt lat="43.56984" lon="5.7273">
        <ele>443.94</ele>
        <time>2019-03-30T08:18:48Z</time>
      </trkpt>
      <trkpt lat="43.56994" lon="5.72752">
        <ele>444.42</ele>
        <time>2019-03-30T08:18:52Z</time>
      </trkpt>
      <trkpt lat="43.57004" lon="5.72774">
        <ele>445.3</ele>
        <time>2019-03-30T08:18:56Z</time>
      </trkpt>
      <trkpt lat="43.57014" lon="5.72795">
        <ele>445.94</ele>
        <time>2019-03-30T08:19:00Z</time>
      </trkpt>
      <trkpt lat="43.57024" lon="5.72816">
        <ele>446.97</ele>
        <time>2019-03-30T08:19:04Z</time>
      </trkpt>
      <trkpt lat="43.57036" lon="5.72843">
        <ele>447.91</ele>
        <time>2019-03-30T08:19:08Z</time>
      </trkpt>
      <trkpt lat="43.57048" lon="5.72868">
        <ele>448.42</ele>
        <time>2019-03-30T08:19:12Z</time>
      </trkpt>
      <trkpt lat="43.57063" lon="5.72891">
        <ele>449.1</ele>
        <time>2019-03-30T08:19:16Z</time>
      </trkpt>
      <trkpt lat="43.57081" lon="5.72908">
        <ele>449.15</ele>
        <time>2019-03-30T08:19:20Z</time>
      </trkpt>
      <trkpt lat="43.57096" lon="5.7293">
        <ele>449.17</ele>
        <time>2019-03-30T08:19:24Z</time>
      </trkpt>
      <trkpt lat="43.57105" lon="5.72955">
        <ele>448.57</ele>
        <time>2019-03-30T08:19:28Z</time>
      </trkpt>
      <trkpt lat="43.57113" lon="5.72981">
        <ele>447.7</ele>
        <time>2019-03-30T08:19:33Z</time>
      </trkpt>
      <trkpt lat="43.57129" lon="5.72995">
        <ele>443.47</ele>
        <time>2019-03-30T08:19:59Z</time>
      </trkpt>
      <trkpt lat="43.57145" lon="5.7301">
        <ele>442.61</ele>
        <time>2019-03-30T08:20:06Z</time>
      </trkpt>
      <trkpt lat="43.57161" lon="5.73021">
        <ele>442.45</ele>
        <time>2019-03-30T08:20:11Z</time>
      </trkpt>
      <trkpt lat="43.57178" lon="5.73035">
        <ele>442.54</ele>
        <time>2019-03-30T08:20:16Z</time>
      </trkpt>
      <trkpt lat="43.57178" lon="5.7306">
        <ele>442.65</ele>
        <time>2019-03-30T08:20:21Z</time>
      </trkpt>
      <trkpt lat="43.57171" lon="5.7309">
        <ele>441.54</ele>
        <time>2019-03-30T08:20:27Z</time>
      </trkpt>
      <trkpt lat="43.57175" lon="5.7312">
        <ele>441.31</ele>
        <time>2019-03-30T08:20:32Z</time>
      </trkpt>
      <trkpt lat="43.57186" lon="5.73144">
        <ele>441.82</ele>
        <time>2019-03-30T08:20:36Z</time>
      </trkpt>
      <trkpt lat="43.572" lon="5.73165">
        <ele>442.06</ele>
        <time>2019-03-30T08:20:40Z</time>
      </trkpt>
      <trkpt lat="43.57218" lon="5.73172">
        <ele>440.71</ele>
        <time>2019-03-30T08:20:43Z</time>
      </trkpt>
      <trkpt lat="43.57237" lon="5.73171">
        <ele>438.8</ele>
        <time>2019-03-30T08:20:46Z</time>
      </trkpt>
      <trkpt lat="43.57255" lon="5.73171">
        <ele>436.75</ele>
        <time>2019-03-30T08:20:49Z</time>
      </trkpt>
      <trkpt lat="43.57279" lon="5.73172">
        <ele>433.98</ele>
        <time>2019-03-30T08:20:53Z</time>
      </trkpt>
      <trkpt lat="43.57302" lon="5.73169">
        <ele>430.31</ele>
        <time>2019-03-30T08:20:57Z</time>
      </trkpt>
      <trkpt lat="43.5732" lon="5.73172">
        <ele>427.64</ele>
        <time>2019-03-30T08:21:00Z</time>
      </trkpt>
      <trkpt lat="43.57336" lon="5.73183">
        <ele>424.22</ele>
        <time>2019-03-30T08:21:03Z</time>
      </trkpt>
      <trkpt lat="43.57355" lon="5.73192">
        <ele>420.92</ele>
        <time>2019-03-30T08:21:06Z</time>
      </trkpt>
      <trkpt lat="43.57373" lon="5.73197">
        <ele>417.03</ele>
        <time>2019-03-30T08:21:09Z</time>
      </trkpt>
      <trkpt lat="43.57391" lon="5.73205">
        <ele>413.81</ele>
        <time>2019-03-30T08:21:12Z</time>
      </trkpt>
      <trkpt lat="43.57406" lon="5.7322">
        <ele>410.99</ele>
        <time>2019-03-30T08:21:15Z</time>
      </trkpt>
      <trkpt lat="43.57424" lon="5.73231">
        <ele>407.62</ele>
        <time>2019-03-30T08:21:18Z</time>
      </trkpt>
      <trkpt lat="43.57442" lon="5.7324">
        <ele>404.15</ele>
        <time>2019-03-30T08:21:21Z</time>
      </trkpt>
      <trkpt lat="43.57458" lon="5.73251">
        <ele>400.99</ele>
        <time>2019-03-30T08:21:24Z</time>
      </trkpt>
      <trkpt lat="43.57473" lon="5.73274">
        <ele>397.55</ele>
        <time>2019-03-30T08:21:28Z</time>
      </trkpt>
      <trkpt lat="43.57483" lon="5.733">
        <ele>394.31</ele>
        <time>2019-03-30T08:21:32Z</time>
      </trkpt>
      <trkpt lat="43.57501" lon="5.73298">
        <ele>391.85</ele>
        <time>2019-03-30T08:21:35Z</time>
      </trkpt>
      <trkpt lat="43.57524" lon="5.73292">
        <ele>388.94</ele>
        <time>2019-03-30T08:21:39Z</time>
      </trkpt>
      <trkpt lat="43.57542" lon="5.73299">
        <ele>386.88</ele>
        <time>2019-03-30T08:21:42Z</time>
      </trkpt>
      <trkpt lat="43.57559" lon="5.7331">
        <ele>385.31</ele>
        <time>2019-03-30T08:21:45Z</time>
      </trkpt>
      <trkpt lat="43.57578" lon="5.73325">
        <ele>383.27</ele>
        <time>2019-03-30T08:21:49Z</time>
      </trkpt>
      <trkpt lat="43.57594" lon="5.73343">
        <ele>381.45</ele>
        <time>2019-03-30T08:21:53Z</time>
      </trkpt>
      <trkpt lat="43.57611" lon="5.73364">
        <ele>380.43</ele>
        <time>2019-03-30T08:21:57Z</time>
      </trkpt>
      <trkpt lat="43.57634" lon="5.73358">
        <ele>379.46</ele>
        <time>2019-03-30T08:22:01Z</time>
      </trkpt>
      <trkpt lat="43.57656" lon="5.73349">
        <ele>377.92</ele>
        <time>2019-03-30T08:22:05Z</time>
      </trkpt>
      <trkpt lat="43.57679" lon="5.73347">
        <ele>376.35</ele>
        <time>2019-03-30T08:22:09Z</time>
      </trkpt>
      <trkpt lat="43.57702" lon="5.73343">
        <ele>374.53</ele>
        <time>2019-03-30T08:22:13Z</time>
      </trkpt>
      <trkpt lat="43.57713" lon="5.73317">
        <ele>373.13</ele>
        <time>2019-03-30T08:22:17Z</time>
      </trkpt>
      <trkpt lat="43.57722" lon="5.73291">
        <ele>371.73</ele>
        <time>2019-03-30T08:22:21Z</time>
      </trkpt>
      <trkpt lat="43.57739" lon="5.73281">
        <ele>370.09</ele>
        <time>2019-03-30T08:22:25Z</time>
      </trkpt>
      <trkpt lat="43.57754" lon="5.73303">
        <ele>368.06</ele>
        <time>2019-03-30T08:22:30Z</time>
      </trkpt>
      <trkpt lat="43.57756" lon="5.73335">
        <ele>366.57</ele>
        <time>2019-03-30T08:22:34Z</time>
      </trkpt>
      <trkpt lat="43.57759" lon="5.7336">
        <ele>365.35</ele>
        <time>2019-03-30T08:22:37Z</time>
      </trkpt>
      <trkpt lat="43.57764" lon="5.73392">
        <ele>363.93</ele>
        <time>2019-03-30T08:22:41Z</time>
      </trkpt>
      <trkpt lat="43.57775" lon="5.73417">
        <ele>362.35</ele>
        <time>2019-03-30T08:22:45Z</time>
      </trkpt>
      <trkpt lat="43.57787" lon="5.73442">
        <ele>361.11</ele>
        <time>2019-03-30T08:22:49Z</time>
      </trkpt>
      <trkpt lat="43.578" lon="5.73468">
        <ele>359.92</ele>
        <time>2019-03-30T08:22:53Z</time>
      </trkpt>
      <trkpt lat="43.57805" lon="5.73496">
        <ele>358.59</ele>
        <time>2019-03-30T08:22:56Z</time>
      </trkpt>
      <trkpt lat="43.57809" lon="5.73526">
        <ele>356.78</ele>
        <time>2019-03-30T08:22:59Z</time>
      </trkpt>
      <trkpt lat="43.57813" lon="5.73554">
        <ele>355.63</ele>
        <time>2019-03-30T08:23:02Z</time>
      </trkpt>
      <trkpt lat="43.57823" lon="5.73577">
        <ele>354.62</ele>
        <time>2019-03-30T08:23:05Z</time>
      </trkpt>
      <trkpt lat="43.5783" lon="5.73606">
        <ele>353.72</ele>
        <time>2019-03-30T08:23:09Z</time>
      </trkpt>
      <trkpt lat="43.57828" lon="5.73636">
        <ele>352.78</ele>
        <time>2019-03-30T08:23:13Z</time>
      </trkpt>
      <trkpt lat="43.57835" lon="5.73659">
        <ele>350.9</ele>
        <time>2019-03-30T08:23:20Z</time>
      </trkpt>
      <trkpt lat="43.57853" lon="5.73646">
        <ele>349.9</ele>
        <time>2019-03-30T08:23:27Z</time>
      </trkpt>
      <trkpt lat="43.57874" lon="5.73643">
        <ele>349.05</ele>
        <time>2019-03-30T08:23:33Z</time>
      </trkpt>
      <trkpt lat="43.57895" lon="5.73649">
        <ele>349.46</ele>
        <time>2019-03-30T08:23:39Z</time>
      </trkpt>
      <trkpt lat="43.57916" lon="5.73652">
        <ele>351.18</ele>
        <time>2019-03-30T08:23:45Z</time>
      </trkpt>
      <trkpt lat="43.57936" lon="5.73651">
        <ele>353.67</ele>
        <time>2019-03-30T08:23:51Z</time>
      </trkpt>
      <trkpt lat="43.57956" lon="5.73655">
        <ele>353.77</ele>
        <time>2019-03-30T08:23:57Z</time>
      </trkpt>
      <trkpt lat="43.57974" lon="5.73646">
        <ele>355.6</ele>
        <time>2019-03-30T08:24:03Z</time>
      </trkpt>
      <trkpt lat="43.57994" lon="5.73638">
        <ele>355.33</ele>
        <time>2019-03-30T08:24:09Z</time>
      </trkpt>
      <trkpt lat="43.58012" lon="5.73632">
        <ele>355.05</ele>
        <time>2019-03-30T08:24:16Z</time>
      </trkpt>
      <trkpt lat="43.58017" lon="5.73604">
        <ele>356</ele>
        <time>2019-03-30T08:24:22Z</time>
      </trkpt>
      <trkpt lat="43.5802" lon="5.73576">
        <ele>356.15</ele>
        <time>2019-03-30T08:24:27Z</time>
      </trkpt>
      <trkpt lat="43.58025" lon="5.73549">
        <ele>355.77</ele>
        <time>2019-03-30T08:24:32Z</time>
      </trkpt>
      <trkpt lat="43.58028" lon="5.73523">
        <ele>356.08</ele>
        <time>2019-03-30T08:24:37Z</time>
      </trkpt>
      <trkpt lat="43.58032" lon="5.73497">
        <ele>356.44</ele>
        <time>2019-03-30T08:24:42Z</time>
      </trkpt>
      <trkpt lat="43.58033" lon="5.73468">
        <ele>356.03</ele>
        <time>2019-03-30T08:24:47Z</time>
      </trkpt>
      <trkpt lat="43.58039" lon="5.73442">
        <ele>355.98</ele>
        <time>2019-03-30T08:24:52Z</time>
      </trkpt>
      <trkpt lat="43.58048" lon="5.73418">
        <ele>356.42</ele>
        <time>2019-03-30T08:24:57Z</time>
      </trkpt>
      <trkpt lat="43.58067" lon="5.73401">
        <ele>356.09</ele>
        <time>2019-03-30T08:25:02Z</time>
      </trkpt>
      <trkpt lat="43.58088" lon="5.73399">
        <ele>355.3</ele>
        <time>2019-03-30T08:25:07Z</time>
      </trkpt>
      <trkpt lat="43.58106" lon="5.73403">
        <ele>354.12</ele>
        <time>2019-03-30T08:25:12Z</time>
      </trkpt>
      <trkpt lat="43.58127" lon="5.73407">
        <ele>353.1</ele>
        <time>2019-03-30T08:25:17Z</time>
      </trkpt>
      <trkpt lat="43.58148" lon="5.73406">
        <ele>352.17</ele>
        <time>2019-03-30T08:25:22Z</time>
      </trkpt>
      <trkpt lat="43.58167" lon="5.7341">
        <ele>351.61</ele>
        <time>2019-03-30T08:25:26Z</time>
      </trkpt>
      <trkpt lat="43.58185" lon="5.73405">
        <ele>350.46</ele>
        <time>2019-03-30T08:25:30Z</time>
      </trkpt>
      <trkpt lat="43.582" lon="5.73391">
        <ele>350.35</ele>
        <time>2019-03-30T08:25:34Z</time>
      </trkpt>
      <trkpt lat="43.58219" lon="5.73375">
        <ele>349.97</ele>
        <time>2019-03-30T08:25:39Z</time>
      </trkpt>
      <trkpt lat="43.58232" lon="5.73356">
        <ele>349.3</ele>
        <time>2019-03-30T08:25:43Z</time>
      </trkpt>
      <trkpt lat="43.5824" lon="5.73334">
        <ele>349.04</ele>
        <time>2019-03-30T08:25:48Z</time>
      </trkpt>
      <trkpt lat="43.58252" lon="5.73313">
        <ele>348.67</ele>
        <time>2019-03-30T08:25:52Z</time>
      </trkpt>
      <trkpt lat="43.58261" lon="5.73289">
        <ele>348.47</ele>
        <time>2019-03-30T08:25:57Z</time>
      </trkpt>
      <trkpt lat="43.5827" lon="5.73262">
        <ele>348.25</ele>
        <time>2019-03-30T08:26:02Z</time>
      </trkpt>
      <trkpt lat="43.58273" lon="5.73234">
        <ele>348.24</ele>
        <time>2019-03-30T08:26:07Z</time>
      </trkpt>
      <trkpt lat="43.58267" lon="5.73204">
        <ele>347.37</ele>
        <time>2019-03-30T08:26:12Z</time>
      </trkpt>
      <trkpt lat="43.58277" lon="5.73182">
        <ele>347.17</ele>
        <time>2019-03-30T08:26:17Z</time>
      </trkpt>
      <trkpt lat="43.5828" lon="5.73157">
        <ele>346.79</ele>
        <time>2019-03-30T08:26:22Z</time>
      </trkpt>
      <trkpt lat="43.58281" lon="5.73132">
        <ele>346.37</ele>
        <time>2019-03-30T08:26:27Z</time>
      </trkpt>
      <trkpt lat="43.58271" lon="5.73108">
        <ele>345.57</ele>
        <time>2019-03-30T08:26:32Z</time>
      </trkpt>
      <trkpt lat="43.58256" lon="5.73086">
        <ele>345.18</ele>
        <time>2019-03-30T08:26:37Z</time>
      </trkpt>
      <trkpt lat="43.58239" lon="5.73078">
        <ele>344.37</ele>
        <time>2019-03-30T08:26:42Z</time>
      </trkpt>
      <trkpt lat="43.58219" lon="5.7309">
        <ele>343.77</ele>
        <time>2019-03-30T08:26:47Z</time>
      </trkpt>
      <trkpt lat="43.582" lon="5.73107">
        <ele>343</ele>
        <time>2019-03-30T08:26:52Z</time>
      </trkpt>
      <trkpt lat="43.58184" lon="5.73123">
        <ele>342.46</ele>
        <time>2019-03-30T08:26:56Z</time>
      </trkpt>
      <trkpt lat="43.58172" lon="5.73145">
        <ele>341.95</ele>
        <time>2019-03-30T08:27:00Z</time>
      </trkpt>
      <trkpt lat="43.58163" lon="5.73174">
        <ele>342.04</ele>
        <time>2019-03-30T08:27:05Z</time>
      </trkpt>
      <trkpt lat="43.5816" lon="5.732">
        <ele>342.05</ele>
        <time>2019-03-30T08:27:09Z</time>
      </trkpt>
      <trkpt lat="43.58157" lon="5.73227">
        <ele>341.87</ele>
        <time>2019-03-30T08:27:14Z</time>
      </trkpt>
      <trkpt lat="43.58142" lon="5.73243">
        <ele>341.47</ele>
        <time>2019-03-30T08:27:18Z</time>
      </trkpt>
      <trkpt lat="43.58121" lon="5.73245">
        <ele>341.46</ele>
        <time>2019-03-30T08:27:23Z</time>
      </trkpt>
      <trkpt lat="43.58102" lon="5.73248">
        <ele>341.9</ele>
        <time>2019-03-30T08:27:28Z</time>
      </trkpt>
      <trkpt lat="43.5808" lon="5.73253">
        <ele>343</ele>
        <time>2019-03-30T08:27:34Z</time>
      </trkpt>
      <trkpt lat="43.58061" lon="5.73257">
        <ele>344.07</ele>
        <time>2019-03-30T08:27:39Z</time>
      </trkpt>
      <trkpt lat="43.58043" lon="5.73255">
        <ele>345.57</ele>
        <time>2019-03-30T08:27:44Z</time>
      </trkpt>
      <trkpt lat="43.58022" lon="5.73245">
        <ele>345.85</ele>
        <time>2019-03-30T08:27:48Z</time>
      </trkpt>
      <trkpt lat="43.58005" lon="5.7323">
        <ele>345.77</ele>
        <time>2019-03-30T08:27:51Z</time>
      </trkpt>
      <trkpt lat="43.57995" lon="5.73208">
        <ele>345.75</ele>
        <time>2019-03-30T08:27:55Z</time>
      </trkpt>
      <trkpt lat="43.57988" lon="5.73183">
        <ele>345.41</ele>
        <time>2019-03-30T08:27:59Z</time>
      </trkpt>
      <trkpt lat="43.57983" lon="5.73158">
        <ele>345.25</ele>
        <time>2019-03-30T08:28:03Z</time>
      </trkpt>
      <trkpt lat="43.57984" lon="5.73129">
        <ele>345.06</ele>
        <time>2019-03-30T08:28:08Z</time>
      </trkpt>
      <trkpt lat="43.57996" lon="5.7311">
        <ele>345.35</ele>
        <time>2019-03-30T08:28:13Z</time>
      </trkpt>
      <trkpt lat="43.58014" lon="5.73102">
        <ele>345.25</ele>
        <time>2019-03-30T08:28:17Z</time>
      </trkpt>
      <trkpt lat="43.58035" lon="5.73105">
        <ele>344.87</ele>
        <time>2019-03-30T08:28:21Z</time>
      </trkpt>
      <trkpt lat="43.58054" lon="5.73103">
        <ele>344.46</ele>
        <time>2019-03-30T08:28:26Z</time>
      </trkpt>
      <trkpt lat="43.58072" lon="5.73101">
        <ele>343.72</ele>
        <time>2019-03-30T08:28:35Z</time>
      </trkpt>
      <trkpt lat="43.58089" lon="5.73089">
        <ele>342.48</ele>
        <time>2019-03-30T08:28:44Z</time>
      </trkpt>
      <trkpt lat="43.58098" lon="5.73065">
        <ele>333.97</ele>
        <time>2019-03-30T08:35:10Z</time>
      </trkpt>
      <trkpt lat="43.58105" lon="5.73041">
        <ele>334.04</ele>
        <time>2019-03-30T08:35:18Z</time>
      </trkpt>
      <trkpt lat="43.58115" lon="5.73016">
        <ele>333.95</ele>
        <time>2019-03-30T08:35:25Z</time>
      </trkpt>
      <trkpt lat="43.58124" lon="5.72991">
        <ele>333.75</ele>
        <time>2019-03-30T08:35:31Z</time>
      </trkpt>
      <trkpt lat="43.58132" lon="5.72965">
        <ele>333.55</ele>
        <time>2019-03-30T08:35:37Z</time>
      </trkpt>
      <trkpt lat="43.58143" lon="5.72942">
        <ele>333.47</ele>
        <time>2019-03-30T08:35:43Z</time>
      </trkpt>
      <trkpt lat="43.58156" lon="5.72921">
        <ele>333.72</ele>
        <time>2019-03-30T08:35:49Z</time>
      </trkpt>
      <trkpt lat="43.58171" lon="5.72904">
        <ele>333.95</ele>
        <time>2019-03-30T08:35:55Z</time>
      </trkpt>
      <trkpt lat="43.58186" lon="5.72885">
        <ele>334.24</ele>
        <time>2019-03-30T08:35:59Z</time>
      </trkpt>
      <trkpt lat="43.582" lon="5.72869">
        <ele>334.07</ele>
        <time>2019-03-30T08:36:03Z</time>
      </trkpt>
      <trkpt lat="43.58216" lon="5.72854">
        <ele>333.95</ele>
        <time>2019-03-30T08:36:07Z</time>
      </trkpt>
      <trkpt lat="43.58236" lon="5.72844">
        <ele>334.23</ele>
        <time>2019-03-30T08:36:12Z</time>
      </trkpt>
      <trkpt lat="43.58256" lon="5.72852">
        <ele>334.37</ele>
        <time>2019-03-30T08:36:17Z</time>
      </trkpt>
      <trkpt lat="43.58276" lon="5.72859">
        <ele>333.95</ele>
        <time>2019-03-30T08:36:22Z</time>
      </trkpt>
      <trkpt lat="43.58296" lon="5.72864">
        <ele>333.77</ele>
        <time>2019-03-30T08:36:27Z</time>
      </trkpt>
      <trkpt lat="43.58315" lon="5.72871">
        <ele>333.55</ele>
        <time>2019-03-30T08:36:32Z</time>
      </trkpt>
      <trkpt lat="43.58333" lon="5.72882">
        <ele>333.45</ele>
        <time>2019-03-30T08:36:37Z</time>
      </trkpt>
      <trkpt lat="43.58351" lon="5.72892">
        <ele>333.35</ele>
        <time>2019-03-30T08:36:42Z</time>
      </trkpt>
      <trkpt lat="43.58369" lon="5.72901">
        <ele>333.35</ele>
        <time>2019-03-30T08:36:47Z</time>
      </trkpt>
      <trkpt lat="43.58389" lon="5.72904">
        <ele>333.25</ele>
        <time>2019-03-30T08:36:53Z</time>
      </trkpt>
      <trkpt lat="43.58409" lon="5.72903">
        <ele>334.21</ele>
        <time>2019-03-30T08:36:59Z</time>
      </trkpt>
      <trkpt lat="43.58427" lon="5.72899">
        <ele>335.66</ele>
        <time>2019-03-30T08:37:04Z</time>
      </trkpt>
      <trkpt lat="43.58443" lon="5.72884">
        <ele>335.39</ele>
        <time>2019-03-30T08:37:10Z</time>
      </trkpt>
      <trkpt lat="43.58447" lon="5.72857">
        <ele>335.25</ele>
        <time>2019-03-30T08:37:20Z</time>
      </trkpt>
      <trkpt lat="43.58446" lon="5.72828">
        <ele>335.25</ele>
        <time>2019-03-30T08:37:27Z</time>
      </trkpt>
      <trkpt lat="43.58443" lon="5.728">
        <ele>335.24</ele>
        <time>2019-03-30T08:37:33Z</time>
      </trkpt>
      <trkpt lat="43.58441" lon="5.72774">
        <ele>334.95</ele>
        <time>2019-03-30T08:37:38Z</time>
      </trkpt>
      <trkpt lat="43.58435" lon="5.72749">
        <ele>335.03</ele>
        <time>2019-03-30T08:37:44Z</time>
      </trkpt>
      <trkpt lat="43.5843" lon="5.72723">
        <ele>334.87</ele>
        <time>2019-03-30T08:37:49Z</time>
      </trkpt>
      <trkpt lat="43.58434" lon="5.72699">
        <ele>334.45</ele>
        <time>2019-03-30T08:37:54Z</time>
      </trkpt>
      <trkpt lat="43.58443" lon="5.72672">
        <ele>334.37</ele>
        <time>2019-03-30T08:37:59Z</time>
      </trkpt>
      <trkpt lat="43.58433" lon="5.72651">
        <ele>333.97</ele>
        <time>2019-03-30T08:38:03Z</time>
      </trkpt>
      <trkpt lat="43.58423" lon="5.72625">
        <ele>333.63</ele>
        <time>2019-03-30T08:38:08Z</time>
      </trkpt>
      <trkpt lat="43.5842" lon="5.72596">
        <ele>334.04</ele>
        <time>2019-03-30T08:38:13Z</time>
      </trkpt>
      <trkpt lat="43.58416" lon="5.72568">
        <ele>334.16</ele>
        <time>2019-03-30T08:38:18Z</time>
      </trkpt>
      <trkpt lat="43.58412" lon="5.72543">
        <ele>334.25</ele>
        <time>2019-03-30T08:38:23Z</time>
      </trkpt>
      <trkpt lat="43.58405" lon="5.72519">
        <ele>334.44</ele>
        <time>2019-03-30T08:38:28Z</time>
      </trkpt>
      <trkpt lat="43.5839" lon="5.725">
        <ele>335.3</ele>
        <time>2019-03-30T08:38:35Z</time>
      </trkpt>
      <trkpt lat="43.58379" lon="5.7248">
        <ele>335.55</ele>
        <time>2019-03-30T08:38:40Z</time>
      </trkpt>
      <trkpt lat="43.58366" lon="5.72462">
        <ele>335.53</ele>
        <time>2019-03-30T08:38:44Z</time>
      </trkpt>
      <trkpt lat="43.58352" lon="5.72443">
        <ele>336</ele>
        <time>2019-03-30T08:38:48Z</time>
      </trkpt>
      <trkpt lat="43.58339" lon="5.72425">
        <ele>336.34</ele>
        <time>2019-03-30T08:38:52Z</time>
      </trkpt>
      <trkpt lat="43.58325" lon="5.72404">
        <ele>336.82</ele>
        <time>2019-03-30T08:38:57Z</time>
      </trkpt>
      <trkpt lat="43.58314" lon="5.72384">
        <ele>337.04</ele>
        <time>2019-03-30T08:39:02Z</time>
      </trkpt>
      <trkpt lat="43.58307" lon="5.72361">
        <ele>337.64</ele>
        <time>2019-03-30T08:39:11Z</time>
      </trkpt>
      <trkpt lat="43.58301" lon="5.72336">
        <ele>336.43</ele>
        <time>2019-03-30T08:39:41Z</time>
      </trkpt>
      <trkpt lat="43.58297" lon="5.7231">
        <ele>334.27</ele>
        <time>2019-03-30T08:40:12Z</time>
      </trkpt>
      <trkpt lat="43.58299" lon="5.72283">
        <ele>334.24</ele>
        <time>2019-03-30T08:40:22Z</time>
      </trkpt>
      <trkpt lat="43.58298" lon="5.72255">
        <ele>334.35</ele>
        <time>2019-03-30T08:40:28Z</time>
      </trkpt>
      <trkpt lat="43.58294" lon="5.7223">
        <ele>334.83</ele>
        <time>2019-03-30T08:40:34Z</time>
      </trkpt>
      <trkpt lat="43.58291" lon="5.72202">
        <ele>335.22</ele>
        <time>2019-03-30T08:40:41Z</time>
      </trkpt>
      <trkpt lat="43.58289" lon="5.72177">
        <ele>336.22</ele>
        <time>2019-03-30T08:40:48Z</time>
      </trkpt>
      <trkpt lat="43.58287" lon="5.72151">
        <ele>337.8</ele>
        <time>2019-03-30T08:40:56Z</time>
      </trkpt>
      <trkpt lat="43.58285" lon="5.72122">
        <ele>338.81</ele>
        <time>2019-03-30T08:41:02Z</time>
      </trkpt>
      <trkpt lat="43.58281" lon="5.72095">
        <ele>339.54</ele>
        <time>2019-03-30T08:41:08Z</time>
      </trkpt>
      <trkpt lat="43.58276" lon="5.72067">
        <ele>340.88</ele>
        <time>2019-03-30T08:41:14Z</time>
      </trkpt>
      <trkpt lat="43.58269" lon="5.7204">
        <ele>342.41</ele>
        <time>2019-03-30T08:41:20Z</time>
      </trkpt>
      <trkpt lat="43.5826" lon="5.72015">
        <ele>343.79</ele>
        <time>2019-03-30T08:41:26Z</time>
      </trkpt>
      <trkpt lat="43.58254" lon="5.71989">
        <ele>344.74</ele>
        <time>2019-03-30T08:41:32Z</time>
      </trkpt>
      <trkpt lat="43.58246" lon="5.71964">
        <ele>345.9</ele>
        <time>2019-03-30T08:41:38Z</time>
      </trkpt>
      <trkpt lat="43.58233" lon="5.7194">
        <ele>346.8</ele>
        <time>2019-03-30T08:41:44Z</time>
      </trkpt>
      <trkpt lat="43.58223" lon="5.71916">
        <ele>347.6</ele>
        <time>2019-03-30T08:41:50Z</time>
      </trkpt>
      <trkpt lat="43.58212" lon="5.71895">
        <ele>348.7</ele>
        <time>2019-03-30T08:41:56Z</time>
      </trkpt>
      <trkpt lat="43.58208" lon="5.7187">
        <ele>349.7</ele>
        <time>2019-03-30T08:42:03Z</time>
      </trkpt>
      <trkpt lat="43.582" lon="5.71844">
        <ele>350.15</ele>
        <time>2019-03-30T08:42:10Z</time>
      </trkpt>
      <trkpt lat="43.58196" lon="5.71819">
        <ele>350.53</ele>
        <time>2019-03-30T08:42:16Z</time>
      </trkpt>
      <trkpt lat="43.58195" lon="5.71791">
        <ele>352.08</ele>
        <time>2019-03-30T08:42:23Z</time>
      </trkpt>
      <trkpt lat="43.58193" lon="5.71765">
        <ele>353.66</ele>
        <time>2019-03-30T08:42:29Z</time>
      </trkpt>
      <trkpt lat="43.58195" lon="5.71739">
        <ele>355.37</ele>
        <time>2019-03-30T08:42:35Z</time>
      </trkpt>
      <trkpt lat="43.58198" lon="5.71711">
        <ele>357.47</ele>
        <time>2019-03-30T08:42:42Z</time>
      </trkpt>
      <trkpt lat="43.58198" lon="5.71684">
        <ele>359.47</ele>
        <time>2019-03-30T08:42:48Z</time>
      </trkpt>
      <trkpt lat="43.58201" lon="5.71653">
        <ele>361.27</ele>
        <time>2019-03-30T08:42:54Z</time>
      </trkpt>
      <trkpt lat="43.58204" lon="5.71626">
        <ele>362.69</ele>
        <time>2019-03-30T08:42:59Z</time>
      </trkpt>
      <trkpt lat="43.58201" lon="5.71597">
        <ele>363.88</ele>
        <time>2019-03-30T08:43:05Z</time>
      </trkpt>
      <trkpt lat="43.58195" lon="5.71568">
        <ele>364.9</ele>
        <time>2019-03-30T08:43:11Z</time>
      </trkpt>
      <trkpt lat="43.58193" lon="5.71541">
        <ele>365.92</ele>
        <time>2019-03-30T08:43:16Z</time>
      </trkpt>
      <trkpt lat="43.58191" lon="5.71514">
        <ele>366.5</ele>
        <time>2019-03-30T08:43:21Z</time>
      </trkpt>
      <trkpt lat="43.58186" lon="5.7149">
        <ele>367.02</ele>
        <time>2019-03-30T08:43:26Z</time>
      </trkpt>
      <trkpt lat="43.58178" lon="5.71465">
        <ele>367.84</ele>
        <time>2019-03-30T08:43:33Z</time>
      </trkpt>
      <trkpt lat="43.58165" lon="5.71443">
        <ele>367.56</ele>
        <time>2019-03-30T08:43:39Z</time>
      </trkpt>
      <trkpt lat="43.58157" lon="5.71417">
        <ele>366.86</ele>
        <time>2019-03-30T08:43:46Z</time>
      </trkpt>
      <trkpt lat="43.58146" lon="5.71393">
        <ele>366.17</ele>
        <time>2019-03-30T08:43:53Z</time>
      </trkpt>
      <trkpt lat="43.58136" lon="5.71371">
        <ele>365.45</ele>
        <time>2019-03-30T08:44:01Z</time>
      </trkpt>
      <trkpt lat="43.58118" lon="5.71361">
        <ele>366.3</ele>
        <time>2019-03-30T08:44:12Z</time>
      </trkpt>
      <trkpt lat="43.58102" lon="5.71348">
        <ele>367.64</ele>
        <time>2019-03-30T08:44:21Z</time>
      </trkpt>
      <trkpt lat="43.58089" lon="5.71325">
        <ele>367.4</ele>
        <time>2019-03-30T08:44:29Z</time>
      </trkpt>
      <trkpt lat="43.58096" lon="5.713">
        <ele>368.92</ele>
        <time>2019-03-30T08:44:40Z</time>
      </trkpt>
      <trkpt lat="43.58101" lon="5.71273">
        <ele>370.5</ele>
        <time>2019-03-30T08:44:49Z</time>
      </trkpt>
      <trkpt lat="43.58104" lon="5.71247">
        <ele>372.48</ele>
        <time>2019-03-30T08:44:58Z</time>
      </trkpt>
      <trkpt lat="43.5811" lon="5.71221">
        <ele>374.37</ele>
        <time>2019-03-30T08:45:04Z</time>
      </trkpt>
      <trkpt lat="43.58115" lon="5.71194">
        <ele>375.96</ele>
        <time>2019-03-30T08:45:11Z</time>
      </trkpt>
      <trkpt lat="43.58117" lon="5.71169">
        <ele>376.7</ele>
        <time>2019-03-30T08:45:16Z</time>
      </trkpt>
      <trkpt lat="43.58126" lon="5.71141">
        <ele>376.89</ele>
        <time>2019-03-30T08:45:22Z</time>
      </trkpt>
      <trkpt lat="43.5814" lon="5.71119">
        <ele>377</ele>
        <time>2019-03-30T08:45:27Z</time>
      </trkpt>
      <trkpt lat="43.5815" lon="5.71096">
        <ele>377.62</ele>
        <time>2019-03-30T08:45:33Z</time>
      </trkpt>
      <trkpt lat="43.58156" lon="5.71073">
        <ele>378.42</ele>
        <time>2019-03-30T08:45:40Z</time>
      </trkpt>
      <trkpt lat="43.58167" lon="5.71051">
        <ele>379.32</ele>
        <time>2019-03-30T08:45:50Z</time>
      </trkpt>
      <trkpt lat="43.58172" lon="5.71025">
        <ele>380.52</ele>
        <time>2019-03-30T08:46:00Z</time>
      </trkpt>
      <trkpt lat="43.58179" lon="5.71002">
        <ele>381.25</ele>
        <time>2019-03-30T08:46:06Z</time>
      </trkpt>
      <trkpt lat="43.58184" lon="5.70976">
        <ele>381.62</ele>
        <time>2019-03-30T08:46:13Z</time>
      </trkpt>
      <trkpt lat="43.58187" lon="5.70947">
        <ele>381.53</ele>
        <time>2019-03-30T08:46:19Z</time>
      </trkpt>
      <trkpt lat="43.58189" lon="5.70917">
        <ele>380.06</ele>
        <time>2019-03-30T08:46:24Z</time>
      </trkpt>
      <trkpt lat="43.5819" lon="5.70888">
        <ele>379.65</ele>
        <time>2019-03-30T08:46:29Z</time>
      </trkpt>
      <trkpt lat="43.58196" lon="5.7086">
        <ele>380.14</ele>
        <time>2019-03-30T08:46:35Z</time>
      </trkpt>
      <trkpt lat="43.58207" lon="5.70838">
        <ele>380.16</ele>
        <time>2019-03-30T08:46:40Z</time>
      </trkpt>
      <trkpt lat="43.58217" lon="5.70817">
        <ele>380.23</ele>
        <time>2019-03-30T08:46:45Z</time>
      </trkpt>
      <trkpt lat="43.58222" lon="5.70789">
        <ele>380.34</ele>
        <time>2019-03-30T08:46:52Z</time>
      </trkpt>
      <trkpt lat="43.58222" lon="5.70764">
        <ele>381.4</ele>
        <time>2019-03-30T08:46:59Z</time>
      </trkpt>
      <trkpt lat="43.58224" lon="5.70737">
        <ele>382.4</ele>
        <time>2019-03-30T08:47:06Z</time>
      </trkpt>
      <trkpt lat="43.58228" lon="5.70713">
        <ele>383.15</ele>
        <time>2019-03-30T08:47:13Z</time>
      </trkpt>
      <trkpt lat="43.5823" lon="5.70685">
        <ele>383.05</ele>
        <time>2019-03-30T08:47:20Z</time>
      </trkpt>
      <trkpt lat="43.58228" lon="5.70657">
        <ele>382.62</ele>
        <time>2019-03-30T08:47:27Z</time>
      </trkpt>
      <trkpt lat="43.58225" lon="5.70632">
        <ele>381.84</ele>
        <time>2019-03-30T08:47:34Z</time>
      </trkpt>
      <trkpt lat="43.58215" lon="5.70609">
        <ele>380.92</ele>
        <time>2019-03-30T08:47:40Z</time>
      </trkpt>
      <trkpt lat="43.58204" lon="5.70586">
        <ele>380.87</ele>
        <time>2019-03-30T08:47:47Z</time>
      </trkpt>
      <trkpt lat="43.58193" lon="5.70563">
        <ele>380.38</ele>
        <time>2019-03-30T08:47:53Z</time>
      </trkpt>
      <trkpt lat="43.58185" lon="5.70536">
        <ele>379.95</ele>
        <time>2019-03-30T08:47:59Z</time>
      </trkpt>
      <trkpt lat="43.58175" lon="5.7051">
        <ele>380.22</ele>
        <time>2019-03-30T08:48:05Z</time>
      </trkpt>
      <trkpt lat="43.58163" lon="5.70488">
        <ele>379.79</ele>
        <time>2019-03-30T08:48:10Z</time>
      </trkpt>
      <trkpt lat="43.58156" lon="5.70459">
        <ele>379.27</ele>
        <time>2019-03-30T08:48:16Z</time>
      </trkpt>
      <trkpt lat="43.58147" lon="5.70434">
        <ele>378.73</ele>
        <time>2019-03-30T08:48:21Z</time>
      </trkpt>
      <trkpt lat="43.58141" lon="5.70408">
        <ele>378.84</ele>
        <time>2019-03-30T08:48:27Z</time>
      </trkpt>
      <trkpt lat="43.58134" lon="5.70385">
        <ele>378.63</ele>
        <time>2019-03-30T08:48:33Z</time>
      </trkpt>
      <trkpt lat="43.58124" lon="5.70362">
        <ele>379.2</ele>
        <time>2019-03-30T08:48:38Z</time>
      </trkpt>
      <trkpt lat="43.5812" lon="5.70337">
        <ele>380.48</ele>
        <time>2019-03-30T08:48:44Z</time>
      </trkpt>
      <trkpt lat="43.58115" lon="5.70311">
        <ele>380.96</ele>
        <time>2019-03-30T08:48:50Z</time>
      </trkpt>
      <trkpt lat="43.5811" lon="5.70285">
        <ele>380.59</ele>
        <time>2019-03-30T08:48:55Z</time>
      </trkpt>
      <trkpt lat="43.58104" lon="5.70261">
        <ele>379.78</ele>
        <time>2019-03-30T08:48:59Z</time>
      </trkpt>
      <trkpt lat="43.58099" lon="5.70234">
        <ele>378.88</ele>
        <time>2019-03-30T08:49:03Z</time>
      </trkpt>
      <trkpt lat="43.58094" lon="5.70206">
        <ele>378.36</ele>
        <time>2019-03-30T08:49:07Z</time>
      </trkpt>
      <trkpt lat="43.5809" lon="5.70179">
        <ele>378.24</ele>
        <time>2019-03-30T08:49:11Z</time>
      </trkpt>
      <trkpt lat="43.58084" lon="5.70154">
        <ele>378.11</ele>
        <time>2019-03-30T08:49:15Z</time>
      </trkpt>
      <trkpt lat="43.5808" lon="5.70128">
        <ele>378.15</ele>
        <time>2019-03-30T08:49:19Z</time>
      </trkpt>
      <trkpt lat="43.58074" lon="5.70101">
        <ele>377.95</ele>
        <time>2019-03-30T08:49:23Z</time>
      </trkpt>
      <trkpt lat="43.58067" lon="5.70075">
        <ele>378</ele>
        <time>2019-03-30T08:49:27Z</time>
      </trkpt>
      <trkpt lat="43.58062" lon="5.70049">
        <ele>378.05</ele>
        <time>2019-03-30T08:49:31Z</time>
      </trkpt>
      <trkpt lat="43.58054" lon="5.70023">
        <ele>379.1</ele>
        <time>2019-03-30T08:49:36Z</time>
      </trkpt>
      <trkpt lat="43.5805" lon="5.69994">
        <ele>380.29</ele>
        <time>2019-03-30T08:49:41Z</time>
      </trkpt>
      <trkpt lat="43.58046" lon="5.69969">
        <ele>381.19</ele>
        <time>2019-03-30T08:49:45Z</time>
      </trkpt>
      <trkpt lat="43.58038" lon="5.69944">
        <ele>382.24</ele>
        <time>2019-03-30T08:49:50Z</time>
      </trkpt>
      <trkpt lat="43.5803" lon="5.6992">
        <ele>383.96</ele>
        <time>2019-03-30T08:49:55Z</time>
      </trkpt>
      <trkpt lat="43.58023" lon="5.69895">
        <ele>384.97</ele>
        <time>2019-03-30T08:50:00Z</time>
      </trkpt>
      <trkpt lat="43.58017" lon="5.69872">
        <ele>386.21</ele>
        <time>2019-03-30T08:50:05Z</time>
      </trkpt>
      <trkpt lat="43.5801" lon="5.69848">
        <ele>387.55</ele>
        <time>2019-03-30T08:50:10Z</time>
      </trkpt>
      <trkpt lat="43.57995" lon="5.69833">
        <ele>390.16</ele>
        <time>2019-03-30T08:52:19Z</time>
      </trkpt>
      <trkpt lat="43.57995" lon="5.69806">
        <ele>390.94</ele>
        <time>2019-03-30T08:52:28Z</time>
      </trkpt>
      <trkpt lat="43.57992" lon="5.69779">
        <ele>391.5</ele>
        <time>2019-03-30T08:52:36Z</time>
      </trkpt>
      <trkpt lat="43.5799" lon="5.69754">
        <ele>392.5</ele>
        <time>2019-03-30T08:52:43Z</time>
      </trkpt>
      <trkpt lat="43.57985" lon="5.69729">
        <ele>393.8</ele>
        <time>2019-03-30T08:52:50Z</time>
      </trkpt>
      <trkpt lat="43.57977" lon="5.69704">
        <ele>394.24</ele>
        <time>2019-03-30T08:52:57Z</time>
      </trkpt>
      <trkpt lat="43.57976" lon="5.69678">
        <ele>393.81</ele>
        <time>2019-03-30T08:53:03Z</time>
      </trkpt>
      <trkpt lat="43.57972" lon="5.69653">
        <ele>392.12</ele>
        <time>2019-03-30T08:53:09Z</time>
      </trkpt>
      <trkpt lat="43.57969" lon="5.69624">
        <ele>391.62</ele>
        <time>2019-03-30T08:53:16Z</time>
      </trkpt>
      <trkpt lat="43.57967" lon="5.69594">
        <ele>393.37</ele>
        <time>2019-03-30T08:53:22Z</time>
      </trkpt>
      <trkpt lat="43.57965" lon="5.69567">
        <ele>394.81</ele>
        <time>2019-03-30T08:53:27Z</time>
      </trkpt>
      <trkpt lat="43.57961" lon="5.69538">
        <ele>395.17</ele>
        <time>2019-03-30T08:53:33Z</time>
      </trkpt>
      <trkpt lat="43.57956" lon="5.69514">
        <ele>394.09</ele>
        <time>2019-03-30T08:53:38Z</time>
      </trkpt>
      <trkpt lat="43.57951" lon="5.6949">
        <ele>394.8</ele>
        <time>2019-03-30T08:53:43Z</time>
      </trkpt>
      <trkpt lat="43.57945" lon="5.69465">
        <ele>395.46</ele>
        <time>2019-03-30T08:53:49Z</time>
      </trkpt>
      <trkpt lat="43.57935" lon="5.69439">
        <ele>394.98</ele>
        <time>2019-03-30T08:53:56Z</time>
      </trkpt>
      <trkpt lat="43.57932" lon="5.69413">
        <ele>395.5</ele>
        <time>2019-03-30T08:54:02Z</time>
      </trkpt>
      <trkpt lat="43.57931" lon="5.69387">
        <ele>396.95</ele>
        <time>2019-03-30T08:54:08Z</time>
      </trkpt>
      <trkpt lat="43.57929" lon="5.69361">
        <ele>397.58</ele>
        <time>2019-03-30T08:54:15Z</time>
      </trkpt>
      <trkpt lat="43.57927" lon="5.69334">
        <ele>399.14</ele>
        <time>2019-03-30T08:54:22Z</time>
      </trkpt>
      <trkpt lat="43.57923" lon="5.69309">
        <ele>399.39</ele>
        <time>2019-03-30T08:54:28Z</time>
      </trkpt>
      <trkpt lat="43.57921" lon="5.6928">
        <ele>400.6</ele>
        <time>2019-03-30T08:54:34Z</time>
      </trkpt>
      <trkpt lat="43.57916" lon="5.69253">
        <ele>400.93</ele>
        <time>2019-03-30T08:54:39Z</time>
      </trkpt>
      <trkpt lat="43.57911" lon="5.69229">
        <ele>401.34</ele>
        <time>2019-03-30T08:54:44Z</time>
      </trkpt>
      <trkpt lat="43.57908" lon="5.69201">
        <ele>402.69</ele>
        <time>2019-03-30T08:54:51Z</time>
      </trkpt>
      <trkpt lat="43.57907" lon="5.69174">
        <ele>404.03</ele>
        <time>2019-03-30T08:54:57Z</time>
      </trkpt>
      <trkpt lat="43.57904" lon="5.69148">
        <ele>405.88</ele>
        <time>2019-03-30T08:55:03Z</time>
      </trkpt>
      <trkpt lat="43.57906" lon="5.6912">
        <ele>407.6</ele>
        <time>2019-03-30T08:55:10Z</time>
      </trkpt>
      <trkpt lat="43.57912" lon="5.69094">
        <ele>406.69</ele>
        <time>2019-03-30T08:55:36Z</time>
      </trkpt>
      <trkpt lat="43.57912" lon="5.69067">
        <ele>407.33</ele>
        <time>2019-03-30T08:55:45Z</time>
      </trkpt>
      <trkpt lat="43.57911" lon="5.69042">
        <ele>408.2</ele>
        <time>2019-03-30T08:55:52Z</time>
      </trkpt>
      <trkpt lat="43.57911" lon="5.69014">
        <ele>408.25</ele>
        <time>2019-03-30T08:55:58Z</time>
      </trkpt>
      <trkpt lat="43.57909" lon="5.68989">
        <ele>407.09</ele>
        <time>2019-03-30T08:56:03Z</time>
      </trkpt>
      <trkpt lat="43.57907" lon="5.68961">
        <ele>405.44</ele>
        <time>2019-03-30T08:56:09Z</time>
      </trkpt>
      <trkpt lat="43.57904" lon="5.68936">
        <ele>405.07</ele>
        <time>2019-03-30T08:56:15Z</time>
      </trkpt>
      <trkpt lat="43.57901" lon="5.6891">
        <ele>404.39</ele>
        <time>2019-03-30T08:56:21Z</time>
      </trkpt>
      <trkpt lat="43.57896" lon="5.68884">
        <ele>404.11</ele>
        <time>2019-03-30T08:56:27Z</time>
      </trkpt>
      <trkpt lat="43.57886" lon="5.68859">
        <ele>404.24</ele>
        <time>2019-03-30T08:56:33Z</time>
      </trkpt>
      <trkpt lat="43.57877" lon="5.68835">
        <ele>404.27</ele>
        <time>2019-03-30T08:56:39Z</time>
      </trkpt>
      <trkpt lat="43.57872" lon="5.68808">
        <ele>404.65</ele>
        <time>2019-03-30T08:56:44Z</time>
      </trkpt>
      <trkpt lat="43.57865" lon="5.68785">
        <ele>404.73</ele>
        <time>2019-03-30T08:56:49Z</time>
      </trkpt>
      <trkpt lat="43.57856" lon="5.68761">
        <ele>405.02</ele>
        <time>2019-03-30T08:56:54Z</time>
      </trkpt>
      <trkpt lat="43.5785" lon="5.68734">
        <ele>405.35</ele>
        <time>2019-03-30T08:57:00Z</time>
      </trkpt>
      <trkpt lat="43.57845" lon="5.68708">
        <ele>404.97</ele>
        <time>2019-03-30T08:57:07Z</time>
      </trkpt>
      <trkpt lat="43.57835" lon="5.68683">
        <ele>404.45</ele>
        <time>2019-03-30T08:57:13Z</time>
      </trkpt>
      <trkpt lat="43.57832" lon="5.68657">
        <ele>404.37</ele>
        <time>2019-03-30T08:57:19Z</time>
      </trkpt>
      <trkpt lat="43.57827" lon="5.68631">
        <ele>403.69</ele>
        <time>2019-03-30T08:57:25Z</time>
      </trkpt>
      <trkpt lat="43.57823" lon="5.68603">
        <ele>403.43</ele>
        <time>2019-03-30T08:57:31Z</time>
      </trkpt>
      <trkpt lat="43.57816" lon="5.68578">
        <ele>404.1</ele>
        <time>2019-03-30T08:57:37Z</time>
      </trkpt>
      <trkpt lat="43.57809" lon="5.68552">
        <ele>403.86</ele>
        <time>2019-03-30T08:57:43Z</time>
      </trkpt>
      <trkpt lat="43.57801" lon="5.68528">
        <ele>403.95</ele>
        <time>2019-03-30T08:57:48Z</time>
      </trkpt>
      <trkpt lat="43.57793" lon="5.68503">
        <ele>404.87</ele>
        <time>2019-03-30T08:57:54Z</time>
      </trkpt>
      <trkpt lat="43.57784" lon="5.68481">
        <ele>404.97</ele>
        <time>2019-03-30T08:57:59Z</time>
      </trkpt>
      <trkpt lat="43.57774" lon="5.68458">
        <ele>405.31</ele>
        <time>2019-03-30T08:58:04Z</time>
      </trkpt>
      <trkpt lat="43.57766" lon="5.68433">
        <ele>405.39</ele>
        <time>2019-03-30T08:58:09Z</time>
      </trkpt>
      <trkpt lat="43.57755" lon="5.68407">
        <ele>405.6</ele>
        <time>2019-03-30T08:58:15Z</time>
      </trkpt>
      <trkpt lat="43.57745" lon="5.68383">
        <ele>406.12</ele>
        <time>2019-03-30T08:58:20Z</time>
      </trkpt>
      <trkpt lat="43.57734" lon="5.68359">
        <ele>406.62</ele>
        <time>2019-03-30T08:58:25Z</time>
      </trkpt>
      <trkpt lat="43.57725" lon="5.68336">
        <ele>407.38</ele>
        <time>2019-03-30T08:58:30Z</time>
      </trkpt>
      <trkpt lat="43.57714" lon="5.68315">
        <ele>408.51</ele>
        <time>2019-03-30T08:58:35Z</time>
      </trkpt>
      <trkpt lat="43.57705" lon="5.68292">
        <ele>408.56</ele>
        <time>2019-03-30T08:58:42Z</time>
      </trkpt>
      <trkpt lat="43.57688" lon="5.68277">
        <ele>408.37</ele>
        <time>2019-03-30T08:59:12Z</time>
      </trkpt>
      <trkpt lat="43.57672" lon="5.68263">
        <ele>408.37</ele>
        <time>2019-03-30T08:59:18Z</time>
      </trkpt>
      <trkpt lat="43.57662" lon="5.68239">
        <ele>407.59</ele>
        <time>2019-03-30T08:59:24Z</time>
      </trkpt>
      <trkpt lat="43.57656" lon="5.68211">
        <ele>406.97</ele>
        <time>2019-03-30T08:59:30Z</time>
      </trkpt>
      <trkpt lat="43.57652" lon="5.68182">
        <ele>408.29</ele>
        <time>2019-03-30T08:59:36Z</time>
      </trkpt>
      <trkpt lat="43.57649" lon="5.68154">
        <ele>409.63</ele>
        <time>2019-03-30T08:59:41Z</time>
      </trkpt>
      <trkpt lat="43.57636" lon="5.68131">
        <ele>410.12</ele>
        <time>2019-03-30T08:59:47Z</time>
      </trkpt>
      <trkpt lat="43.57618" lon="5.68123">
        <ele>410.1</ele>
        <time>2019-03-30T08:59:52Z</time>
      </trkpt>
      <trkpt lat="43.57601" lon="5.68114">
        <ele>409.41</ele>
        <time>2019-03-30T08:59:58Z</time>
      </trkpt>
      <trkpt lat="43.57585" lon="5.68099">
        <ele>411.37</ele>
        <time>2019-03-30T09:00:06Z</time>
      </trkpt>
      <trkpt lat="43.57572" lon="5.68081">
        <ele>414.24</ele>
        <time>2019-03-30T09:00:15Z</time>
      </trkpt>
      <trkpt lat="43.57567" lon="5.68055">
        <ele>416.84</ele>
        <time>2019-03-30T09:00:24Z</time>
      </trkpt>
      <trkpt lat="43.57561" lon="5.68029">
        <ele>418.53</ele>
        <time>2019-03-30T09:00:34Z</time>
      </trkpt>
      <trkpt lat="43.57555" lon="5.68005">
        <ele>420.47</ele>
        <time>2019-03-30T09:00:44Z</time>
      </trkpt>
      <trkpt lat="43.5754" lon="5.67987">
        <ele>422.82</ele>
        <time>2019-03-30T09:00:55Z</time>
      </trkpt>
      <trkpt lat="43.57524" lon="5.67971">
        <ele>424.84</ele>
        <time>2019-03-30T09:01:06Z</time>
      </trkpt>
      <trkpt lat="43.57507" lon="5.67965">
        <ele>425.95</ele>
        <time>2019-03-30T09:01:17Z</time>
      </trkpt>
      <trkpt lat="43.5749" lon="5.67956">
        <ele>426.55</ele>
        <time>2019-03-30T09:01:26Z</time>
      </trkpt>
      <trkpt lat="43.57481" lon="5.67933">
        <ele>428.1</ele>
        <time>2019-03-30T09:01:36Z</time>
      </trkpt>
      <trkpt lat="43.57473" lon="5.67908">
        <ele>430.09</ele>
        <time>2019-03-30T09:01:46Z</time>
      </trkpt>
      <trkpt lat="43.57468" lon="5.67883">
        <ele>432.6</ele>
        <time>2019-03-30T09:01:57Z</time>
      </trkpt>
      <trkpt lat="43.57465" lon="5.67857">
        <ele>434.76</ele>
        <time>2019-03-30T09:02:08Z</time>
      </trkpt>
      <trkpt lat="43.57462" lon="5.6783">
        <ele>436.02</ele>
        <time>2019-03-30T09:02:18Z</time>
      </trkpt>
      <trkpt lat="43.5746" lon="5.67803">
        <ele>437.32</ele>
        <time>2019-03-30T09:02:29Z</time>
      </trkpt>
      <trkpt lat="43.57457" lon="5.67778">
        <ele>439.3</ele>
        <time>2019-03-30T09:02:39Z</time>
      </trkpt>
      <trkpt lat="43.57456" lon="5.67752">
        <ele>440.25</ele>
        <time>2019-03-30T09:02:48Z</time>
      </trkpt>
      <trkpt lat="43.57453" lon="5.67726">
        <ele>441.59</ele>
        <time>2019-03-30T09:02:58Z</time>
      </trkpt>
      <trkpt lat="43.57451" lon="5.67698">
        <ele>444.02</ele>
        <time>2019-03-30T09:03:09Z</time>
      </trkpt>
      <trkpt lat="43.5745" lon="5.67671">
        <ele>445.48</ele>
        <time>2019-03-30T09:03:18Z</time>
      </trkpt>
      <trkpt lat="43.57452" lon="5.67644">
        <ele>447.41</ele>
        <time>2019-03-30T09:03:27Z</time>
      </trkpt>
      <trkpt lat="43.57454" lon="5.67618">
        <ele>448.82</ele>
        <time>2019-03-30T09:03:36Z</time>
      </trkpt>
      <trkpt lat="43.57455" lon="5.67592">
        <ele>451.56</ele>
        <time>2019-03-30T09:03:46Z</time>
      </trkpt>
      <trkpt lat="43.57454" lon="5.67567">
        <ele>453.34</ele>
        <time>2019-03-30T09:03:55Z</time>
      </trkpt>
      <trkpt lat="43.57454" lon="5.6754">
        <ele>454.6</ele>
        <time>2019-03-30T09:04:05Z</time>
      </trkpt>
      <trkpt lat="43.57449" lon="5.67515">
        <ele>456.36</ele>
        <time>2019-03-30T09:04:14Z</time>
      </trkpt>
      <trkpt lat="43.57447" lon="5.6749">
        <ele>456.97</ele>
        <time>2019-03-30T09:04:23Z</time>
      </trkpt>
      <trkpt lat="43.57442" lon="5.67466">
        <ele>458.92</ele>
        <time>2019-03-30T09:04:33Z</time>
      </trkpt>
      <trkpt lat="43.57437" lon="5.6744">
        <ele>458.9</ele>
        <time>2019-03-30T09:04:43Z</time>
      </trkpt>
      <trkpt lat="43.57434" lon="5.67413">
        <ele>459.74</ele>
        <time>2019-03-30T09:04:53Z</time>
      </trkpt>
      <trkpt lat="43.57426" lon="5.67389">
        <ele>461.9</ele>
        <time>2019-03-30T09:05:03Z</time>
      </trkpt>
      <trkpt lat="43.57413" lon="5.67368">
        <ele>462.5</ele>
        <time>2019-03-30T09:05:12Z</time>
      </trkpt>
      <trkpt lat="43.57401" lon="5.67347">
        <ele>462.26</ele>
        <time>2019-03-30T09:05:21Z</time>
      </trkpt>
      <trkpt lat="43.5739" lon="5.67325">
        <ele>461.11</ele>
        <time>2019-03-30T09:05:30Z</time>
      </trkpt>
      <trkpt lat="43.57379" lon="5.67304">
        <ele>462.5</ele>
        <time>2019-03-30T09:05:39Z</time>
      </trkpt>
      <trkpt lat="43.57369" lon="5.6728">
        <ele>463.46</ele>
        <time>2019-03-30T09:05:48Z</time>
      </trkpt>
      <trkpt lat="43.57362" lon="5.67256">
        <ele>468.36</ele>
        <time>2019-03-30T09:05:59Z</time>
      </trkpt>
      <trkpt lat="43.57357" lon="5.67232">
        <ele>468.44</ele>
        <time>2019-03-30T09:11:16Z</time>
      </trkpt>
      <trkpt lat="43.57349" lon="5.67208">
        <ele>469.28</ele>
        <time>2019-03-30T09:11:25Z</time>
      </trkpt>
      <trkpt lat="43.57341" lon="5.67185">
        <ele>471.57</ele>
        <time>2019-03-30T09:11:32Z</time>
      </trkpt>
      <trkpt lat="43.57332" lon="5.6716">
        <ele>473.67</ele>
        <time>2019-03-30T09:11:39Z</time>
      </trkpt>
      <trkpt lat="43.57323" lon="5.67137">
        <ele>475.02</ele>
        <time>2019-03-30T09:11:45Z</time>
      </trkpt>
      <trkpt lat="43.57315" lon="5.67113">
        <ele>474.96</ele>
        <time>2019-03-30T09:11:51Z</time>
      </trkpt>
      <trkpt lat="43.57309" lon="5.67088">
        <ele>473.95</ele>
        <time>2019-03-30T09:11:55Z</time>
      </trkpt>
      <trkpt lat="43.57298" lon="5.67067">
        <ele>473.77</ele>
        <time>2019-03-30T09:12:00Z</time>
      </trkpt>
      <trkpt lat="43.5729" lon="5.67044">
        <ele>470.75</ele>
        <time>2019-03-30T09:12:05Z</time>
      </trkpt>
      <trkpt lat="43.57276" lon="5.67027">
        <ele>466.95</ele>
        <time>2019-03-30T09:12:13Z</time>
      </trkpt>
      <trkpt lat="43.57261" lon="5.67011">
        <ele>463.97</ele>
        <time>2019-03-30T09:12:21Z</time>
      </trkpt>
      <trkpt lat="43.57257" lon="5.66986">
        <ele>463.13</ele>
        <time>2019-03-30T09:12:29Z</time>
      </trkpt>
      <trkpt lat="43.57251" lon="5.66959">
        <ele>463.44</ele>
        <time>2019-03-30T09:12:37Z</time>
      </trkpt>
      <trkpt lat="43.57247" lon="5.66931">
        <ele>462.69</ele>
        <time>2019-03-30T09:12:44Z</time>
      </trkpt>
      <trkpt lat="43.5725" lon="5.66902">
        <ele>462.82</ele>
        <time>2019-03-30T09:12:51Z</time>
      </trkpt>
      <trkpt lat="43.57247" lon="5.66876">
        <ele>463.02</ele>
        <time>2019-03-30T09:12:58Z</time>
      </trkpt>
      <trkpt lat="43.57246" lon="5.66851">
        <ele>462.9</ele>
        <time>2019-03-30T09:13:04Z</time>
      </trkpt>
      <trkpt lat="43.57242" lon="5.66826">
        <ele>464.85</ele>
        <time>2019-03-30T09:13:11Z</time>
      </trkpt>
      <trkpt lat="43.57235" lon="5.668">
        <ele>468.62</ele>
        <time>2019-03-30T09:13:18Z</time>
      </trkpt>
      <trkpt lat="43.57229" lon="5.66774">
        <ele>472</ele>
        <time>2019-03-30T09:13:25Z</time>
      </trkpt>
      <trkpt lat="43.57225" lon="5.66749">
        <ele>473.97</ele>
        <time>2019-03-30T09:13:31Z</time>
      </trkpt>
      <trkpt lat="43.5722" lon="5.66722">
        <ele>475.28</ele>
        <time>2019-03-30T09:13:37Z</time>
      </trkpt>
      <trkpt lat="43.57216" lon="5.66696">
        <ele>475.19</ele>
        <time>2019-03-30T09:13:42Z</time>
      </trkpt>
      <trkpt lat="43.57212" lon="5.6667">
        <ele>474.04</ele>
        <time>2019-03-30T09:13:47Z</time>
      </trkpt>
      <trkpt lat="43.57203" lon="5.66645">
        <ele>473.55</ele>
        <time>2019-03-30T09:13:53Z</time>
      </trkpt>
      <trkpt lat="43.57205" lon="5.66618">
        <ele>475.21</ele>
        <time>2019-03-30T09:13:58Z</time>
      </trkpt>
      <trkpt lat="43.57213" lon="5.66591">
        <ele>475.14</ele>
        <time>2019-03-30T09:14:03Z</time>
      </trkpt>
      <trkpt lat="43.57223" lon="5.66565">
        <ele>474.31</ele>
        <time>2019-03-30T09:14:08Z</time>
      </trkpt>
      <trkpt lat="43.57229" lon="5.66542">
        <ele>473.55</ele>
        <time>2019-03-30T09:14:13Z</time>
      </trkpt>
      <trkpt lat="43.57224" lon="5.66514">
        <ele>473.61</ele>
        <time>2019-03-30T09:14:19Z</time>
      </trkpt>
      <trkpt lat="43.5722" lon="5.66487">
        <ele>473.54</ele>
        <time>2019-03-30T09:14:25Z</time>
      </trkpt>
      <trkpt lat="43.57215" lon="5.66463">
        <ele>475.65</ele>
        <time>2019-03-30T09:14:32Z</time>
      </trkpt>
      <trkpt lat="43.57212" lon="5.66436">
        <ele>479.66</ele>
        <time>2019-03-30T09:14:40Z</time>
      </trkpt>
      <trkpt lat="43.57206" lon="5.6641">
        <ele>481.45</ele>
        <time>2019-03-30T09:14:47Z</time>
      </trkpt>
      <trkpt lat="43.57199" lon="5.66382">
        <ele>482.89</ele>
        <time>2019-03-30T09:14:54Z</time>
      </trkpt>
      <trkpt lat="43.57191" lon="5.66356">
        <ele>484.77</ele>
        <time>2019-03-30T09:15:01Z</time>
      </trkpt>
      <trkpt lat="43.57184" lon="5.66332">
        <ele>486.24</ele>
        <time>2019-03-30T09:15:08Z</time>
      </trkpt>
      <trkpt lat="43.5718" lon="5.66305">
        <ele>485.71</ele>
        <time>2019-03-30T09:15:15Z</time>
      </trkpt>
      <trkpt lat="43.57177" lon="5.66278">
        <ele>485.93</ele>
        <time>2019-03-30T09:15:23Z</time>
      </trkpt>
      <trkpt lat="43.57178" lon="5.6625">
        <ele>484.78</ele>
        <time>2019-03-30T09:15:30Z</time>
      </trkpt>
      <trkpt lat="43.5718" lon="5.66225">
        <ele>484.23</ele>
        <time>2019-03-30T09:15:36Z</time>
      </trkpt>
      <trkpt lat="43.57183" lon="5.662">
        <ele>483.76</ele>
        <time>2019-03-30T09:15:42Z</time>
      </trkpt>
      <trkpt lat="43.5718" lon="5.66174">
        <ele>484.1</ele>
        <time>2019-03-30T09:15:50Z</time>
      </trkpt>
      <trkpt lat="43.57177" lon="5.66149">
        <ele>484.06</ele>
        <time>2019-03-30T09:15:57Z</time>
      </trkpt>
      <trkpt lat="43.57174" lon="5.66124">
        <ele>484.66</ele>
        <time>2019-03-30T09:16:07Z</time>
      </trkpt>
      <trkpt lat="43.5717" lon="5.66099">
        <ele>483.06</ele>
        <time>2019-03-30T09:18:03Z</time>
      </trkpt>
      <trkpt lat="43.57162" lon="5.66076">
        <ele>483.58</ele>
        <time>2019-03-30T09:18:11Z</time>
      </trkpt>
      <trkpt lat="43.57145" lon="5.66065">
        <ele>481.23</ele>
        <time>2019-03-30T09:18:17Z</time>
      </trkpt>
      <trkpt lat="43.57127" lon="5.6606">
        <ele>479.38</ele>
        <time>2019-03-30T09:18:23Z</time>
      </trkpt>
      <trkpt lat="43.5711" lon="5.66054">
        <ele>478.64</ele>
        <time>2019-03-30T09:18:29Z</time>
      </trkpt>
      <trkpt lat="43.57091" lon="5.66048">
        <ele>479.03</ele>
        <time>2019-03-30T09:18:36Z</time>
      </trkpt>
      <trkpt lat="43.57085" lon="5.66023">
        <ele>481.43</ele>
        <time>2019-03-30T09:18:46Z</time>
      </trkpt>
      <trkpt lat="43.57088" lon="5.65997">
        <ele>484</ele>
        <time>2019-03-30T09:18:54Z</time>
      </trkpt>
      <trkpt lat="43.57093" lon="5.6597">
        <ele>485.51</ele>
        <time>2019-03-30T09:19:01Z</time>
      </trkpt>
      <trkpt lat="43.57097" lon="5.65943">
        <ele>489.17</ele>
        <time>2019-03-30T09:19:09Z</time>
      </trkpt>
      <trkpt lat="43.57099" lon="5.65915">
        <ele>490.15</ele>
        <time>2019-03-30T09:19:17Z</time>
      </trkpt>
      <trkpt lat="43.57105" lon="5.6589">
        <ele>493.06</ele>
        <time>2019-03-30T09:19:25Z</time>
      </trkpt>
      <trkpt lat="43.57111" lon="5.65864">
        <ele>494.65</ele>
        <time>2019-03-30T09:19:32Z</time>
      </trkpt>
      <trkpt lat="43.57111" lon="5.65838">
        <ele>494.16</ele>
        <time>2019-03-30T09:19:39Z</time>
      </trkpt>
      <trkpt lat="43.57111" lon="5.65813">
        <ele>494.98</ele>
        <time>2019-03-30T09:19:46Z</time>
      </trkpt>
      <trkpt lat="43.5711" lon="5.65786">
        <ele>496.26</ele>
        <time>2019-03-30T09:19:55Z</time>
      </trkpt>
      <trkpt lat="43.5711" lon="5.65761">
        <ele>497.91</ele>
        <time>2019-03-30T09:20:04Z</time>
      </trkpt>
      <trkpt lat="43.5711" lon="5.65735">
        <ele>498.56</ele>
        <time>2019-03-30T09:20:11Z</time>
      </trkpt>
      <trkpt lat="43.57108" lon="5.65708">
        <ele>498.37</ele>
        <time>2019-03-30T09:20:18Z</time>
      </trkpt>
      <trkpt lat="43.57107" lon="5.65681">
        <ele>497.44</ele>
        <time>2019-03-30T09:20:24Z</time>
      </trkpt>
      <trkpt lat="43.57106" lon="5.65654">
        <ele>497.74</ele>
        <time>2019-03-30T09:20:30Z</time>
      </trkpt>
      <trkpt lat="43.57108" lon="5.65629">
        <ele>498.47</ele>
        <time>2019-03-30T09:20:37Z</time>
      </trkpt>
      <trkpt lat="43.57122" lon="5.65608">
        <ele>494.11</ele>
        <time>2019-03-30T09:20:44Z</time>
      </trkpt>
      <trkpt lat="43.57139" lon="5.65602">
        <ele>491.69</ele>
        <time>2019-03-30T09:20:48Z</time>
      </trkpt>
      <trkpt lat="43.57152" lon="5.65582">
        <ele>490.99</ele>
        <time>2019-03-30T09:20:53Z</time>
      </trkpt>
      <trkpt lat="43.57154" lon="5.65556">
        <ele>492.08</ele>
        <time>2019-03-30T09:21:04Z</time>
      </trkpt>
      <trkpt lat="43.57158" lon="5.6553">
        <ele>492.53</ele>
        <time>2019-03-30T09:21:13Z</time>
      </trkpt>
      <trkpt lat="43.5716" lon="5.65504">
        <ele>492.63</ele>
        <time>2019-03-30T09:21:24Z</time>
      </trkpt>
      <trkpt lat="43.57165" lon="5.6548">
        <ele>494.59</ele>
        <time>2019-03-30T09:21:33Z</time>
      </trkpt>
      <trkpt lat="43.57172" lon="5.65456">
        <ele>497.15</ele>
        <time>2019-03-30T09:21:42Z</time>
      </trkpt>
      <trkpt lat="43.57176" lon="5.6543">
        <ele>500.15</ele>
        <time>2019-03-30T09:21:52Z</time>
      </trkpt>
      <trkpt lat="43.57174" lon="5.65404">
        <ele>502.16</ele>
        <time>2019-03-30T09:22:01Z</time>
      </trkpt>
      <trkpt lat="43.57175" lon="5.65378">
        <ele>502.59</ele>
        <time>2019-03-30T09:22:09Z</time>
      </trkpt>
      <trkpt lat="43.57177" lon="5.65353">
        <ele>505.61</ele>
        <time>2019-03-30T09:22:18Z</time>
      </trkpt>
      <trkpt lat="43.5718" lon="5.65327">
        <ele>507.03</ele>
        <time>2019-03-30T09:22:27Z</time>
      </trkpt>
      <trkpt lat="43.57183" lon="5.653">
        <ele>508.96</ele>
        <time>2019-03-30T09:22:36Z</time>
      </trkpt>
      <trkpt lat="43.57186" lon="5.65272">
        <ele>510.92</ele>
        <time>2019-03-30T09:22:45Z</time>
      </trkpt>
      <trkpt lat="43.57184" lon="5.65246">
        <ele>513.49</ele>
        <time>2019-03-30T09:22:54Z</time>
      </trkpt>
      <trkpt lat="43.57182" lon="5.6522">
        <ele>514.71</ele>
        <time>2019-03-30T09:23:02Z</time>
      </trkpt>
      <trkpt lat="43.5718" lon="5.65192">
        <ele>516.75</ele>
        <time>2019-03-30T09:23:10Z</time>
      </trkpt>
      <trkpt lat="43.57179" lon="5.65165">
        <ele>518.69</ele>
        <time>2019-03-30T09:23:18Z</time>
      </trkpt>
      <trkpt lat="43.57177" lon="5.65138">
        <ele>519.79</ele>
        <time>2019-03-30T09:23:26Z</time>
      </trkpt>
      <trkpt lat="43.57176" lon="5.65112">
        <ele>520.45</ele>
        <time>2019-03-30T09:23:33Z</time>
      </trkpt>
      <trkpt lat="43.57176" lon="5.65084">
        <ele>521.24</ele>
        <time>2019-03-30T09:23:41Z</time>
      </trkpt>
      <trkpt lat="43.57175" lon="5.65058">
        <ele>524.77</ele>
        <time>2019-03-30T09:23:50Z</time>
      </trkpt>
      <trkpt lat="43.57173" lon="5.6503">
        <ele>526.21</ele>
        <time>2019-03-30T09:23:58Z</time>
      </trkpt>
      <trkpt lat="43.57171" lon="5.65004">
        <ele>526</ele>
        <time>2019-03-30T09:24:06Z</time>
      </trkpt>
      <trkpt lat="43.57169" lon="5.64977">
        <ele>528.54</ele>
        <time>2019-03-30T09:24:15Z</time>
      </trkpt>
      <trkpt lat="43.57166" lon="5.64949">
        <ele>531.97</ele>
        <time>2019-03-30T09:24:25Z</time>
      </trkpt>
      <trkpt lat="43.57163" lon="5.64923">
        <ele>533.96</ele>
        <time>2019-03-30T09:24:35Z</time>
      </trkpt>
      <trkpt lat="43.57181" lon="5.64935">
        <ele>535.89</ele>
        <time>2019-03-30T09:24:45Z</time>
      </trkpt>
      <trkpt lat="43.57189" lon="5.64963">
        <ele>537.31</ele>
        <time>2019-03-30T09:24:50Z</time>
      </trkpt>
      <trkpt lat="43.57194" lon="5.64987">
        <ele>538.07</ele>
        <time>2019-03-30T09:24:54Z</time>
      </trkpt>
      <trkpt lat="43.572" lon="5.65011">
        <ele>538.46</ele>
        <time>2019-03-30T09:24:58Z</time>
      </trkpt>
      <trkpt lat="43.57213" lon="5.65034">
        <ele>538.26</ele>
        <time>2019-03-30T09:25:03Z</time>
      </trkpt>
      <trkpt lat="43.5722" lon="5.65061">
        <ele>535.62</ele>
        <time>2019-03-30T09:25:08Z</time>
      </trkpt>
      <trkpt lat="43.57216" lon="5.65086">
        <ele>535.07</ele>
        <time>2019-03-30T09:25:12Z</time>
      </trkpt>
      <trkpt lat="43.57221" lon="5.65113">
        <ele>534.07</ele>
        <time>2019-03-30T09:25:17Z</time>
      </trkpt>
      <trkpt lat="43.57227" lon="5.65139">
        <ele>534.28</ele>
        <time>2019-03-30T09:25:22Z</time>
      </trkpt>
      <trkpt lat="43.57246" lon="5.65154">
        <ele>532.99</ele>
        <time>2019-03-30T09:25:28Z</time>
      </trkpt>
      <trkpt lat="43.57255" lon="5.65176">
        <ele>531.29</ele>
        <time>2019-03-30T09:25:32Z</time>
      </trkpt>
      <trkpt lat="43.57258" lon="5.65202">
        <ele>530.54</ele>
        <time>2019-03-30T09:25:36Z</time>
      </trkpt>
      <trkpt lat="43.57258" lon="5.65232">
        <ele>528.85</ele>
        <time>2019-03-30T09:25:41Z</time>
      </trkpt>
      <trkpt lat="43.5726" lon="5.6526">
        <ele>527.76</ele>
        <time>2019-03-30T09:25:46Z</time>
      </trkpt>
      <trkpt lat="43.57264" lon="5.65285">
        <ele>527.17</ele>
        <time>2019-03-30T09:25:50Z</time>
      </trkpt>
      <trkpt lat="43.57269" lon="5.65313">
        <ele>526.22</ele>
        <time>2019-03-30T09:25:54Z</time>
      </trkpt>
      <trkpt lat="43.57272" lon="5.6534">
        <ele>525.73</ele>
        <time>2019-03-30T09:25:58Z</time>
      </trkpt>
      <trkpt lat="43.57269" lon="5.65368">
        <ele>522.7</ele>
        <time>2019-03-30T09:26:02Z</time>
      </trkpt>
      <trkpt lat="43.57266" lon="5.65397">
        <ele>519.91</ele>
        <time>2019-03-30T09:26:06Z</time>
      </trkpt>
      <trkpt lat="43.57267" lon="5.65429">
        <ele>516.34</ele>
        <time>2019-03-30T09:26:10Z</time>
      </trkpt>
      <trkpt lat="43.57267" lon="5.6546">
        <ele>514.08</ele>
        <time>2019-03-30T09:26:13Z</time>
      </trkpt>
      <trkpt lat="43.57264" lon="5.65495">
        <ele>511.94</ele>
        <time>2019-03-30T09:26:16Z</time>
      </trkpt>
      <trkpt lat="43.57268" lon="5.65527">
        <ele>509.92</ele>
        <time>2019-03-30T09:26:19Z</time>
      </trkpt>
      <trkpt lat="43.57276" lon="5.65552">
        <ele>508.71</ele>
        <time>2019-03-30T09:26:22Z</time>
      </trkpt>
      <trkpt lat="43.57285" lon="5.65583">
        <ele>507.89</ele>
        <time>2019-03-30T09:26:26Z</time>
      </trkpt>
      <trkpt lat="43.57288" lon="5.65612">
        <ele>508.19</ele>
        <time>2019-03-30T09:26:30Z</time>
      </trkpt>
      <trkpt lat="43.57288" lon="5.65642">
        <ele>508.84</ele>
        <time>2019-03-30T09:26:35Z</time>
      </trkpt>
      <trkpt lat="43.57293" lon="5.65671">
        <ele>509.08</ele>
        <time>2019-03-30T09:26:40Z</time>
      </trkpt>
      <trkpt lat="43.57296" lon="5.65701">
        <ele>509.36</ele>
        <time>2019-03-30T09:26:45Z</time>
      </trkpt>
      <trkpt lat="43.57295" lon="5.65726">
        <ele>509.42</ele>
        <time>2019-03-30T09:26:49Z</time>
      </trkpt>
      <trkpt lat="43.57295" lon="5.65752">
        <ele>509.37</ele>
        <time>2019-03-30T09:26:53Z</time>
      </trkpt>
      <trkpt lat="43.57296" lon="5.65779">
        <ele>509.37</ele>
        <time>2019-03-30T09:26:58Z</time>
      </trkpt>
      <trkpt lat="43.57305" lon="5.65803">
        <ele>508.53</ele>
        <time>2019-03-30T09:27:02Z</time>
      </trkpt>
      <trkpt lat="43.57315" lon="5.65825">
        <ele>505.09</ele>
        <time>2019-03-30T09:27:06Z</time>
      </trkpt>
      <trkpt lat="43.57334" lon="5.6583">
        <ele>502.02</ele>
        <time>2019-03-30T09:27:11Z</time>
      </trkpt>
      <trkpt lat="43.57341" lon="5.65802">
        <ele>500.13</ele>
        <time>2019-03-30T09:27:16Z</time>
      </trkpt>
      <trkpt lat="43.57353" lon="5.65784">
        <ele>498.15</ele>
        <time>2019-03-30T09:27:22Z</time>
      </trkpt>
      <trkpt lat="43.57369" lon="5.65769">
        <ele>493.88</ele>
        <time>2019-03-30T09:27:34Z</time>
      </trkpt>
      <trkpt lat="43.5738" lon="5.65744">
        <ele>491.39</ele>
        <time>2019-03-30T09:27:39Z</time>
      </trkpt>
      <trkpt lat="43.57389" lon="5.65719">
        <ele>488.97</ele>
        <time>2019-03-30T09:27:43Z</time>
      </trkpt>
      <trkpt lat="43.57395" lon="5.65688">
        <ele>487.15</ele>
        <time>2019-03-30T09:27:47Z</time>
      </trkpt>
      <trkpt lat="43.57395" lon="5.65658">
        <ele>486.22</ele>
        <time>2019-03-30T09:27:51Z</time>
      </trkpt>
      <trkpt lat="43.57398" lon="5.65626">
        <ele>485.13</ele>
        <time>2019-03-30T09:27:55Z</time>
      </trkpt>
      <trkpt lat="43.574" lon="5.656">
        <ele>484.35</ele>
        <time>2019-03-30T09:27:59Z</time>
      </trkpt>
      <trkpt lat="43.57402" lon="5.65573">
        <ele>484.89</ele>
        <time>2019-03-30T09:28:06Z</time>
      </trkpt>
      <trkpt lat="43.57396" lon="5.65549">
        <ele>488.52</ele>
        <time>2019-03-30T09:28:17Z</time>
      </trkpt>
      <trkpt lat="43.57395" lon="5.65523">
        <ele>490.91</ele>
        <time>2019-03-30T09:28:26Z</time>
      </trkpt>
      <trkpt lat="43.57395" lon="5.65496">
        <ele>489.68</ele>
        <time>2019-03-30T09:28:33Z</time>
      </trkpt>
      <trkpt lat="43.57395" lon="5.65467">
        <ele>488.61</ele>
        <time>2019-03-30T09:28:41Z</time>
      </trkpt>
      <trkpt lat="43.57395" lon="5.65439">
        <ele>487.09</ele>
        <time>2019-03-30T09:28:49Z</time>
      </trkpt>
      <trkpt lat="43.57397" lon="5.65411">
        <ele>487.37</ele>
        <time>2019-03-30T09:28:56Z</time>
      </trkpt>
      <trkpt lat="43.57396" lon="5.65386">
        <ele>488.56</ele>
        <time>2019-03-30T09:29:03Z</time>
      </trkpt>
      <trkpt lat="43.57395" lon="5.6536">
        <ele>490.87</ele>
        <time>2019-03-30T09:29:11Z</time>
      </trkpt>
      <trkpt lat="43.57394" lon="5.65334">
        <ele>492.47</ele>
        <time>2019-03-30T09:29:19Z</time>
      </trkpt>
      <trkpt lat="43.57392" lon="5.65305">
        <ele>493.43</ele>
        <time>2019-03-30T09:29:26Z</time>
      </trkpt>
      <trkpt lat="43.5739" lon="5.65278">
        <ele>493.85</ele>
        <time>2019-03-30T09:29:33Z</time>
      </trkpt>
      <trkpt lat="43.57394" lon="5.65252">
        <ele>493.93</ele>
        <time>2019-03-30T09:29:40Z</time>
      </trkpt>
      <trkpt lat="43.57399" lon="5.65225">
        <ele>493.83</ele>
        <time>2019-03-30T09:29:46Z</time>
      </trkpt>
      <trkpt lat="43.57397" lon="5.65199">
        <ele>494.98</ele>
        <time>2019-03-30T09:29:53Z</time>
      </trkpt>
      <trkpt lat="43.57397" lon="5.65173">
        <ele>496.12</ele>
        <time>2019-03-30T09:29:59Z</time>
      </trkpt>
      <trkpt lat="43.57395" lon="5.65148">
        <ele>497.58</ele>
        <time>2019-03-30T09:30:05Z</time>
      </trkpt>
      <trkpt lat="43.5739" lon="5.65122">
        <ele>499.39</ele>
        <time>2019-03-30T09:30:11Z</time>
      </trkpt>
      <trkpt lat="43.57388" lon="5.65097">
        <ele>501.65</ele>
        <time>2019-03-30T09:30:17Z</time>
      </trkpt>
      <trkpt lat="43.5738" lon="5.65072">
        <ele>504.52</ele>
        <time>2019-03-30T09:30:23Z</time>
      </trkpt>
      <trkpt lat="43.5738" lon="5.65045">
        <ele>506.98</ele>
        <time>2019-03-30T09:30:30Z</time>
      </trkpt>
      <trkpt lat="43.57381" lon="5.65018">
        <ele>509.55</ele>
        <time>2019-03-30T09:30:37Z</time>
      </trkpt>
      <trkpt lat="43.57375" lon="5.64991">
        <ele>512.29</ele>
        <time>2019-03-30T09:30:44Z</time>
      </trkpt>
      <trkpt lat="43.57371" lon="5.64966">
        <ele>514.45</ele>
        <time>2019-03-30T09:30:50Z</time>
      </trkpt>
      <trkpt lat="43.57369" lon="5.6494">
        <ele>516.37</ele>
        <time>2019-03-30T09:30:56Z</time>
      </trkpt>
      <trkpt lat="43.57369" lon="5.64913">
        <ele>518.47</ele>
        <time>2019-03-30T09:31:03Z</time>
      </trkpt>
      <trkpt lat="43.57366" lon="5.64884">
        <ele>519.72</ele>
        <time>2019-03-30T09:31:10Z</time>
      </trkpt>
      <trkpt lat="43.57356" lon="5.64862">
        <ele>519.9</ele>
        <time>2019-03-30T09:31:16Z</time>
      </trkpt>
      <trkpt lat="43.57343" lon="5.64845">
        <ele>518.33</ele>
        <time>2019-03-30T09:31:22Z</time>
      </trkpt>
      <trkpt lat="43.57339" lon="5.64818">
        <ele>517.95</ele>
        <time>2019-03-30T09:31:29Z</time>
      </trkpt>
      <trkpt lat="43.57329" lon="5.64796">
        <ele>518.04</ele>
        <time>2019-03-30T09:31:36Z</time>
      </trkpt>
      <trkpt lat="43.57323" lon="5.64772">
        <ele>519.8</ele>
        <time>2019-03-30T09:31:43Z</time>
      </trkpt>
      <trkpt lat="43.57321" lon="5.64746">
        <ele>520.69</ele>
        <time>2019-03-30T09:31:50Z</time>
      </trkpt>
      <trkpt lat="43.57324" lon="5.6472">
        <ele>522.14</ele>
        <time>2019-03-30T09:31:56Z</time>
      </trkpt>
      <trkpt lat="43.5732" lon="5.64693">
        <ele>522.8</ele>
        <time>2019-03-30T09:32:03Z</time>
      </trkpt>
      <trkpt lat="43.57316" lon="5.64665">
        <ele>524.48</ele>
        <time>2019-03-30T09:32:10Z</time>
      </trkpt>
      <trkpt lat="43.57319" lon="5.64637">
        <ele>526.41</ele>
        <time>2019-03-30T09:32:17Z</time>
      </trkpt>
      <trkpt lat="43.57326" lon="5.64613">
        <ele>525.86</ele>
        <time>2019-03-30T09:32:23Z</time>
      </trkpt>
      <trkpt lat="43.5733" lon="5.64584">
        <ele>524.59</ele>
        <time>2019-03-30T09:32:29Z</time>
      </trkpt>
      <trkpt lat="43.57328" lon="5.64555">
        <ele>525</ele>
        <time>2019-03-30T09:32:36Z</time>
      </trkpt>
      <trkpt lat="43.57324" lon="5.64528">
        <ele>526.39</ele>
        <time>2019-03-30T09:32:44Z</time>
      </trkpt>
      <trkpt lat="43.57327" lon="5.64503">
        <ele>526.7</ele>
        <time>2019-03-30T09:32:50Z</time>
      </trkpt>
      <trkpt lat="43.57331" lon="5.64475">
        <ele>524.44</ele>
        <time>2019-03-30T09:32:56Z</time>
      </trkpt>
      <trkpt lat="43.57334" lon="5.64445">
        <ele>524.3</ele>
        <time>2019-03-30T09:33:02Z</time>
      </trkpt>
      <trkpt lat="43.57336" lon="5.64419">
        <ele>523.6</ele>
        <time>2019-03-30T09:33:08Z</time>
      </trkpt>
      <trkpt lat="43.57335" lon="5.64392">
        <ele>522.94</ele>
        <time>2019-03-30T09:33:14Z</time>
      </trkpt>
      <trkpt lat="43.5733" lon="5.64366">
        <ele>524.27</ele>
        <time>2019-03-30T09:33:21Z</time>
      </trkpt>
      <trkpt lat="43.5733" lon="5.6434">
        <ele>525.17</ele>
        <time>2019-03-30T09:33:28Z</time>
      </trkpt>
      <trkpt lat="43.57329" lon="5.64312">
        <ele>527.12</ele>
        <time>2019-03-30T09:33:35Z</time>
      </trkpt>
      <trkpt lat="43.57327" lon="5.64286">
        <ele>527.66</ele>
        <time>2019-03-30T09:33:41Z</time>
      </trkpt>
      <trkpt lat="43.57332" lon="5.64259">
        <ele>527.34</ele>
        <time>2019-03-30T09:33:47Z</time>
      </trkpt>
      <trkpt lat="43.57342" lon="5.64237">
        <ele>526.98</ele>
        <time>2019-03-30T09:33:55Z</time>
      </trkpt>
      <trkpt lat="43.57357" lon="5.64219">
        <ele>528.45</ele>
        <time>2019-03-30T09:34:04Z</time>
      </trkpt>
      <trkpt lat="43.57373" lon="5.64202">
        <ele>529.35</ele>
        <time>2019-03-30T09:34:11Z</time>
      </trkpt>
      <trkpt lat="43.57387" lon="5.64184">
        <ele>528.35</ele>
        <time>2019-03-30T09:34:20Z</time>
      </trkpt>
      <trkpt lat="43.57401" lon="5.64168">
        <ele>528.24</ele>
        <time>2019-03-30T09:34:30Z</time>
      </trkpt>
      <trkpt lat="43.57404" lon="5.64142">
        <ele>527.69</ele>
        <time>2019-03-30T09:34:41Z</time>
      </trkpt>
      <trkpt lat="43.57412" lon="5.64118">
        <ele>528.21</ele>
        <time>2019-03-30T09:34:52Z</time>
      </trkpt>
      <trkpt lat="43.57421" lon="5.64096">
        <ele>529.05</ele>
        <time>2019-03-30T09:35:05Z</time>
      </trkpt>
      <trkpt lat="43.57422" lon="5.6407">
        <ele>520.7</ele>
        <time>2019-03-30T09:43:17Z</time>
      </trkpt>
      <trkpt lat="43.57425" lon="5.64045">
        <ele>522.62</ele>
        <time>2019-03-30T09:43:28Z</time>
      </trkpt>
      <trkpt lat="43.57426" lon="5.64019">
        <ele>524.03</ele>
        <time>2019-03-30T09:43:39Z</time>
      </trkpt>
      <trkpt lat="43.57429" lon="5.63993">
        <ele>524.54</ele>
        <time>2019-03-30T09:43:50Z</time>
      </trkpt>
      <trkpt lat="43.57435" lon="5.63969">
        <ele>525.94</ele>
        <time>2019-03-30T09:44:01Z</time>
      </trkpt>
      <trkpt lat="43.57441" lon="5.63945">
        <ele>528.29</ele>
        <time>2019-03-30T09:44:12Z</time>
      </trkpt>
      <trkpt lat="43.57445" lon="5.6392">
        <ele>529.61</ele>
        <time>2019-03-30T09:44:23Z</time>
      </trkpt>
      <trkpt lat="43.57449" lon="5.63895">
        <ele>530.89</ele>
        <time>2019-03-30T09:44:35Z</time>
      </trkpt>
      <trkpt lat="43.5745" lon="5.63868">
        <ele>532.1</ele>
        <time>2019-03-30T09:44:46Z</time>
      </trkpt>
      <trkpt lat="43.5745" lon="5.63843">
        <ele>533.18</ele>
        <time>2019-03-30T09:44:55Z</time>
      </trkpt>
      <trkpt lat="43.57452" lon="5.63815">
        <ele>533.66</ele>
        <time>2019-03-30T09:45:04Z</time>
      </trkpt>
      <trkpt lat="43.57455" lon="5.63789">
        <ele>532.73</ele>
        <time>2019-03-30T09:45:11Z</time>
      </trkpt>
      <trkpt lat="43.57457" lon="5.6376">
        <ele>532.48</ele>
        <time>2019-03-30T09:45:17Z</time>
      </trkpt>
      <trkpt lat="43.57459" lon="5.63735">
        <ele>533.2</ele>
        <time>2019-03-30T09:45:23Z</time>
      </trkpt>
      <trkpt lat="43.57459" lon="5.63709">
        <ele>535.33</ele>
        <time>2019-03-30T09:45:30Z</time>
      </trkpt>
      <trkpt lat="43.57456" lon="5.63684">
        <ele>536.65</ele>
        <time>2019-03-30T09:45:37Z</time>
      </trkpt>
      <trkpt lat="43.57449" lon="5.63657">
        <ele>538.16</ele>
        <time>2019-03-30T09:45:44Z</time>
      </trkpt>
      <trkpt lat="43.57444" lon="5.63631">
        <ele>541.56</ele>
        <time>2019-03-30T09:45:51Z</time>
      </trkpt>
      <trkpt lat="43.57444" lon="5.63605">
        <ele>542.23</ele>
        <time>2019-03-30T09:45:58Z</time>
      </trkpt>
      <trkpt lat="43.57436" lon="5.63583">
        <ele>540.44</ele>
        <time>2019-03-30T09:46:04Z</time>
      </trkpt>
      <trkpt lat="43.57415" lon="5.63584">
        <ele>541.5</ele>
        <time>2019-03-30T09:46:09Z</time>
      </trkpt>
      <trkpt lat="43.57396" lon="5.63589">
        <ele>541.34</ele>
        <time>2019-03-30T09:46:13Z</time>
      </trkpt>
      <trkpt lat="43.57377" lon="5.63577">
        <ele>541.84</ele>
        <time>2019-03-30T09:46:17Z</time>
      </trkpt>
      <trkpt lat="43.57368" lon="5.63552">
        <ele>542.36</ele>
        <time>2019-03-30T09:46:21Z</time>
      </trkpt>
      <trkpt lat="43.5736" lon="5.63528">
        <ele>542.33</ele>
        <time>2019-03-30T09:46:25Z</time>
      </trkpt>
      <trkpt lat="43.57354" lon="5.63505">
        <ele>545.05</ele>
        <time>2019-03-30T09:46:30Z</time>
      </trkpt>
      <trkpt lat="43.57348" lon="5.63481">
        <ele>547.66</ele>
        <time>2019-03-30T09:46:35Z</time>
      </trkpt>
      <trkpt lat="43.57347" lon="5.63453">
        <ele>547.8</ele>
        <time>2019-03-30T09:46:40Z</time>
      </trkpt>
      <trkpt lat="43.57347" lon="5.63424">
        <ele>547.55</ele>
        <time>2019-03-30T09:46:45Z</time>
      </trkpt>
      <trkpt lat="43.57345" lon="5.63397">
        <ele>549.54</ele>
        <time>2019-03-30T09:46:50Z</time>
      </trkpt>
      <trkpt lat="43.5734" lon="5.6337">
        <ele>552.4</ele>
        <time>2019-03-30T09:46:56Z</time>
      </trkpt>
      <trkpt lat="43.57337" lon="5.63343">
        <ele>551.35</ele>
        <time>2019-03-30T09:47:01Z</time>
      </trkpt>
      <trkpt lat="43.57339" lon="5.63316">
        <ele>550.52</ele>
        <time>2019-03-30T09:47:06Z</time>
      </trkpt>
      <trkpt lat="43.57341" lon="5.63289">
        <ele>549.99</ele>
        <time>2019-03-30T09:47:11Z</time>
      </trkpt>
      <trkpt lat="43.57336" lon="5.63263">
        <ele>549.33</ele>
        <time>2019-03-30T09:47:16Z</time>
      </trkpt>
      <trkpt lat="43.57318" lon="5.6325">
        <ele>551.85</ele>
        <time>2019-03-30T09:47:22Z</time>
      </trkpt>
      <trkpt lat="43.57301" lon="5.63237">
        <ele>555.13</ele>
        <time>2019-03-30T09:47:28Z</time>
      </trkpt>
      <trkpt lat="43.5729" lon="5.63216">
        <ele>554.62</ele>
        <time>2019-03-30T09:47:34Z</time>
      </trkpt>
      <trkpt lat="43.57282" lon="5.63192">
        <ele>553.32</ele>
        <time>2019-03-30T09:47:41Z</time>
      </trkpt>
      <trkpt lat="43.57271" lon="5.63171">
        <ele>551.27</ele>
        <time>2019-03-30T09:49:10Z</time>
      </trkpt>
      <trkpt lat="43.5727" lon="5.63144">
        <ele>549.47</ele>
        <time>2019-03-30T09:49:15Z</time>
      </trkpt>
      <trkpt lat="43.57273" lon="5.63118">
        <ele>547.75</ele>
        <time>2019-03-30T09:49:19Z</time>
      </trkpt>
      <trkpt lat="43.57279" lon="5.63094">
        <ele>546.49</ele>
        <time>2019-03-30T09:49:23Z</time>
      </trkpt>
      <trkpt lat="43.57284" lon="5.63067">
        <ele>545.25</ele>
        <time>2019-03-30T09:49:27Z</time>
      </trkpt>
      <trkpt lat="43.57288" lon="5.63034">
        <ele>543.62</ele>
        <time>2019-03-30T09:49:31Z</time>
      </trkpt>
      <trkpt lat="43.5729" lon="5.63006">
        <ele>542.51</ele>
        <time>2019-03-30T09:49:34Z</time>
      </trkpt>
      <trkpt lat="43.57295" lon="5.62975">
        <ele>540.31</ele>
        <time>2019-03-30T09:49:37Z</time>
      </trkpt>
      <trkpt lat="43.57301" lon="5.62943">
        <ele>537.53</ele>
        <time>2019-03-30T09:49:40Z</time>
      </trkpt>
      <trkpt lat="43.57309" lon="5.62911">
        <ele>536.17</ele>
        <time>2019-03-30T09:49:43Z</time>
      </trkpt>
      <trkpt lat="43.57316" lon="5.62881">
        <ele>535.36</ele>
        <time>2019-03-30T09:49:46Z</time>
      </trkpt>
      <trkpt lat="43.57317" lon="5.62854">
        <ele>533.61</ele>
        <time>2019-03-30T09:49:49Z</time>
      </trkpt>
      <trkpt lat="43.57312" lon="5.62829">
        <ele>531.52</ele>
        <time>2019-03-30T09:49:52Z</time>
      </trkpt>
      <trkpt lat="43.57319" lon="5.62805">
        <ele>529.59</ele>
        <time>2019-03-30T09:49:55Z</time>
      </trkpt>
      <trkpt lat="43.57325" lon="5.62777">
        <ele>527.24</ele>
        <time>2019-03-30T09:49:58Z</time>
      </trkpt>
      <trkpt lat="43.57329" lon="5.62749">
        <ele>525.29</ele>
        <time>2019-03-30T09:50:01Z</time>
      </trkpt>
      <trkpt lat="43.57337" lon="5.62724">
        <ele>523.81</ele>
        <time>2019-03-30T09:50:04Z</time>
      </trkpt>
      <trkpt lat="43.57346" lon="5.62701">
        <ele>520.64</ele>
        <time>2019-03-30T09:50:33Z</time>
      </trkpt>
      <trkpt lat="43.57342" lon="5.62674">
        <ele>522.07</ele>
        <time>2019-03-30T09:50:39Z</time>
      </trkpt>
      <trkpt lat="43.57341" lon="5.62644">
        <ele>524.22</ele>
        <time>2019-03-30T09:50:45Z</time>
      </trkpt>
      <trkpt lat="43.57343" lon="5.62618">
        <ele>525.28</ele>
        <time>2019-03-30T09:50:50Z</time>
      </trkpt>
      <trkpt lat="43.57347" lon="5.6259">
        <ele>526.05</ele>
        <time>2019-03-30T09:50:56Z</time>
      </trkpt>
      <trkpt lat="43.57348" lon="5.62563">
        <ele>527.4</ele>
        <time>2019-03-30T09:51:10Z</time>
      </trkpt>
      <trkpt lat="43.57347" lon="5.62534">
        <ele>528.59</ele>
        <time>2019-03-30T09:51:16Z</time>
      </trkpt>
      <trkpt lat="43.57345" lon="5.62509">
        <ele>529.87</ele>
        <time>2019-03-30T09:51:20Z</time>
      </trkpt>
      <trkpt lat="43.5734" lon="5.62479">
        <ele>532.11</ele>
        <time>2019-03-30T09:51:25Z</time>
      </trkpt>
      <trkpt lat="43.57334" lon="5.62454">
        <ele>533.49</ele>
        <time>2019-03-30T09:51:30Z</time>
      </trkpt>
      <trkpt lat="43.57327" lon="5.6243">
        <ele>535.23</ele>
        <time>2019-03-30T09:51:36Z</time>
      </trkpt>
      <trkpt lat="43.57308" lon="5.62434">
        <ele>539.84</ele>
        <time>2019-03-30T09:51:52Z</time>
      </trkpt>
      <trkpt lat="43.57299" lon="5.62455">
        <ele>540.89</ele>
        <time>2019-03-30T09:51:59Z</time>
      </trkpt>
      <trkpt lat="43.57288" lon="5.62479">
        <ele>541.8</ele>
        <time>2019-03-30T09:52:05Z</time>
      </trkpt>
      <trkpt lat="43.57277" lon="5.62504">
        <ele>541.19</ele>
        <time>2019-03-30T09:52:10Z</time>
      </trkpt>
      <trkpt lat="43.57259" lon="5.62524">
        <ele>541.52</ele>
        <time>2019-03-30T09:52:14Z</time>
      </trkpt>
      <trkpt lat="43.57251" lon="5.62549">
        <ele>539.97</ele>
        <time>2019-03-30T09:52:18Z</time>
      </trkpt>
      <trkpt lat="43.57237" lon="5.6257">
        <ele>536</ele>
        <time>2019-03-30T09:52:23Z</time>
      </trkpt>
      <trkpt lat="43.57219" lon="5.62582">
        <ele>534.15</ele>
        <time>2019-03-30T09:52:26Z</time>
      </trkpt>
      <trkpt lat="43.572" lon="5.62594">
        <ele>533.41</ele>
        <time>2019-03-30T09:52:29Z</time>
      </trkpt>
      <trkpt lat="43.5718" lon="5.62597">
        <ele>532.23</ele>
        <time>2019-03-30T09:52:32Z</time>
      </trkpt>
      <trkpt lat="43.57161" lon="5.62603">
        <ele>531.24</ele>
        <time>2019-03-30T09:52:35Z</time>
      </trkpt>
      <trkpt lat="43.57139" lon="5.62612">
        <ele>530.81</ele>
        <time>2019-03-30T09:52:39Z</time>
      </trkpt>
      <trkpt lat="43.57118" lon="5.62604">
        <ele>531.13</ele>
        <time>2019-03-30T09:52:43Z</time>
      </trkpt>
      <trkpt lat="43.571" lon="5.62594">
        <ele>531.8</ele>
        <time>2019-03-30T09:52:48Z</time>
      </trkpt>
      <trkpt lat="43.57085" lon="5.62575">
        <ele>532.78</ele>
        <time>2019-03-30T09:52:53Z</time>
      </trkpt>
      <trkpt lat="43.5707" lon="5.62558">
        <ele>534.8</ele>
        <time>2019-03-30T09:53:01Z</time>
      </trkpt>
      <trkpt lat="43.57055" lon="5.62542">
        <ele>535.56</ele>
        <time>2019-03-30T09:53:08Z</time>
      </trkpt>
      <trkpt lat="43.57039" lon="5.62527">
        <ele>535.15</ele>
        <time>2019-03-30T09:53:17Z</time>
      </trkpt>
      <trkpt lat="43.57025" lon="5.62511">
        <ele>534.59</ele>
        <time>2019-03-30T09:53:26Z</time>
      </trkpt>
      <trkpt lat="43.57009" lon="5.62499">
        <ele>533.06</ele>
        <time>2019-03-30T09:53:34Z</time>
      </trkpt>
      <trkpt lat="43.56993" lon="5.62487">
        <ele>532.25</ele>
        <time>2019-03-30T09:53:43Z</time>
      </trkpt>
      <trkpt lat="43.56975" lon="5.62478">
        <ele>531.08</ele>
        <time>2019-03-30T09:53:52Z</time>
      </trkpt>
      <trkpt lat="43.56957" lon="5.62469">
        <ele>529.83</ele>
        <time>2019-03-30T09:54:02Z</time>
      </trkpt>
      <trkpt lat="43.56939" lon="5.62467">
        <ele>528.57</ele>
        <time>2019-03-30T09:54:10Z</time>
      </trkpt>
      <trkpt lat="43.56927" lon="5.62486">
        <ele>527.33</ele>
        <time>2019-03-30T09:54:21Z</time>
      </trkpt>
      <trkpt lat="43.56919" lon="5.62508">
        <ele>527.22</ele>
        <time>2019-03-30T09:54:29Z</time>
      </trkpt>
      <trkpt lat="43.56909" lon="5.62531">
        <ele>526.34</ele>
        <time>2019-03-30T09:54:36Z</time>
      </trkpt>
      <trkpt lat="43.56902" lon="5.62554">
        <ele>526.71</ele>
        <time>2019-03-30T09:54:43Z</time>
      </trkpt>
      <trkpt lat="43.569" lon="5.62579">
        <ele>527.18</ele>
        <time>2019-03-30T09:54:49Z</time>
      </trkpt>
      <trkpt lat="43.56901" lon="5.62605">
        <ele>526.86</ele>
        <time>2019-03-30T09:54:56Z</time>
      </trkpt>
      <trkpt lat="43.56904" lon="5.62631">
        <ele>526.1</ele>
        <time>2019-03-30T09:55:03Z</time>
      </trkpt>
      <trkpt lat="43.56906" lon="5.62659">
        <ele>526.27</ele>
        <time>2019-03-30T09:55:11Z</time>
      </trkpt>
      <trkpt lat="43.56908" lon="5.62685">
        <ele>526.7</ele>
        <time>2019-03-30T09:55:19Z</time>
      </trkpt>
      <trkpt lat="43.56909" lon="5.6271">
        <ele>527.92</ele>
        <time>2019-03-30T09:55:27Z</time>
      </trkpt>
      <trkpt lat="43.56909" lon="5.62737">
        <ele>529.79</ele>
        <time>2019-03-30T09:55:36Z</time>
      </trkpt>
      <trkpt lat="43.56907" lon="5.62763">
        <ele>531.4</ele>
        <time>2019-03-30T09:55:45Z</time>
      </trkpt>
      <trkpt lat="43.56903" lon="5.62789">
        <ele>534.14</ele>
        <time>2019-03-30T09:55:55Z</time>
      </trkpt>
      <trkpt lat="43.56901" lon="5.62814">
        <ele>535.62</ele>
        <time>2019-03-30T09:56:05Z</time>
      </trkpt>
      <trkpt lat="43.56898" lon="5.62839">
        <ele>537.04</ele>
        <time>2019-03-30T09:56:15Z</time>
      </trkpt>
      <trkpt lat="43.56892" lon="5.62865">
        <ele>539.33</ele>
        <time>2019-03-30T09:56:26Z</time>
      </trkpt>
      <trkpt lat="43.56888" lon="5.62891">
        <ele>542.34</ele>
        <time>2019-03-30T09:56:37Z</time>
      </trkpt>
      <trkpt lat="43.56885" lon="5.62916">
        <ele>542.87</ele>
        <time>2019-03-30T09:56:47Z</time>
      </trkpt>
      <trkpt lat="43.56884" lon="5.62942">
        <ele>544.97</ele>
        <time>2019-03-30T09:56:57Z</time>
      </trkpt>
      <trkpt lat="43.56882" lon="5.62968">
        <ele>544.05</ele>
        <time>2019-03-30T09:57:07Z</time>
      </trkpt>
      <trkpt lat="43.56879" lon="5.62994">
        <ele>544.35</ele>
        <time>2019-03-30T09:57:18Z</time>
      </trkpt>
      <trkpt lat="43.56874" lon="5.6302">
        <ele>545.18</ele>
        <time>2019-03-30T09:57:30Z</time>
      </trkpt>
      <trkpt lat="43.5687" lon="5.63047">
        <ele>551.13</ele>
        <time>2019-03-30T09:57:41Z</time>
      </trkpt>
      <trkpt lat="43.56864" lon="5.63071">
        <ele>553.23</ele>
        <time>2019-03-30T09:57:51Z</time>
      </trkpt>
      <trkpt lat="43.56857" lon="5.63094">
        <ele>557.57</ele>
        <time>2019-03-30T09:58:01Z</time>
      </trkpt>
      <trkpt lat="43.56849" lon="5.63117">
        <ele>559.34</ele>
        <time>2019-03-30T09:58:12Z</time>
      </trkpt>
      <trkpt lat="43.5684" lon="5.6314">
        <ele>560.64</ele>
        <time>2019-03-30T09:58:22Z</time>
      </trkpt>
      <trkpt lat="43.56833" lon="5.63164">
        <ele>561.3</ele>
        <time>2019-03-30T09:58:32Z</time>
      </trkpt>
      <trkpt lat="43.56828" lon="5.63188">
        <ele>562.61</ele>
        <time>2019-03-30T09:58:42Z</time>
      </trkpt>
      <trkpt lat="43.56823" lon="5.63213">
        <ele>563.88</ele>
        <time>2019-03-30T09:58:52Z</time>
      </trkpt>
      <trkpt lat="43.56815" lon="5.63238">
        <ele>565.85</ele>
        <time>2019-03-30T09:59:02Z</time>
      </trkpt>
      <trkpt lat="43.56805" lon="5.6326">
        <ele>567.71</ele>
        <time>2019-03-30T09:59:15Z</time>
      </trkpt>
      <trkpt lat="43.56795" lon="5.63281">
        <ele>568.72</ele>
        <time>2019-03-30T09:59:25Z</time>
      </trkpt>
      <trkpt lat="43.56788" lon="5.63307">
        <ele>570.28</ele>
        <time>2019-03-30T09:59:36Z</time>
      </trkpt>
      <trkpt lat="43.56782" lon="5.63331">
        <ele>571.92</ele>
        <time>2019-03-30T09:59:47Z</time>
      </trkpt>
      <trkpt lat="43.56778" lon="5.63358">
        <ele>574.12</ele>
        <time>2019-03-30T09:59:58Z</time>
      </trkpt>
      <trkpt lat="43.56777" lon="5.63384">
        <ele>575.81</ele>
        <time>2019-03-30T10:00:08Z</time>
      </trkpt>
      <trkpt lat="43.56775" lon="5.6341">
        <ele>577.24</ele>
        <time>2019-03-30T10:00:17Z</time>
      </trkpt>
      <trkpt lat="43.56769" lon="5.63434">
        <ele>578.05</ele>
        <time>2019-03-30T10:00:26Z</time>
      </trkpt>
      <trkpt lat="43.5676" lon="5.63457">
        <ele>578.27</ele>
        <time>2019-03-30T10:00:34Z</time>
      </trkpt>
      <trkpt lat="43.56752" lon="5.63482">
        <ele>579.07</ele>
        <time>2019-03-30T10:00:42Z</time>
      </trkpt>
      <trkpt lat="43.56745" lon="5.63506">
        <ele>579.98</ele>
        <time>2019-03-30T10:00:49Z</time>
      </trkpt>
      <trkpt lat="43.56738" lon="5.63532">
        <ele>581.31</ele>
        <time>2019-03-30T10:00:56Z</time>
      </trkpt>
      <trkpt lat="43.56728" lon="5.63557">
        <ele>581.54</ele>
        <time>2019-03-30T10:01:03Z</time>
      </trkpt>
      <trkpt lat="43.56712" lon="5.63575">
        <ele>584.51</ele>
        <time>2019-03-30T10:01:11Z</time>
      </trkpt>
      <trkpt lat="43.56697" lon="5.63592">
        <ele>585.35</ele>
        <time>2019-03-30T10:01:19Z</time>
      </trkpt>
      <trkpt lat="43.56681" lon="5.63605">
        <ele>584.35</ele>
        <time>2019-03-30T10:02:58Z</time>
      </trkpt>
      <trkpt lat="43.56671" lon="5.63628">
        <ele>585.49</ele>
        <time>2019-03-30T10:03:09Z</time>
      </trkpt>
      <trkpt lat="43.56666" lon="5.63652">
        <ele>587.41</ele>
        <time>2019-03-30T10:03:18Z</time>
      </trkpt>
      <trkpt lat="43.5666" lon="5.63677">
        <ele>588.62</ele>
        <time>2019-03-30T10:03:27Z</time>
      </trkpt>
      <trkpt lat="43.56655" lon="5.63704">
        <ele>589.42</ele>
        <time>2019-03-30T10:03:36Z</time>
      </trkpt>
      <trkpt lat="43.56652" lon="5.63731">
        <ele>590.52</ele>
        <time>2019-03-30T10:03:45Z</time>
      </trkpt>
      <trkpt lat="43.5665" lon="5.63756">
        <ele>591.73</ele>
        <time>2019-03-30T10:03:53Z</time>
      </trkpt>
      <trkpt lat="43.56648" lon="5.63781">
        <ele>592.62</ele>
        <time>2019-03-30T10:04:01Z</time>
      </trkpt>
      <trkpt lat="43.56647" lon="5.63809">
        <ele>593.12</ele>
        <time>2019-03-30T10:04:09Z</time>
      </trkpt>
      <trkpt lat="43.56646" lon="5.63837">
        <ele>594.5</ele>
        <time>2019-03-30T10:04:17Z</time>
      </trkpt>
      <trkpt lat="43.56647" lon="5.63865">
        <ele>595.64</ele>
        <time>2019-03-30T10:04:25Z</time>
      </trkpt>
      <trkpt lat="43.56648" lon="5.6389">
        <ele>596.82</ele>
        <time>2019-03-30T10:04:32Z</time>
      </trkpt>
      <trkpt lat="43.56648" lon="5.63915">
        <ele>597.93</ele>
        <time>2019-03-30T10:04:39Z</time>
      </trkpt>
      <trkpt lat="43.56648" lon="5.63941">
        <ele>599</ele>
        <time>2019-03-30T10:04:46Z</time>
      </trkpt>
      <trkpt lat="43.56648" lon="5.63967">
        <ele>600.29</ele>
        <time>2019-03-30T10:04:53Z</time>
      </trkpt>
      <trkpt lat="43.56648" lon="5.63993">
        <ele>601.4</ele>
        <time>2019-03-30T10:05:00Z</time>
      </trkpt>
      <trkpt lat="43.56649" lon="5.6402">
        <ele>602.42</ele>
        <time>2019-03-30T10:05:07Z</time>
      </trkpt>
      <trkpt lat="43.56651" lon="5.64048">
        <ele>602.92</ele>
        <time>2019-03-30T10:05:14Z</time>
      </trkpt>
      <trkpt lat="43.56654" lon="5.64073">
        <ele>603.31</ele>
        <time>2019-03-30T10:05:20Z</time>
      </trkpt>
      <trkpt lat="43.56656" lon="5.64101">
        <ele>603.72</ele>
        <time>2019-03-30T10:05:26Z</time>
      </trkpt>
      <trkpt lat="43.56664" lon="5.64129">
        <ele>604.12</ele>
        <time>2019-03-30T10:05:32Z</time>
      </trkpt>
      <trkpt lat="43.56674" lon="5.64152">
        <ele>604.82</ele>
        <time>2019-03-30T10:05:37Z</time>
      </trkpt>
      <trkpt lat="43.56683" lon="5.64178">
        <ele>603.88</ele>
        <time>2019-03-30T10:05:42Z</time>
      </trkpt>
      <trkpt lat="43.56689" lon="5.64202">
        <ele>603.67</ele>
        <time>2019-03-30T10:05:46Z</time>
      </trkpt>
      <trkpt lat="43.56696" lon="5.64226">
        <ele>603.43</ele>
        <time>2019-03-30T10:05:50Z</time>
      </trkpt>
      <trkpt lat="43.56702" lon="5.6425">
        <ele>603.13</ele>
        <time>2019-03-30T10:05:54Z</time>
      </trkpt>
      <trkpt lat="43.56711" lon="5.64277">
        <ele>603.33</ele>
        <time>2019-03-30T10:05:59Z</time>
      </trkpt>
      <trkpt lat="43.56721" lon="5.64303">
        <ele>603.69</ele>
        <time>2019-03-30T10:06:04Z</time>
      </trkpt>
      <trkpt lat="43.56723" lon="5.64328">
        <ele>603.09</ele>
        <time>2019-03-30T10:06:08Z</time>
      </trkpt>
      <trkpt lat="43.56722" lon="5.64354">
        <ele>602.04</ele>
        <time>2019-03-30T10:06:12Z</time>
      </trkpt>
      <trkpt lat="43.56722" lon="5.64384">
        <ele>601.47</ele>
        <time>2019-03-30T10:06:17Z</time>
      </trkpt>
      <trkpt lat="43.56721" lon="5.64412">
        <ele>601.18</ele>
        <time>2019-03-30T10:06:22Z</time>
      </trkpt>
      <trkpt lat="43.56721" lon="5.6444">
        <ele>602.51</ele>
        <time>2019-03-30T10:06:28Z</time>
      </trkpt>
      <trkpt lat="43.5672" lon="5.64467">
        <ele>602.75</ele>
        <time>2019-03-30T10:06:35Z</time>
      </trkpt>
      <trkpt lat="43.56716" lon="5.64492">
        <ele>600.21</ele>
        <time>2019-03-30T10:06:44Z</time>
      </trkpt>
      <trkpt lat="43.56736" lon="5.64499">
        <ele>596.6</ele>
        <time>2019-03-30T10:10:17Z</time>
      </trkpt>
      <trkpt lat="43.56756" lon="5.64505">
        <ele>597.49</ele>
        <time>2019-03-30T10:10:23Z</time>
      </trkpt>
      <trkpt lat="43.56777" lon="5.64513">
        <ele>598.13</ele>
        <time>2019-03-30T10:10:28Z</time>
      </trkpt>
      <trkpt lat="43.56797" lon="5.6452">
        <ele>597.56</ele>
        <time>2019-03-30T10:10:32Z</time>
      </trkpt>
      <trkpt lat="43.56816" lon="5.64529">
        <ele>597.41</ele>
        <time>2019-03-30T10:10:36Z</time>
      </trkpt>
      <trkpt lat="43.56821" lon="5.64555">
        <ele>597.74</ele>
        <time>2019-03-30T10:10:42Z</time>
      </trkpt>
      <trkpt lat="43.56816" lon="5.64586">
        <ele>598.54</ele>
        <time>2019-03-30T10:10:47Z</time>
      </trkpt>
      <trkpt lat="43.5681" lon="5.64615">
        <ele>598.35</ele>
        <time>2019-03-30T10:10:51Z</time>
      </trkpt>
      <trkpt lat="43.56807" lon="5.64643">
        <ele>598.9</ele>
        <time>2019-03-30T10:10:55Z</time>
      </trkpt>
      <trkpt lat="43.56803" lon="5.64671">
        <ele>599.52</ele>
        <time>2019-03-30T10:10:59Z</time>
      </trkpt>
      <trkpt lat="43.56798" lon="5.64698">
        <ele>599.42</ele>
        <time>2019-03-30T10:11:03Z</time>
      </trkpt>
      <trkpt lat="43.56794" lon="5.64722">
        <ele>599.72</ele>
        <time>2019-03-30T10:11:07Z</time>
      </trkpt>
      <trkpt lat="43.56789" lon="5.64747">
        <ele>600.42</ele>
        <time>2019-03-30T10:11:11Z</time>
      </trkpt>
      <trkpt lat="43.56785" lon="5.64772">
        <ele>600.84</ele>
        <time>2019-03-30T10:11:15Z</time>
      </trkpt>
      <trkpt lat="43.5678" lon="5.64797">
        <ele>601.32</ele>
        <time>2019-03-30T10:11:19Z</time>
      </trkpt>
      <trkpt lat="43.56773" lon="5.64824">
        <ele>601.63</ele>
        <time>2019-03-30T10:11:24Z</time>
      </trkpt>
      <trkpt lat="43.56768" lon="5.64849">
        <ele>602.42</ele>
        <time>2019-03-30T10:11:29Z</time>
      </trkpt>
      <trkpt lat="43.56764" lon="5.64874">
        <ele>603.2</ele>
        <time>2019-03-30T10:11:34Z</time>
      </trkpt>
      <trkpt lat="43.56759" lon="5.64903">
        <ele>603.75</ele>
        <time>2019-03-30T10:11:40Z</time>
      </trkpt>
      <trkpt lat="43.56754" lon="5.64931">
        <ele>603.85</ele>
        <time>2019-03-30T10:11:46Z</time>
      </trkpt>
      <trkpt lat="43.56749" lon="5.64955">
        <ele>603.73</ele>
        <time>2019-03-30T10:11:51Z</time>
      </trkpt>
      <trkpt lat="43.56745" lon="5.6498">
        <ele>603.57</ele>
        <time>2019-03-30T10:11:56Z</time>
      </trkpt>
      <trkpt lat="43.5674" lon="5.65006">
        <ele>602.97</ele>
        <time>2019-03-30T10:12:01Z</time>
      </trkpt>
      <trkpt lat="43.56735" lon="5.65034">
        <ele>602.17</ele>
        <time>2019-03-30T10:12:06Z</time>
      </trkpt>
      <trkpt lat="43.5673" lon="5.65059">
        <ele>601.48</ele>
        <time>2019-03-30T10:12:10Z</time>
      </trkpt>
      <trkpt lat="43.56726" lon="5.65085">
        <ele>600.23</ele>
        <time>2019-03-30T10:12:14Z</time>
      </trkpt>
      <trkpt lat="43.56721" lon="5.65111">
        <ele>599</ele>
        <time>2019-03-30T10:12:18Z</time>
      </trkpt>
      <trkpt lat="43.56717" lon="5.65137">
        <ele>598.57</ele>
        <time>2019-03-30T10:12:22Z</time>
      </trkpt>
      <trkpt lat="43.56713" lon="5.65164">
        <ele>597.84</ele>
        <time>2019-03-30T10:12:26Z</time>
      </trkpt>
      <trkpt lat="43.56708" lon="5.65193">
        <ele>596.72</ele>
        <time>2019-03-30T10:12:30Z</time>
      </trkpt>
      <trkpt lat="43.56698" lon="5.65219">
        <ele>595.6</ele>
        <time>2019-03-30T10:12:34Z</time>
      </trkpt>
      <trkpt lat="43.56687" lon="5.65244">
        <ele>594.79</ele>
        <time>2019-03-30T10:12:38Z</time>
      </trkpt>
      <trkpt lat="43.56675" lon="5.65266">
        <ele>593.72</ele>
        <time>2019-03-30T10:12:42Z</time>
      </trkpt>
      <trkpt lat="43.56658" lon="5.65283">
        <ele>592.32</ele>
        <time>2019-03-30T10:12:46Z</time>
      </trkpt>
      <trkpt lat="43.56642" lon="5.65298">
        <ele>591.13</ele>
        <time>2019-03-30T10:12:50Z</time>
      </trkpt>
      <trkpt lat="43.56626" lon="5.65313">
        <ele>590.41</ele>
        <time>2019-03-30T10:12:54Z</time>
      </trkpt>
      <trkpt lat="43.56609" lon="5.65328">
        <ele>589.58</ele>
        <time>2019-03-30T10:12:58Z</time>
      </trkpt>
      <trkpt lat="43.56591" lon="5.65343">
        <ele>588.44</ele>
        <time>2019-03-30T10:13:02Z</time>
      </trkpt>
      <trkpt lat="43.56572" lon="5.65358">
        <ele>586.79</ele>
        <time>2019-03-30T10:13:06Z</time>
      </trkpt>
      <trkpt lat="43.56556" lon="5.6537">
        <ele>584.8</ele>
        <time>2019-03-30T10:13:09Z</time>
      </trkpt>
      <trkpt lat="43.5654" lon="5.65382">
        <ele>582.8</ele>
        <time>2019-03-30T10:13:12Z</time>
      </trkpt>
      <trkpt lat="43.56519" lon="5.65398">
        <ele>581.62</ele>
        <time>2019-03-30T10:13:16Z</time>
      </trkpt>
      <trkpt lat="43.56499" lon="5.65416">
        <ele>579.29</ele>
        <time>2019-03-30T10:13:20Z</time>
      </trkpt>
      <trkpt lat="43.56481" lon="5.65434">
        <ele>576.75</ele>
        <time>2019-03-30T10:13:23Z</time>
      </trkpt>
      <trkpt lat="43.5646" lon="5.65451">
        <ele>575.31</ele>
        <time>2019-03-30T10:13:26Z</time>
      </trkpt>
      <trkpt lat="43.56441" lon="5.65463">
        <ele>574.75</ele>
        <time>2019-03-30T10:13:29Z</time>
      </trkpt>
      <trkpt lat="43.56422" lon="5.65472">
        <ele>575.99</ele>
        <time>2019-03-30T10:13:33Z</time>
      </trkpt>
      <trkpt lat="43.56407" lon="5.65486">
        <ele>577.81</ele>
        <time>2019-03-30T10:13:38Z</time>
      </trkpt>
      <trkpt lat="43.56393" lon="5.65502">
        <ele>578.86</ele>
        <time>2019-03-30T10:13:43Z</time>
      </trkpt>
      <trkpt lat="43.56374" lon="5.65519">
        <ele>578.6</ele>
        <time>2019-03-30T10:13:48Z</time>
      </trkpt>
      <trkpt lat="43.56358" lon="5.65534">
        <ele>577.98</ele>
        <time>2019-03-30T10:13:51Z</time>
      </trkpt>
      <trkpt lat="43.56345" lon="5.65554">
        <ele>579.44</ele>
        <time>2019-03-30T10:13:55Z</time>
      </trkpt>
      <trkpt lat="43.56342" lon="5.65579">
        <ele>579.75</ele>
        <time>2019-03-30T10:14:01Z</time>
      </trkpt>
      <trkpt lat="43.56347" lon="5.65605">
        <ele>578.76</ele>
        <time>2019-03-30T10:14:06Z</time>
      </trkpt>
      <trkpt lat="43.56351" lon="5.6563">
        <ele>577.51</ele>
        <time>2019-03-30T10:14:10Z</time>
      </trkpt>
      <trkpt lat="43.56353" lon="5.65659">
        <ele>576.87</ele>
        <time>2019-03-30T10:14:14Z</time>
      </trkpt>
      <trkpt lat="43.56353" lon="5.65686">
        <ele>576.16</ele>
        <time>2019-03-30T10:14:18Z</time>
      </trkpt>
      <trkpt lat="43.56348" lon="5.65713">
        <ele>576.34</ele>
        <time>2019-03-30T10:14:22Z</time>
      </trkpt>
      <trkpt lat="43.5634" lon="5.65741">
        <ele>576.72</ele>
        <time>2019-03-30T10:14:26Z</time>
      </trkpt>
      <trkpt lat="43.56331" lon="5.65768">
        <ele>577.15</ele>
        <time>2019-03-30T10:14:30Z</time>
      </trkpt>
      <trkpt lat="43.56321" lon="5.65793">
        <ele>576.62</ele>
        <time>2019-03-30T10:14:34Z</time>
      </trkpt>
      <trkpt lat="43.5631" lon="5.65816">
        <ele>577.57</ele>
        <time>2019-03-30T10:14:38Z</time>
      </trkpt>
      <trkpt lat="43.56307" lon="5.65841">
        <ele>578.18</ele>
        <time>2019-03-30T10:14:42Z</time>
      </trkpt>
      <trkpt lat="43.56304" lon="5.6587">
        <ele>578.71</ele>
        <time>2019-03-30T10:14:47Z</time>
      </trkpt>
      <trkpt lat="43.56296" lon="5.65896">
        <ele>578.57</ele>
        <time>2019-03-30T10:14:52Z</time>
      </trkpt>
      <trkpt lat="43.5629" lon="5.65921">
        <ele>578.46</ele>
        <time>2019-03-30T10:14:57Z</time>
      </trkpt>
      <trkpt lat="43.56287" lon="5.65947">
        <ele>576.92</ele>
        <time>2019-03-30T10:15:01Z</time>
      </trkpt>
      <trkpt lat="43.56284" lon="5.6598">
        <ele>575.14</ele>
        <time>2019-03-30T10:15:04Z</time>
      </trkpt>
      <trkpt lat="43.56282" lon="5.66013">
        <ele>575.34</ele>
        <time>2019-03-30T10:15:07Z</time>
      </trkpt>
      <trkpt lat="43.56279" lon="5.66044">
        <ele>575.9</ele>
        <time>2019-03-30T10:15:11Z</time>
      </trkpt>
      <trkpt lat="43.56272" lon="5.66072">
        <ele>576.39</ele>
        <time>2019-03-30T10:15:16Z</time>
      </trkpt>
      <trkpt lat="43.5626" lon="5.66096">
        <ele>576.9</ele>
        <time>2019-03-30T10:15:21Z</time>
      </trkpt>
      <trkpt lat="43.56248" lon="5.66118">
        <ele>577.07</ele>
        <time>2019-03-30T10:15:26Z</time>
      </trkpt>
      <trkpt lat="43.56237" lon="5.66142">
        <ele>577.28</ele>
        <time>2019-03-30T10:15:31Z</time>
      </trkpt>
      <trkpt lat="43.56224" lon="5.66164">
        <ele>576.93</ele>
        <time>2019-03-30T10:15:36Z</time>
      </trkpt>
      <trkpt lat="43.56205" lon="5.66174">
        <ele>577.34</ele>
        <time>2019-03-30T10:15:42Z</time>
      </trkpt>
      <trkpt lat="43.56186" lon="5.66175">
        <ele>577.78</ele>
        <time>2019-03-30T10:15:46Z</time>
      </trkpt>
      <trkpt lat="43.56171" lon="5.66192">
        <ele>582.57</ele>
        <time>2019-03-30T10:15:55Z</time>
      </trkpt>
      <trkpt lat="43.56175" lon="5.66217">
        <ele>582.37</ele>
        <time>2019-03-30T10:16:02Z</time>
      </trkpt>
      <trkpt lat="43.56185" lon="5.6624">
        <ele>583.18</ele>
        <time>2019-03-30T10:16:09Z</time>
      </trkpt>
      <trkpt lat="43.56194" lon="5.66268">
        <ele>582.05</ele>
        <time>2019-03-30T10:16:14Z</time>
      </trkpt>
      <trkpt lat="43.56198" lon="5.66295">
        <ele>581.12</ele>
        <time>2019-03-30T10:16:18Z</time>
      </trkpt>
      <trkpt lat="43.56212" lon="5.66318">
        <ele>579.84</ele>
        <time>2019-03-30T10:16:23Z</time>
      </trkpt>
      <trkpt lat="43.56231" lon="5.66333">
        <ele>579.07</ele>
        <time>2019-03-30T10:16:28Z</time>
      </trkpt>
      <trkpt lat="43.56249" lon="5.6635">
        <ele>578.72</ele>
        <time>2019-03-30T10:16:33Z</time>
      </trkpt>
      <trkpt lat="43.56257" lon="5.66379">
        <ele>578.07</ele>
        <time>2019-03-30T10:16:38Z</time>
      </trkpt>
      <trkpt lat="43.56256" lon="5.66403">
        <ele>577.49</ele>
        <time>2019-03-30T10:16:42Z</time>
      </trkpt>
      <trkpt lat="43.56254" lon="5.66428">
        <ele>576.78</ele>
        <time>2019-03-30T10:16:46Z</time>
      </trkpt>
      <trkpt lat="43.56257" lon="5.66455">
        <ele>576.98</ele>
        <time>2019-03-30T10:16:51Z</time>
      </trkpt>
      <trkpt lat="43.56256" lon="5.6648">
        <ele>576.95</ele>
        <time>2019-03-30T10:16:55Z</time>
      </trkpt>
      <trkpt lat="43.56253" lon="5.66508">
        <ele>574.99</ele>
        <time>2019-03-30T10:16:59Z</time>
      </trkpt>
      <trkpt lat="43.56246" lon="5.66539">
        <ele>571.43</ele>
        <time>2019-03-30T10:17:03Z</time>
      </trkpt>
      <trkpt lat="43.56237" lon="5.66565">
        <ele>568.57</ele>
        <time>2019-03-30T10:17:06Z</time>
      </trkpt>
      <trkpt lat="43.56229" lon="5.66595">
        <ele>566.63</ele>
        <time>2019-03-30T10:17:09Z</time>
      </trkpt>
      <trkpt lat="43.56225" lon="5.66628">
        <ele>563.77</ele>
        <time>2019-03-30T10:17:12Z</time>
      </trkpt>
      <trkpt lat="43.56225" lon="5.66662">
        <ele>561.31</ele>
        <time>2019-03-30T10:17:15Z</time>
      </trkpt>
      <trkpt lat="43.56224" lon="5.66696">
        <ele>559.5</ele>
        <time>2019-03-30T10:17:18Z</time>
      </trkpt>
      <trkpt lat="43.56221" lon="5.66729">
        <ele>557.82</ele>
        <time>2019-03-30T10:17:21Z</time>
      </trkpt>
      <trkpt lat="43.56217" lon="5.66761">
        <ele>556.49</ele>
        <time>2019-03-30T10:17:24Z</time>
      </trkpt>
      <trkpt lat="43.56211" lon="5.66791">
        <ele>555.17</ele>
        <time>2019-03-30T10:17:27Z</time>
      </trkpt>
      <trkpt lat="43.56206" lon="5.6682">
        <ele>554.01</ele>
        <time>2019-03-30T10:17:30Z</time>
      </trkpt>
      <trkpt lat="43.56202" lon="5.66847">
        <ele>553.49</ele>
        <time>2019-03-30T10:17:33Z</time>
      </trkpt>
      <trkpt lat="43.56198" lon="5.66874">
        <ele>552.52</ele>
        <time>2019-03-30T10:17:36Z</time>
      </trkpt>
      <trkpt lat="43.56194" lon="5.66901">
        <ele>551.25</ele>
        <time>2019-03-30T10:17:39Z</time>
      </trkpt>
      <trkpt lat="43.56193" lon="5.66927">
        <ele>549.96</ele>
        <time>2019-03-30T10:17:42Z</time>
      </trkpt>
      <trkpt lat="43.56199" lon="5.6695">
        <ele>549.64</ele>
        <time>2019-03-30T10:17:52Z</time>
      </trkpt>
      <trkpt lat="43.56215" lon="5.66967">
        <ele>550.8</ele>
        <time>2019-03-30T10:18:00Z</time>
      </trkpt>
      <trkpt lat="43.56226" lon="5.66988">
        <ele>550.33</ele>
        <time>2019-03-30T10:18:10Z</time>
      </trkpt>
      <trkpt lat="43.56234" lon="5.67013">
        <ele>549.15</ele>
        <time>2019-03-30T10:18:41Z</time>
      </trkpt>
      <trkpt lat="43.56235" lon="5.67041">
        <ele>548.12</ele>
        <time>2019-03-30T10:18:46Z</time>
      </trkpt>
      <trkpt lat="43.56238" lon="5.67068">
        <ele>546.38</ele>
        <time>2019-03-30T10:18:50Z</time>
      </trkpt>
      <trkpt lat="43.56241" lon="5.67093">
        <ele>544.95</ele>
        <time>2019-03-30T10:18:53Z</time>
      </trkpt>
      <trkpt lat="43.56243" lon="5.6712">
        <ele>543.24</ele>
        <time>2019-03-30T10:18:56Z</time>
      </trkpt>
      <trkpt lat="43.56246" lon="5.67147">
        <ele>541.83</ele>
        <time>2019-03-30T10:18:59Z</time>
      </trkpt>
      <trkpt lat="43.56247" lon="5.67175">
        <ele>539.81</ele>
        <time>2019-03-30T10:19:02Z</time>
      </trkpt>
      <trkpt lat="43.56248" lon="5.67205">
        <ele>538.23</ele>
        <time>2019-03-30T10:19:05Z</time>
      </trkpt>
      <trkpt lat="43.56249" lon="5.67234">
        <ele>537.09</ele>
        <time>2019-03-30T10:19:08Z</time>
      </trkpt>
      <trkpt lat="43.5625" lon="5.67264">
        <ele>535.78</ele>
        <time>2019-03-30T10:19:11Z</time>
      </trkpt>
      <trkpt lat="43.56253" lon="5.67291">
        <ele>534.74</ele>
        <time>2019-03-30T10:19:14Z</time>
      </trkpt>
      <trkpt lat="43.56261" lon="5.67317">
        <ele>534.27</ele>
        <time>2019-03-30T10:19:17Z</time>
      </trkpt>
      <trkpt lat="43.56279" lon="5.67332">
        <ele>533.04</ele>
        <time>2019-03-30T10:19:20Z</time>
      </trkpt>
      <trkpt lat="43.56299" lon="5.67338">
        <ele>532.9</ele>
        <time>2019-03-30T10:19:23Z</time>
      </trkpt>
      <trkpt lat="43.56316" lon="5.67348">
        <ele>532.18</ele>
        <time>2019-03-30T10:19:26Z</time>
      </trkpt>
      <trkpt lat="43.56325" lon="5.67372">
        <ele>531.32</ele>
        <time>2019-03-30T10:19:29Z</time>
      </trkpt>
      <trkpt lat="43.5633" lon="5.67397">
        <ele>529.57</ele>
        <time>2019-03-30T10:19:32Z</time>
      </trkpt>
      <trkpt lat="43.56329" lon="5.67424">
        <ele>527.46</ele>
        <time>2019-03-30T10:19:35Z</time>
      </trkpt>
      <trkpt lat="43.56323" lon="5.67451">
        <ele>525.68</ele>
        <time>2019-03-30T10:19:38Z</time>
      </trkpt>
      <trkpt lat="43.56314" lon="5.67478">
        <ele>524.02</ele>
        <time>2019-03-30T10:19:41Z</time>
      </trkpt>
      <trkpt lat="43.56304" lon="5.67504">
        <ele>522.03</ele>
        <time>2019-03-30T10:19:44Z</time>
      </trkpt>
      <trkpt lat="43.56295" lon="5.67528">
        <ele>520.3</ele>
        <time>2019-03-30T10:19:47Z</time>
      </trkpt>
      <trkpt lat="43.56285" lon="5.67551">
        <ele>518.89</ele>
        <time>2019-03-30T10:19:50Z</time>
      </trkpt>
      <trkpt lat="43.56278" lon="5.67576">
        <ele>517.58</ele>
        <time>2019-03-30T10:19:53Z</time>
      </trkpt>
      <trkpt lat="43.56274" lon="5.67604">
        <ele>516.16</ele>
        <time>2019-03-30T10:19:56Z</time>
      </trkpt>
      <trkpt lat="43.56277" lon="5.67631">
        <ele>515.52</ele>
        <time>2019-03-30T10:19:59Z</time>
      </trkpt>
      <trkpt lat="43.5629" lon="5.67658">
        <ele>514.21</ele>
        <time>2019-03-30T10:20:03Z</time>
      </trkpt>
      <trkpt lat="43.5631" lon="5.67675">
        <ele>513.53</ele>
        <time>2019-03-30T10:20:07Z</time>
      </trkpt>
      <trkpt lat="43.56323" lon="5.677">
        <ele>512.29</ele>
        <time>2019-03-30T10:20:11Z</time>
      </trkpt>
      <trkpt lat="43.56321" lon="5.67731">
        <ele>510.46</ele>
        <time>2019-03-30T10:20:15Z</time>
      </trkpt>
      <trkpt lat="43.56307" lon="5.6775">
        <ele>509.64</ele>
        <time>2019-03-30T10:20:18Z</time>
      </trkpt>
      <trkpt lat="43.56291" lon="5.67767">
        <ele>509.35</ele>
        <time>2019-03-30T10:20:21Z</time>
      </trkpt>
      <trkpt lat="43.56281" lon="5.6779">
        <ele>508.74</ele>
        <time>2019-03-30T10:20:24Z</time>
      </trkpt>
      <trkpt lat="43.56277" lon="5.67815">
        <ele>507.46</ele>
        <time>2019-03-30T10:20:27Z</time>
      </trkpt>
      <trkpt lat="43.56276" lon="5.67847">
        <ele>505.72</ele>
        <time>2019-03-30T10:20:31Z</time>
      </trkpt>
      <trkpt lat="43.56258" lon="5.67862">
        <ele>504.18</ele>
        <time>2019-03-30T10:20:35Z</time>
      </trkpt>
      <trkpt lat="43.56241" lon="5.67872">
        <ele>503.91</ele>
        <time>2019-03-30T10:20:39Z</time>
      </trkpt>
      <trkpt lat="43.56256" lon="5.67886">
        <ele>512.08</ele>
        <time>2019-03-30T10:20:54Z</time>
      </trkpt>
      <trkpt lat="43.56271" lon="5.67901">
        <ele>515.2</ele>
        <time>2019-03-30T10:21:03Z</time>
      </trkpt>
      <trkpt lat="43.56272" lon="5.67927">
        <ele>517.45</ele>
        <time>2019-03-30T10:21:13Z</time>
      </trkpt>
      <trkpt lat="43.56269" lon="5.67953">
        <ele>517.76</ele>
        <time>2019-03-30T10:21:20Z</time>
      </trkpt>
      <trkpt lat="43.56268" lon="5.67981">
        <ele>516.93</ele>
        <time>2019-03-30T10:21:27Z</time>
      </trkpt>
      <trkpt lat="43.56267" lon="5.68009">
        <ele>515.99</ele>
        <time>2019-03-30T10:21:34Z</time>
      </trkpt>
      <trkpt lat="43.56261" lon="5.68036">
        <ele>515.84</ele>
        <time>2019-03-30T10:21:40Z</time>
      </trkpt>
      <trkpt lat="43.56256" lon="5.68062">
        <ele>516.27</ele>
        <time>2019-03-30T10:21:46Z</time>
      </trkpt>
      <trkpt lat="43.56248" lon="5.68088">
        <ele>515.8</ele>
        <time>2019-03-30T10:21:51Z</time>
      </trkpt>
      <trkpt lat="43.56233" lon="5.68106">
        <ele>515.36</ele>
        <time>2019-03-30T10:21:56Z</time>
      </trkpt>
      <trkpt lat="43.56215" lon="5.6812">
        <ele>515.49</ele>
        <time>2019-03-30T10:22:01Z</time>
      </trkpt>
      <trkpt lat="43.562" lon="5.68141">
        <ele>515.29</ele>
        <time>2019-03-30T10:22:06Z</time>
      </trkpt>
      <trkpt lat="43.56187" lon="5.68159">
        <ele>514.69</ele>
        <time>2019-03-30T10:22:10Z</time>
      </trkpt>
      <trkpt lat="43.56171" lon="5.68176">
        <ele>514.37</ele>
        <time>2019-03-30T10:22:14Z</time>
      </trkpt>
      <trkpt lat="43.56156" lon="5.68195">
        <ele>514.43</ele>
        <time>2019-03-30T10:22:18Z</time>
      </trkpt>
      <trkpt lat="43.56148" lon="5.68222">
        <ele>513.82</ele>
        <time>2019-03-30T10:22:22Z</time>
      </trkpt>
      <trkpt lat="43.56139" lon="5.68245">
        <ele>512.91</ele>
        <time>2019-03-30T10:22:25Z</time>
      </trkpt>
      <trkpt lat="43.56123" lon="5.68263">
        <ele>512.62</ele>
        <time>2019-03-30T10:22:28Z</time>
      </trkpt>
      <trkpt lat="43.56106" lon="5.68277">
        <ele>513.66</ele>
        <time>2019-03-30T10:22:32Z</time>
      </trkpt>
      <trkpt lat="43.56095" lon="5.683">
        <ele>515.02</ele>
        <time>2019-03-30T10:22:37Z</time>
      </trkpt>
      <trkpt lat="43.56088" lon="5.68324">
        <ele>514.47</ele>
        <time>2019-03-30T10:22:41Z</time>
      </trkpt>
      <trkpt lat="43.56082" lon="5.68347">
        <ele>513.7</ele>
        <time>2019-03-30T10:22:45Z</time>
      </trkpt>
      <trkpt lat="43.56078" lon="5.68372">
        <ele>513.06</ele>
        <time>2019-03-30T10:22:49Z</time>
      </trkpt>
      <trkpt lat="43.56079" lon="5.68398">
        <ele>512.4</ele>
        <time>2019-03-30T10:22:53Z</time>
      </trkpt>
      <trkpt lat="43.56086" lon="5.68423">
        <ele>512.07</ele>
        <time>2019-03-30T10:22:57Z</time>
      </trkpt>
      <trkpt lat="43.56093" lon="5.6845">
        <ele>511.51</ele>
        <time>2019-03-30T10:23:01Z</time>
      </trkpt>
      <trkpt lat="43.56105" lon="5.68476">
        <ele>511.24</ele>
        <time>2019-03-30T10:23:05Z</time>
      </trkpt>
      <trkpt lat="43.56121" lon="5.68499">
        <ele>511.25</ele>
        <time>2019-03-30T10:23:09Z</time>
      </trkpt>
      <trkpt lat="43.5614" lon="5.68516">
        <ele>510.96</ele>
        <time>2019-03-30T10:23:13Z</time>
      </trkpt>
      <trkpt lat="43.56159" lon="5.68535">
        <ele>510.89</ele>
        <time>2019-03-30T10:23:17Z</time>
      </trkpt>
      <trkpt lat="43.56168" lon="5.68559">
        <ele>510.28</ele>
        <time>2019-03-30T10:23:21Z</time>
      </trkpt>
      <trkpt lat="43.56172" lon="5.68589">
        <ele>509.31</ele>
        <time>2019-03-30T10:23:25Z</time>
      </trkpt>
      <trkpt lat="43.56176" lon="5.6862">
        <ele>507.05</ele>
        <time>2019-03-30T10:23:29Z</time>
      </trkpt>
      <trkpt lat="43.56174" lon="5.68648">
        <ele>504.63</ele>
        <time>2019-03-30T10:23:32Z</time>
      </trkpt>
      <trkpt lat="43.56173" lon="5.68675">
        <ele>503.11</ele>
        <time>2019-03-30T10:23:35Z</time>
      </trkpt>
      <trkpt lat="43.56182" lon="5.687">
        <ele>502.83</ele>
        <time>2019-03-30T10:23:38Z</time>
      </trkpt>
      <trkpt lat="43.56193" lon="5.68721">
        <ele>502.2</ele>
        <time>2019-03-30T10:23:41Z</time>
      </trkpt>
      <trkpt lat="43.56211" lon="5.68741">
        <ele>502.17</ele>
        <time>2019-03-30T10:23:45Z</time>
      </trkpt>
      <trkpt lat="43.5623" lon="5.68752">
        <ele>499.94</ele>
        <time>2019-03-30T10:23:48Z</time>
      </trkpt>
      <trkpt lat="43.56251" lon="5.68769">
        <ele>497.2</ele>
        <time>2019-03-30T10:23:51Z</time>
      </trkpt>
      <trkpt lat="43.5627" lon="5.6879">
        <ele>495.34</ele>
        <time>2019-03-30T10:23:54Z</time>
      </trkpt>
      <trkpt lat="43.5628" lon="5.68814">
        <ele>493.9</ele>
        <time>2019-03-30T10:23:57Z</time>
      </trkpt>
      <trkpt lat="43.5628" lon="5.68839">
        <ele>493.75</ele>
        <time>2019-03-30T10:24:00Z</time>
      </trkpt>
      <trkpt lat="43.56282" lon="5.68869">
        <ele>494.73</ele>
        <time>2019-03-30T10:24:04Z</time>
      </trkpt>
      <trkpt lat="43.56278" lon="5.68897">
        <ele>496.04</ele>
        <time>2019-03-30T10:24:08Z</time>
      </trkpt>
      <trkpt lat="43.56268" lon="5.68924">
        <ele>497.78</ele>
        <time>2019-03-30T10:24:12Z</time>
      </trkpt>
      <trkpt lat="43.56251" lon="5.68931">
        <ele>499.66</ele>
        <time>2019-03-30T10:24:16Z</time>
      </trkpt>
      <trkpt lat="43.56234" lon="5.6892">
        <ele>500.34</ele>
        <time>2019-03-30T10:24:20Z</time>
      </trkpt>
      <trkpt lat="43.56214" lon="5.68909">
        <ele>500.69</ele>
        <time>2019-03-30T10:24:25Z</time>
      </trkpt>
      <trkpt lat="43.56197" lon="5.68899">
        <ele>500.45</ele>
        <time>2019-03-30T10:24:29Z</time>
      </trkpt>
      <trkpt lat="43.56181" lon="5.68885">
        <ele>500.37</ele>
        <time>2019-03-30T10:24:33Z</time>
      </trkpt>
      <trkpt lat="43.56166" lon="5.6887">
        <ele>500.63</ele>
        <time>2019-03-30T10:24:37Z</time>
      </trkpt>
      <trkpt lat="43.5615" lon="5.68858">
        <ele>501.42</ele>
        <time>2019-03-30T10:24:41Z</time>
      </trkpt>
      <trkpt lat="43.5613" lon="5.68849">
        <ele>501.04</ele>
        <time>2019-03-30T10:24:46Z</time>
      </trkpt>
      <trkpt lat="43.56109" lon="5.68848">
        <ele>500.9</ele>
        <time>2019-03-30T10:24:51Z</time>
      </trkpt>
      <trkpt lat="43.5609" lon="5.68843">
        <ele>500.37</ele>
        <time>2019-03-30T10:24:56Z</time>
      </trkpt>
      <trkpt lat="43.56071" lon="5.68835">
        <ele>500.34</ele>
        <time>2019-03-30T10:25:02Z</time>
      </trkpt>
      <trkpt lat="43.56054" lon="5.68827">
        <ele>501.28</ele>
        <time>2019-03-30T10:25:10Z</time>
      </trkpt>
      <trkpt lat="43.56036" lon="5.68839">
        <ele>498.31</ele>
        <time>2019-03-30T10:25:19Z</time>
      </trkpt>
      <trkpt lat="43.56018" lon="5.6885">
        <ele>495.69</ele>
        <time>2019-03-30T10:25:24Z</time>
      </trkpt>
      <trkpt lat="43.56" lon="5.68857">
        <ele>492.56</ele>
        <time>2019-03-30T10:25:28Z</time>
      </trkpt>
      <trkpt lat="43.55983" lon="5.68872">
        <ele>490.03</ele>
        <time>2019-03-30T10:25:33Z</time>
      </trkpt>
      <trkpt lat="43.55964" lon="5.68879">
        <ele>487.34</ele>
        <time>2019-03-30T10:25:39Z</time>
      </trkpt>
      <trkpt lat="43.55945" lon="5.6887">
        <ele>484.47</ele>
        <time>2019-03-30T10:25:43Z</time>
      </trkpt>
      <trkpt lat="43.55926" lon="5.68875">
        <ele>482.03</ele>
        <time>2019-03-30T10:25:46Z</time>
      </trkpt>
      <trkpt lat="43.55913" lon="5.68896">
        <ele>480.63</ele>
        <time>2019-03-30T10:25:51Z</time>
      </trkpt>
      <trkpt lat="43.55925" lon="5.68921">
        <ele>479.58</ele>
        <time>2019-03-30T10:25:55Z</time>
      </trkpt>
      <trkpt lat="43.55931" lon="5.68945">
        <ele>478.45</ele>
        <time>2019-03-30T10:25:58Z</time>
      </trkpt>
      <trkpt lat="43.55932" lon="5.68975">
        <ele>478.1</ele>
        <time>2019-03-30T10:26:02Z</time>
      </trkpt>
      <trkpt lat="43.55938" lon="5.69006">
        <ele>477.58</ele>
        <time>2019-03-30T10:26:06Z</time>
      </trkpt>
      <trkpt lat="43.5594" lon="5.69036">
        <ele>477.15</ele>
        <time>2019-03-30T10:26:10Z</time>
      </trkpt>
      <trkpt lat="43.55944" lon="5.69068">
        <ele>476.14</ele>
        <time>2019-03-30T10:26:14Z</time>
      </trkpt>
      <trkpt lat="43.55953" lon="5.69093">
        <ele>475.5</ele>
        <time>2019-03-30T10:26:17Z</time>
      </trkpt>
      <trkpt lat="43.55961" lon="5.69118">
        <ele>474.91</ele>
        <time>2019-03-30T10:26:20Z</time>
      </trkpt>
      <trkpt lat="43.5597" lon="5.69144">
        <ele>474.56</ele>
        <time>2019-03-30T10:26:23Z</time>
      </trkpt>
      <trkpt lat="43.55981" lon="5.69169">
        <ele>473.89</ele>
        <time>2019-03-30T10:26:26Z</time>
      </trkpt>
      <trkpt lat="43.55994" lon="5.69194">
        <ele>473.39</ele>
        <time>2019-03-30T10:26:29Z</time>
      </trkpt>
      <trkpt lat="43.56007" lon="5.69219">
        <ele>472.44</ele>
        <time>2019-03-30T10:26:32Z</time>
      </trkpt>
      <trkpt lat="43.56018" lon="5.69245">
        <ele>472.6</ele>
        <time>2019-03-30T10:26:35Z</time>
      </trkpt>
      <trkpt lat="43.56033" lon="5.6927">
        <ele>473.67</ele>
        <time>2019-03-30T10:26:39Z</time>
      </trkpt>
      <trkpt lat="43.56046" lon="5.69292">
        <ele>474.89</ele>
        <time>2019-03-30T10:26:43Z</time>
      </trkpt>
      <trkpt lat="43.56053" lon="5.69316">
        <ele>475.98</ele>
        <time>2019-03-30T10:26:48Z</time>
      </trkpt>
      <trkpt lat="43.56043" lon="5.69338">
        <ele>477.48</ele>
        <time>2019-03-30T10:26:54Z</time>
      </trkpt>
      <trkpt lat="43.56028" lon="5.69353">
        <ele>477.96</ele>
        <time>2019-03-30T10:27:01Z</time>
      </trkpt>
      <trkpt lat="43.56015" lon="5.69371">
        <ele>478.53</ele>
        <time>2019-03-30T10:27:08Z</time>
      </trkpt>
      <trkpt lat="43.56001" lon="5.69387">
        <ele>479.87</ele>
        <time>2019-03-30T10:27:15Z</time>
      </trkpt>
      <trkpt lat="43.5599" lon="5.69407">
        <ele>481.3</ele>
        <time>2019-03-30T10:27:22Z</time>
      </trkpt>
      <trkpt lat="43.5598" lon="5.69429">
        <ele>482.32</ele>
        <time>2019-03-30T10:27:29Z</time>
      </trkpt>
      <trkpt lat="43.55972" lon="5.69452">
        <ele>482.74</ele>
        <time>2019-03-30T10:27:36Z</time>
      </trkpt>
      <trkpt lat="43.55968" lon="5.69477">
        <ele>483.05</ele>
        <time>2019-03-30T10:27:43Z</time>
      </trkpt>
      <trkpt lat="43.55966" lon="5.69502">
        <ele>483.4</ele>
        <time>2019-03-30T10:27:49Z</time>
      </trkpt>
      <trkpt lat="43.55963" lon="5.69528">
        <ele>486.52</ele>
        <time>2019-03-30T10:27:59Z</time>
      </trkpt>
      <trkpt lat="43.55967" lon="5.69555">
        <ele>486.06</ele>
        <time>2019-03-30T10:28:07Z</time>
      </trkpt>
      <trkpt lat="43.55964" lon="5.69583">
        <ele>486.34</ele>
        <time>2019-03-30T10:28:13Z</time>
      </trkpt>
      <trkpt lat="43.55962" lon="5.69613">
        <ele>486.63</ele>
        <time>2019-03-30T10:28:18Z</time>
      </trkpt>
      <trkpt lat="43.5596" lon="5.6964">
        <ele>487.78</ele>
        <time>2019-03-30T10:28:23Z</time>
      </trkpt>
      <trkpt lat="43.55963" lon="5.69667">
        <ele>487.57</ele>
        <time>2019-03-30T10:28:28Z</time>
      </trkpt>
      <trkpt lat="43.55973" lon="5.6969">
        <ele>486.87</ele>
        <time>2019-03-30T10:28:33Z</time>
      </trkpt>
      <trkpt lat="43.55976" lon="5.69718">
        <ele>486.85</ele>
        <time>2019-03-30T10:28:38Z</time>
      </trkpt>
      <trkpt lat="43.55972" lon="5.69743">
        <ele>487.78</ele>
        <time>2019-03-30T10:28:44Z</time>
      </trkpt>
      <trkpt lat="43.55967" lon="5.69769">
        <ele>489.37</ele>
        <time>2019-03-30T10:28:50Z</time>
      </trkpt>
      <trkpt lat="43.55966" lon="5.69797">
        <ele>490.71</ele>
        <time>2019-03-30T10:28:56Z</time>
      </trkpt>
      <trkpt lat="43.5597" lon="5.69826">
        <ele>490.53</ele>
        <time>2019-03-30T10:29:02Z</time>
      </trkpt>
      <trkpt lat="43.55971" lon="5.69854">
        <ele>491.32</ele>
        <time>2019-03-30T10:29:08Z</time>
      </trkpt>
      <trkpt lat="43.55974" lon="5.69883">
        <ele>491.37</ele>
        <time>2019-03-30T10:29:14Z</time>
      </trkpt>
      <trkpt lat="43.55974" lon="5.69909">
        <ele>491.33</ele>
        <time>2019-03-30T10:29:19Z</time>
      </trkpt>
      <trkpt lat="43.55973" lon="5.69935">
        <ele>491.68</ele>
        <time>2019-03-30T10:29:24Z</time>
      </trkpt>
      <trkpt lat="43.55971" lon="5.69962">
        <ele>492.67</ele>
        <time>2019-03-30T10:29:29Z</time>
      </trkpt>
      <trkpt lat="43.5597" lon="5.6999">
        <ele>492.96</ele>
        <time>2019-03-30T10:29:34Z</time>
      </trkpt>
      <trkpt lat="43.55967" lon="5.70018">
        <ele>494.23</ele>
        <time>2019-03-30T10:29:39Z</time>
      </trkpt>
      <trkpt lat="43.55961" lon="5.70047">
        <ele>494.95</ele>
        <time>2019-03-30T10:29:45Z</time>
      </trkpt>
      <trkpt lat="43.55951" lon="5.70073">
        <ele>495.24</ele>
        <time>2019-03-30T10:29:50Z</time>
      </trkpt>
      <trkpt lat="43.5594" lon="5.70095">
        <ele>495.25</ele>
        <time>2019-03-30T10:29:55Z</time>
      </trkpt>
      <trkpt lat="43.55931" lon="5.70119">
        <ele>494.67</ele>
        <time>2019-03-30T10:30:00Z</time>
      </trkpt>
      <trkpt lat="43.55919" lon="5.70139">
        <ele>493.99</ele>
        <time>2019-03-30T10:30:06Z</time>
      </trkpt>
      <trkpt lat="43.5592" lon="5.70164">
        <ele>493.16</ele>
        <time>2019-03-30T10:34:17Z</time>
      </trkpt>
      <trkpt lat="43.55913" lon="5.70188">
        <ele>492</ele>
        <time>2019-03-30T10:34:24Z</time>
      </trkpt>
      <trkpt lat="43.55904" lon="5.70213">
        <ele>491.51</ele>
        <time>2019-03-30T10:34:32Z</time>
      </trkpt>
      <trkpt lat="43.55895" lon="5.70239">
        <ele>490.4</ele>
        <time>2019-03-30T10:34:39Z</time>
      </trkpt>
      <trkpt lat="43.55887" lon="5.70261">
        <ele>489.05</ele>
        <time>2019-03-30T10:34:43Z</time>
      </trkpt>
      <trkpt lat="43.55875" lon="5.70285">
        <ele>485.61</ele>
        <time>2019-03-30T10:34:48Z</time>
      </trkpt>
      <trkpt lat="43.55868" lon="5.70308">
        <ele>482.17</ele>
        <time>2019-03-30T10:34:54Z</time>
      </trkpt>
      <trkpt lat="43.5586" lon="5.70334">
        <ele>479.34</ele>
        <time>2019-03-30T10:35:00Z</time>
      </trkpt>
      <trkpt lat="43.5585" lon="5.70359">
        <ele>475.24</ele>
        <time>2019-03-30T10:35:05Z</time>
      </trkpt>
      <trkpt lat="43.55844" lon="5.70385">
        <ele>471.22</ele>
        <time>2019-03-30T10:35:10Z</time>
      </trkpt>
      <trkpt lat="43.55848" lon="5.70413">
        <ele>468.5</ele>
        <time>2019-03-30T10:35:16Z</time>
      </trkpt>
      <trkpt lat="43.55864" lon="5.70427">
        <ele>467.4</ele>
        <time>2019-03-30T10:35:21Z</time>
      </trkpt>
      <trkpt lat="43.55884" lon="5.70439">
        <ele>466.11</ele>
        <time>2019-03-30T10:35:27Z</time>
      </trkpt>
      <trkpt lat="43.55879" lon="5.70463">
        <ele>464.11</ele>
        <time>2019-03-30T10:35:35Z</time>
      </trkpt>
      <trkpt lat="43.55871" lon="5.70488">
        <ele>460.12</ele>
        <time>2019-03-30T10:35:40Z</time>
      </trkpt>
      <trkpt lat="43.55857" lon="5.70511">
        <ele>456.8</ele>
        <time>2019-03-30T10:35:45Z</time>
      </trkpt>
      <trkpt lat="43.55839" lon="5.70529">
        <ele>454.67</ele>
        <time>2019-03-30T10:35:49Z</time>
      </trkpt>
      <trkpt lat="43.55826" lon="5.70547">
        <ele>451.96</ele>
        <time>2019-03-30T10:35:52Z</time>
      </trkpt>
      <trkpt lat="43.55807" lon="5.70562">
        <ele>449.87</ele>
        <time>2019-03-30T10:35:56Z</time>
      </trkpt>
      <trkpt lat="43.55788" lon="5.70583">
        <ele>446.84</ele>
        <time>2019-03-30T10:36:00Z</time>
      </trkpt>
      <trkpt lat="43.55772" lon="5.70599">
        <ele>445.04</ele>
        <time>2019-03-30T10:36:03Z</time>
      </trkpt>
      <trkpt lat="43.55751" lon="5.70599">
        <ele>443.63</ele>
        <time>2019-03-30T10:36:07Z</time>
      </trkpt>
      <trkpt lat="43.55734" lon="5.7059">
        <ele>442.35</ele>
        <time>2019-03-30T10:36:10Z</time>
      </trkpt>
      <trkpt lat="43.55717" lon="5.70601">
        <ele>441.46</ele>
        <time>2019-03-30T10:36:13Z</time>
      </trkpt>
      <trkpt lat="43.557" lon="5.70616">
        <ele>440.16</ele>
        <time>2019-03-30T10:36:16Z</time>
      </trkpt>
      <trkpt lat="43.55685" lon="5.70634">
        <ele>438.93</ele>
        <time>2019-03-30T10:36:19Z</time>
      </trkpt>
      <trkpt lat="43.55668" lon="5.70656">
        <ele>439.02</ele>
        <time>2019-03-30T10:36:23Z</time>
      </trkpt>
      <trkpt lat="43.55651" lon="5.7067">
        <ele>438.38</ele>
        <time>2019-03-30T10:36:27Z</time>
      </trkpt>
      <trkpt lat="43.55632" lon="5.70671">
        <ele>438.18</ele>
        <time>2019-03-30T10:36:33Z</time>
      </trkpt>
      <trkpt lat="43.55625" lon="5.70646">
        <ele>439.27</ele>
        <time>2019-03-30T10:36:41Z</time>
      </trkpt>
      <trkpt lat="43.55626" lon="5.70619">
        <ele>444.49</ele>
        <time>2019-03-30T10:36:51Z</time>
      </trkpt>
      <trkpt lat="43.55625" lon="5.70594">
        <ele>448.22</ele>
        <time>2019-03-30T10:36:59Z</time>
      </trkpt>
      <trkpt lat="43.55609" lon="5.7058">
        <ele>451.77</ele>
        <time>2019-03-30T10:37:11Z</time>
      </trkpt>
      <trkpt lat="43.5559" lon="5.70584">
        <ele>448.08</ele>
        <time>2019-03-30T10:37:21Z</time>
      </trkpt>
      <trkpt lat="43.55572" lon="5.70595">
        <ele>446.2</ele>
        <time>2019-03-30T10:37:31Z</time>
      </trkpt>
      <trkpt lat="43.55554" lon="5.70601">
        <ele>445.75</ele>
        <time>2019-03-30T10:37:42Z</time>
      </trkpt>
      <trkpt lat="43.55536" lon="5.70607">
        <ele>445.49</ele>
        <time>2019-03-30T10:37:51Z</time>
      </trkpt>
      <trkpt lat="43.55518" lon="5.70614">
        <ele>445.03</ele>
        <time>2019-03-30T10:37:58Z</time>
      </trkpt>
      <trkpt lat="43.55497" lon="5.70622">
        <ele>443.57</ele>
        <time>2019-03-30T10:38:04Z</time>
      </trkpt>
      <trkpt lat="43.5548" lon="5.70628">
        <ele>442.86</ele>
        <time>2019-03-30T10:38:08Z</time>
      </trkpt>
      <trkpt lat="43.55459" lon="5.70638">
        <ele>442.58</ele>
        <time>2019-03-30T10:38:13Z</time>
      </trkpt>
      <trkpt lat="43.55439" lon="5.70649">
        <ele>442.43</ele>
        <time>2019-03-30T10:38:18Z</time>
      </trkpt>
      <trkpt lat="43.55422" lon="5.70656">
        <ele>442.6</ele>
        <time>2019-03-30T10:38:22Z</time>
      </trkpt>
      <trkpt lat="43.55403" lon="5.70662">
        <ele>441.62</ele>
        <time>2019-03-30T10:38:26Z</time>
      </trkpt>
      <trkpt lat="43.55384" lon="5.70667">
        <ele>441.37</ele>
        <time>2019-03-30T10:38:30Z</time>
      </trkpt>
      <trkpt lat="43.55365" lon="5.7067">
        <ele>441.15</ele>
        <time>2019-03-30T10:38:34Z</time>
      </trkpt>
      <trkpt lat="43.55346" lon="5.7067">
        <ele>440.69</ele>
        <time>2019-03-30T10:38:38Z</time>
      </trkpt>
      <trkpt lat="43.55325" lon="5.7067">
        <ele>440.55</ele>
        <time>2019-03-30T10:38:42Z</time>
      </trkpt>
      <trkpt lat="43.55303" lon="5.70667">
        <ele>440.56</ele>
        <time>2019-03-30T10:38:46Z</time>
      </trkpt>
      <trkpt lat="43.55282" lon="5.70665">
        <ele>440.52</ele>
        <time>2019-03-30T10:38:50Z</time>
      </trkpt>
      <trkpt lat="43.5526" lon="5.70661">
        <ele>439.68</ele>
        <time>2019-03-30T10:38:54Z</time>
      </trkpt>
      <trkpt lat="43.55238" lon="5.70658">
        <ele>439.63</ele>
        <time>2019-03-30T10:38:58Z</time>
      </trkpt>
      <trkpt lat="43.55214" lon="5.70655">
        <ele>439</ele>
        <time>2019-03-30T10:39:02Z</time>
      </trkpt>
      <trkpt lat="43.55196" lon="5.70651">
        <ele>438.06</ele>
        <time>2019-03-30T10:39:05Z</time>
      </trkpt>
      <trkpt lat="43.55177" lon="5.70647">
        <ele>437.51</ele>
        <time>2019-03-30T10:39:08Z</time>
      </trkpt>
      <trkpt lat="43.55157" lon="5.70641">
        <ele>436.8</ele>
        <time>2019-03-30T10:39:11Z</time>
      </trkpt>
      <trkpt lat="43.55138" lon="5.70636">
        <ele>436.41</ele>
        <time>2019-03-30T10:39:14Z</time>
      </trkpt>
      <trkpt lat="43.5512" lon="5.70632">
        <ele>436.9</ele>
        <time>2019-03-30T10:39:17Z</time>
      </trkpt>
      <trkpt lat="43.55097" lon="5.70629">
        <ele>437.89</ele>
        <time>2019-03-30T10:39:21Z</time>
      </trkpt>
      <trkpt lat="43.55075" lon="5.70623">
        <ele>438.9</ele>
        <time>2019-03-30T10:39:25Z</time>
      </trkpt>
      <trkpt lat="43.55054" lon="5.70617">
        <ele>439.78</ele>
        <time>2019-03-30T10:39:29Z</time>
      </trkpt>
      <trkpt lat="43.55034" lon="5.70614">
        <ele>440.47</ele>
        <time>2019-03-30T10:39:33Z</time>
      </trkpt>
      <trkpt lat="43.55012" lon="5.70612">
        <ele>440.9</ele>
        <time>2019-03-30T10:39:37Z</time>
      </trkpt>
      <trkpt lat="43.54988" lon="5.7061">
        <ele>440.65</ele>
        <time>2019-03-30T10:39:41Z</time>
      </trkpt>
      <trkpt lat="43.5497" lon="5.70608">
        <ele>441.05</ele>
        <time>2019-03-30T10:39:44Z</time>
      </trkpt>
      <trkpt lat="43.54951" lon="5.70606">
        <ele>441.42</ele>
        <time>2019-03-30T10:39:47Z</time>
      </trkpt>
      <trkpt lat="43.54928" lon="5.70603">
        <ele>440.8</ele>
        <time>2019-03-30T10:39:51Z</time>
      </trkpt>
      <trkpt lat="43.54905" lon="5.70599">
        <ele>441.07</ele>
        <time>2019-03-30T10:39:55Z</time>
      </trkpt>
      <trkpt lat="43.54883" lon="5.70594">
        <ele>440.32</ele>
        <time>2019-03-30T10:39:59Z</time>
      </trkpt>
      <trkpt lat="43.54863" lon="5.70597">
        <ele>438.95</ele>
        <time>2019-03-30T10:40:02Z</time>
      </trkpt>
      <trkpt lat="43.54845" lon="5.70599">
        <ele>439.05</ele>
        <time>2019-03-30T10:40:05Z</time>
      </trkpt>
      <trkpt lat="43.54827" lon="5.70599">
        <ele>439.21</ele>
        <time>2019-03-30T10:40:08Z</time>
      </trkpt>
      <trkpt lat="43.54803" lon="5.70596">
        <ele>439.48</ele>
        <time>2019-03-30T10:40:12Z</time>
      </trkpt>
      <trkpt lat="43.54785" lon="5.70592">
        <ele>440.39</ele>
        <time>2019-03-30T10:40:15Z</time>
      </trkpt>
      <trkpt lat="43.54763" lon="5.70587">
        <ele>441.14</ele>
        <time>2019-03-30T10:40:19Z</time>
      </trkpt>
      <trkpt lat="43.54742" lon="5.70583">
        <ele>441.67</ele>
        <time>2019-03-30T10:40:23Z</time>
      </trkpt>
      <trkpt lat="43.54721" lon="5.70579">
        <ele>442.44</ele>
        <time>2019-03-30T10:40:27Z</time>
      </trkpt>
      <trkpt lat="43.54702" lon="5.70575">
        <ele>443.07</ele>
        <time>2019-03-30T10:40:31Z</time>
      </trkpt>
      <trkpt lat="43.54681" lon="5.70566">
        <ele>442.97</ele>
        <time>2019-03-30T10:40:36Z</time>
      </trkpt>
      <trkpt lat="43.54662" lon="5.70559">
        <ele>442.44</ele>
        <time>2019-03-30T10:40:43Z</time>
      </trkpt>
      <trkpt lat="43.54644" lon="5.70566">
        <ele>440.72</ele>
        <time>2019-03-30T10:40:49Z</time>
      </trkpt>
      <trkpt lat="43.54628" lon="5.70586">
        <ele>438.62</ele>
        <time>2019-03-30T10:40:55Z</time>
      </trkpt>
      <trkpt lat="43.54616" lon="5.70606">
        <ele>437.3</ele>
        <time>2019-03-30T10:40:59Z</time>
      </trkpt>
      <trkpt lat="43.54602" lon="5.70626">
        <ele>436.37</ele>
        <time>2019-03-30T10:41:03Z</time>
      </trkpt>
      <trkpt lat="43.54589" lon="5.70646">
        <ele>436.34</ele>
        <time>2019-03-30T10:41:07Z</time>
      </trkpt>
      <trkpt lat="43.54577" lon="5.70668">
        <ele>436.75</ele>
        <time>2019-03-30T10:41:11Z</time>
      </trkpt>
      <trkpt lat="43.5456" lon="5.70689">
        <ele>436.74</ele>
        <time>2019-03-30T10:41:15Z</time>
      </trkpt>
      <trkpt lat="43.54544" lon="5.70711">
        <ele>436.73</ele>
        <time>2019-03-30T10:41:19Z</time>
      </trkpt>
      <trkpt lat="43.54528" lon="5.70733">
        <ele>437.28</ele>
        <time>2019-03-30T10:41:23Z</time>
      </trkpt>
      <trkpt lat="43.54514" lon="5.70752">
        <ele>437.82</ele>
        <time>2019-03-30T10:41:26Z</time>
      </trkpt>
      <trkpt lat="43.54498" lon="5.70773">
        <ele>438.1</ele>
        <time>2019-03-30T10:41:29Z</time>
      </trkpt>
      <trkpt lat="43.54482" lon="5.70797">
        <ele>439.19</ele>
        <time>2019-03-30T10:41:33Z</time>
      </trkpt>
      <trkpt lat="43.54466" lon="5.70821">
        <ele>439.46</ele>
        <time>2019-03-30T10:41:37Z</time>
      </trkpt>
      <trkpt lat="43.54455" lon="5.70845">
        <ele>438.09</ele>
        <time>2019-03-30T10:41:40Z</time>
      </trkpt>
      <trkpt lat="43.54445" lon="5.7087">
        <ele>435.59</ele>
        <time>2019-03-30T10:41:43Z</time>
      </trkpt>
      <trkpt lat="43.54435" lon="5.70892">
        <ele>433.8</ele>
        <time>2019-03-30T10:41:46Z</time>
      </trkpt>
      <trkpt lat="43.54425" lon="5.70913">
        <ele>432.98</ele>
        <time>2019-03-30T10:41:50Z</time>
      </trkpt>
      <trkpt lat="43.54414" lon="5.70936">
        <ele>431.41</ele>
        <time>2019-03-30T10:41:54Z</time>
      </trkpt>
      <trkpt lat="43.544" lon="5.7096">
        <ele>430.65</ele>
        <time>2019-03-30T10:41:59Z</time>
      </trkpt>
      <trkpt lat="43.54387" lon="5.70979">
        <ele>430.35</ele>
        <time>2019-03-30T10:42:03Z</time>
      </trkpt>
      <trkpt lat="43.54373" lon="5.70997">
        <ele>429.56</ele>
        <time>2019-03-30T10:42:07Z</time>
      </trkpt>
      <trkpt lat="43.54358" lon="5.71014">
        <ele>429.25</ele>
        <time>2019-03-30T10:42:11Z</time>
      </trkpt>
      <trkpt lat="43.54346" lon="5.71034">
        <ele>429.61</ele>
        <time>2019-03-30T10:42:15Z</time>
      </trkpt>
      <trkpt lat="43.54331" lon="5.71051">
        <ele>429.25</ele>
        <time>2019-03-30T10:42:19Z</time>
      </trkpt>
      <trkpt lat="43.54318" lon="5.7107">
        <ele>429.04</ele>
        <time>2019-03-30T10:42:23Z</time>
      </trkpt>
      <trkpt lat="43.54306" lon="5.71089">
        <ele>428.93</ele>
        <time>2019-03-30T10:42:27Z</time>
      </trkpt>
      <trkpt lat="43.54292" lon="5.71111">
        <ele>429.78</ele>
        <time>2019-03-30T10:42:32Z</time>
      </trkpt>
      <trkpt lat="43.5428" lon="5.71133">
        <ele>430.82</ele>
        <time>2019-03-30T10:42:37Z</time>
      </trkpt>
      <trkpt lat="43.54267" lon="5.71156">
        <ele>431.57</ele>
        <time>2019-03-30T10:42:42Z</time>
      </trkpt>
      <trkpt lat="43.54254" lon="5.71179">
        <ele>432.21</ele>
        <time>2019-03-30T10:42:47Z</time>
      </trkpt>
      <trkpt lat="43.54242" lon="5.71197">
        <ele>432.9</ele>
        <time>2019-03-30T10:42:51Z</time>
      </trkpt>
      <trkpt lat="43.54227" lon="5.7122">
        <ele>434.06</ele>
        <time>2019-03-30T10:42:56Z</time>
      </trkpt>
      <trkpt lat="43.54216" lon="5.7124">
        <ele>436.07</ele>
        <time>2019-03-30T10:43:01Z</time>
      </trkpt>
      <trkpt lat="43.54204" lon="5.71259">
        <ele>436.62</ele>
        <time>2019-03-30T10:43:07Z</time>
      </trkpt>
      <trkpt lat="43.54192" lon="5.7128">
        <ele>437.18</ele>
        <time>2019-03-30T10:43:14Z</time>
      </trkpt>
      <trkpt lat="43.5418" lon="5.71302">
        <ele>439.13</ele>
        <time>2019-03-30T10:43:22Z</time>
      </trkpt>
      <trkpt lat="43.54168" lon="5.71323">
        <ele>440.95</ele>
        <time>2019-03-30T10:43:30Z</time>
      </trkpt>
      <trkpt lat="43.54156" lon="5.71342">
        <ele>443.19</ele>
        <time>2019-03-30T10:43:38Z</time>
      </trkpt>
      <trkpt lat="43.54142" lon="5.71361">
        <ele>444.44</ele>
        <time>2019-03-30T10:43:46Z</time>
      </trkpt>
      <trkpt lat="43.5413" lon="5.71379">
        <ele>445.12</ele>
        <time>2019-03-30T10:43:53Z</time>
      </trkpt>
      <trkpt lat="43.54115" lon="5.71398">
        <ele>446.22</ele>
        <time>2019-03-30T10:44:01Z</time>
      </trkpt>
      <trkpt lat="43.541" lon="5.71413">
        <ele>447.3</ele>
        <time>2019-03-30T10:44:08Z</time>
      </trkpt>
      <trkpt lat="43.54086" lon="5.71429">
        <ele>448.55</ele>
        <time>2019-03-30T10:44:15Z</time>
      </trkpt>
      <trkpt lat="43.5407" lon="5.71446">
        <ele>449.24</ele>
        <time>2019-03-30T10:44:22Z</time>
      </trkpt>
      <trkpt lat="43.54055" lon="5.71462">
        <ele>449.54</ele>
        <time>2019-03-30T10:44:29Z</time>
      </trkpt>
      <trkpt lat="43.54039" lon="5.71479">
        <ele>449.67</ele>
        <time>2019-03-30T10:44:36Z</time>
      </trkpt>
      <trkpt lat="43.54024" lon="5.71495">
        <ele>449.59</ele>
        <time>2019-03-30T10:44:42Z</time>
      </trkpt>
      <trkpt lat="43.54008" lon="5.71513">
        <ele>449.76</ele>
        <time>2019-03-30T10:44:48Z</time>
      </trkpt>
      <trkpt lat="43.53992" lon="5.71526">
        <ele>450.51</ele>
        <time>2019-03-30T10:44:53Z</time>
      </trkpt>
      <trkpt lat="43.53975" lon="5.71536">
        <ele>451.44</ele>
        <time>2019-03-30T10:44:58Z</time>
      </trkpt>
      <trkpt lat="43.53957" lon="5.71541">
        <ele>452.22</ele>
        <time>2019-03-30T10:45:05Z</time>
      </trkpt>
      <trkpt lat="43.53938" lon="5.71545">
        <ele>450.97</ele>
        <time>2019-03-30T10:46:59Z</time>
      </trkpt>
      <trkpt lat="43.53916" lon="5.71549">
        <ele>449.25</ele>
        <time>2019-03-30T10:47:04Z</time>
      </trkpt>
      <trkpt lat="43.53892" lon="5.71553">
        <ele>447.34</ele>
        <time>2019-03-30T10:47:08Z</time>
      </trkpt>
      <trkpt lat="43.53873" lon="5.71556">
        <ele>446.41</ele>
        <time>2019-03-30T10:47:11Z</time>
      </trkpt>
      <trkpt lat="43.53851" lon="5.71558">
        <ele>443.92</ele>
        <time>2019-03-30T10:47:14Z</time>
      </trkpt>
      <trkpt lat="43.53829" lon="5.71561">
        <ele>441.82</ele>
        <time>2019-03-30T10:47:17Z</time>
      </trkpt>
      <trkpt lat="43.53805" lon="5.71565">
        <ele>439.99</ele>
        <time>2019-03-30T10:47:20Z</time>
      </trkpt>
      <trkpt lat="43.53782" lon="5.71569">
        <ele>438.65</ele>
        <time>2019-03-30T10:47:23Z</time>
      </trkpt>
      <trkpt lat="43.53758" lon="5.71573">
        <ele>436.64</ele>
        <time>2019-03-30T10:47:26Z</time>
      </trkpt>
      <trkpt lat="43.53737" lon="5.71578">
        <ele>434.27</ele>
        <time>2019-03-30T10:47:29Z</time>
      </trkpt>
      <trkpt lat="43.53719" lon="5.71568">
        <ele>430.83</ele>
        <time>2019-03-30T10:47:33Z</time>
      </trkpt>
      <trkpt lat="43.53719" lon="5.71543">
        <ele>428.28</ele>
        <time>2019-03-30T10:47:37Z</time>
      </trkpt>
      <trkpt lat="43.53732" lon="5.71516">
        <ele>426.4</ele>
        <time>2019-03-30T10:47:41Z</time>
      </trkpt>
      <trkpt lat="43.53746" lon="5.7149">
        <ele>424.95</ele>
        <time>2019-03-30T10:47:45Z</time>
      </trkpt>
      <trkpt lat="43.53753" lon="5.71459">
        <ele>423.92</ele>
        <time>2019-03-30T10:47:49Z</time>
      </trkpt>
      <trkpt lat="43.53738" lon="5.71433">
        <ele>422.55</ele>
        <time>2019-03-30T10:47:53Z</time>
      </trkpt>
      <trkpt lat="43.53722" lon="5.71414">
        <ele>421.43</ele>
        <time>2019-03-30T10:47:56Z</time>
      </trkpt>
      <trkpt lat="43.53707" lon="5.71391">
        <ele>420.6</ele>
        <time>2019-03-30T10:47:59Z</time>
      </trkpt>
      <trkpt lat="43.53694" lon="5.71367">
        <ele>420.01</ele>
        <time>2019-03-30T10:48:02Z</time>
      </trkpt>
      <trkpt lat="43.53679" lon="5.71343">
        <ele>419.38</ele>
        <time>2019-03-30T10:48:05Z</time>
      </trkpt>
      <trkpt lat="43.53666" lon="5.71321">
        <ele>418.99</ele>
        <time>2019-03-30T10:48:08Z</time>
      </trkpt>
      <trkpt lat="43.53653" lon="5.71299">
        <ele>418.42</ele>
        <time>2019-03-30T10:48:11Z</time>
      </trkpt>
      <trkpt lat="43.5364" lon="5.71278">
        <ele>417.8</ele>
        <time>2019-03-30T10:48:14Z</time>
      </trkpt>
      <trkpt lat="43.53627" lon="5.71256">
        <ele>417.12</ele>
        <time>2019-03-30T10:48:17Z</time>
      </trkpt>
      <trkpt lat="43.53614" lon="5.71234">
        <ele>416.89</ele>
        <time>2019-03-30T10:48:20Z</time>
      </trkpt>
      <trkpt lat="43.53601" lon="5.71214">
        <ele>416.69</ele>
        <time>2019-03-30T10:48:23Z</time>
      </trkpt>
      <trkpt lat="43.53589" lon="5.71196">
        <ele>416.49</ele>
        <time>2019-03-30T10:48:26Z</time>
      </trkpt>
      <trkpt lat="43.53575" lon="5.71177">
        <ele>416.09</ele>
        <time>2019-03-30T10:48:29Z</time>
      </trkpt>
      <trkpt lat="43.53562" lon="5.71156">
        <ele>416.34</ele>
        <time>2019-03-30T10:48:32Z</time>
      </trkpt>
      <trkpt lat="43.53551" lon="5.71134">
        <ele>416.56</ele>
        <time>2019-03-30T10:48:35Z</time>
      </trkpt>
      <trkpt lat="43.53542" lon="5.7111">
        <ele>416.27</ele>
        <time>2019-03-30T10:48:38Z</time>
      </trkpt>
      <trkpt lat="43.53535" lon="5.71086">
        <ele>416.44</ele>
        <time>2019-03-30T10:48:41Z</time>
      </trkpt>
      <trkpt lat="43.53527" lon="5.71062">
        <ele>416.63</ele>
        <time>2019-03-30T10:48:44Z</time>
      </trkpt>
      <trkpt lat="43.53518" lon="5.71039">
        <ele>416.67</ele>
        <time>2019-03-30T10:48:47Z</time>
      </trkpt>
      <trkpt lat="43.53509" lon="5.71016">
        <ele>416.82</ele>
        <time>2019-03-30T10:48:50Z</time>
      </trkpt>
      <trkpt lat="43.53498" lon="5.70988">
        <ele>417.53</ele>
        <time>2019-03-30T10:48:54Z</time>
      </trkpt>
      <trkpt lat="43.53489" lon="5.70965">
        <ele>417.96</ele>
        <time>2019-03-30T10:48:57Z</time>
      </trkpt>
      <trkpt lat="43.53481" lon="5.70942">
        <ele>418.24</ele>
        <time>2019-03-30T10:49:00Z</time>
      </trkpt>
      <trkpt lat="43.53473" lon="5.70917">
        <ele>418.23</ele>
        <time>2019-03-30T10:49:03Z</time>
      </trkpt>
      <trkpt lat="43.53466" lon="5.70892">
        <ele>418.6</ele>
        <time>2019-03-30T10:49:06Z</time>
      </trkpt>
      <trkpt lat="43.53456" lon="5.70861">
        <ele>418.57</ele>
        <time>2019-03-30T10:49:10Z</time>
      </trkpt>
      <trkpt lat="43.53447" lon="5.70837">
        <ele>418.27</ele>
        <time>2019-03-30T10:49:13Z</time>
      </trkpt>
      <trkpt lat="43.53438" lon="5.70813">
        <ele>418.15</ele>
        <time>2019-03-30T10:49:16Z</time>
      </trkpt>
      <trkpt lat="43.5343" lon="5.7079">
        <ele>418.41</ele>
        <time>2019-03-30T10:49:19Z</time>
      </trkpt>
      <trkpt lat="43.53421" lon="5.70768">
        <ele>418.96</ele>
        <time>2019-03-30T10:49:22Z</time>
      </trkpt>
      <trkpt lat="43.5341" lon="5.70741">
        <ele>419.43</ele>
        <time>2019-03-30T10:49:26Z</time>
      </trkpt>
      <trkpt lat="43.534" lon="5.70714">
        <ele>419.82</ele>
        <time>2019-03-30T10:49:30Z</time>
      </trkpt>
      <trkpt lat="43.53388" lon="5.70685">
        <ele>420.36</ele>
        <time>2019-03-30T10:49:34Z</time>
      </trkpt>
      <trkpt lat="43.53376" lon="5.70657">
        <ele>420.19</ele>
        <time>2019-03-30T10:49:38Z</time>
      </trkpt>
      <trkpt lat="43.53367" lon="5.70634">
        <ele>419.87</ele>
        <time>2019-03-30T10:49:41Z</time>
      </trkpt>
      <trkpt lat="43.53357" lon="5.70611">
        <ele>419.26</ele>
        <time>2019-03-30T10:49:44Z</time>
      </trkpt>
      <trkpt lat="43.53347" lon="5.70588">
        <ele>418.37</ele>
        <time>2019-03-30T10:49:47Z</time>
      </trkpt>
      <trkpt lat="43.53337" lon="5.70566">
        <ele>418.21</ele>
        <time>2019-03-30T10:49:50Z</time>
      </trkpt>
      <trkpt lat="43.53326" lon="5.70543">
        <ele>417.04</ele>
        <time>2019-03-30T10:49:53Z</time>
      </trkpt>
      <trkpt lat="43.53316" lon="5.70521">
        <ele>416.59</ele>
        <time>2019-03-30T10:49:56Z</time>
      </trkpt>
      <trkpt lat="43.53305" lon="5.70492">
        <ele>417.05</ele>
        <time>2019-03-30T10:50:00Z</time>
      </trkpt>
      <trkpt lat="43.53295" lon="5.70464">
        <ele>417.46</ele>
        <time>2019-03-30T10:50:04Z</time>
      </trkpt>
      <trkpt lat="43.53286" lon="5.7044">
        <ele>417.8</ele>
        <time>2019-03-30T10:50:08Z</time>
      </trkpt>
      <trkpt lat="43.53279" lon="5.70415">
        <ele>418</ele>
        <time>2019-03-30T10:50:12Z</time>
      </trkpt>
      <trkpt lat="43.53272" lon="5.70392">
        <ele>418.14</ele>
        <time>2019-03-30T10:50:16Z</time>
      </trkpt>
      <trkpt lat="43.53268" lon="5.70367">
        <ele>418.04</ele>
        <time>2019-03-30T10:50:20Z</time>
      </trkpt>
      <trkpt lat="43.53266" lon="5.70337">
        <ele>417.97</ele>
        <time>2019-03-30T10:50:24Z</time>
      </trkpt>
      <trkpt lat="43.53262" lon="5.70312">
        <ele>417</ele>
        <time>2019-03-30T10:50:27Z</time>
      </trkpt>
      <trkpt lat="43.53262" lon="5.70286">
        <ele>415.72</ele>
        <time>2019-03-30T10:50:30Z</time>
      </trkpt>
      <trkpt lat="43.5326" lon="5.70261">
        <ele>413.26</ele>
        <time>2019-03-30T10:50:33Z</time>
      </trkpt>
      <trkpt lat="43.53244" lon="5.70248">
        <ele>411.23</ele>
        <time>2019-03-30T10:50:36Z</time>
      </trkpt>
      <trkpt lat="43.53228" lon="5.70235">
        <ele>408.68</ele>
        <time>2019-03-30T10:50:39Z</time>
      </trkpt>
      <trkpt lat="43.53219" lon="5.70205">
        <ele>406.84</ele>
        <time>2019-03-30T10:50:43Z</time>
      </trkpt>
      <trkpt lat="43.53215" lon="5.7018">
        <ele>406.02</ele>
        <time>2019-03-30T10:50:46Z</time>
      </trkpt>
      <trkpt lat="43.5321" lon="5.70153">
        <ele>404.85</ele>
        <time>2019-03-30T10:50:49Z</time>
      </trkpt>
      <trkpt lat="43.53203" lon="5.70124">
        <ele>403.46</ele>
        <time>2019-03-30T10:50:52Z</time>
      </trkpt>
      <trkpt lat="43.53199" lon="5.70094">
        <ele>401.79</ele>
        <time>2019-03-30T10:50:55Z</time>
      </trkpt>
      <trkpt lat="43.53197" lon="5.70059">
        <ele>398.94</ele>
        <time>2019-03-30T10:50:58Z</time>
      </trkpt>
      <trkpt lat="43.53193" lon="5.70028">
        <ele>395.91</ele>
        <time>2019-03-30T10:51:01Z</time>
      </trkpt>
      <trkpt lat="43.53198" lon="5.7">
        <ele>393.54</ele>
        <time>2019-03-30T10:51:04Z</time>
      </trkpt>
      <trkpt lat="43.53209" lon="5.6998">
        <ele>391.34</ele>
        <time>2019-03-30T10:51:07Z</time>
      </trkpt>
      <trkpt lat="43.53218" lon="5.69956">
        <ele>389.49</ele>
        <time>2019-03-30T10:51:10Z</time>
      </trkpt>
      <trkpt lat="43.53214" lon="5.69929">
        <ele>387.69</ele>
        <time>2019-03-30T10:51:13Z</time>
      </trkpt>
      <trkpt lat="43.53196" lon="5.69919">
        <ele>385.46</ele>
        <time>2019-03-30T10:51:16Z</time>
      </trkpt>
      <trkpt lat="43.53178" lon="5.69905">
        <ele>383.32</ele>
        <time>2019-03-30T10:51:19Z</time>
      </trkpt>
      <trkpt lat="43.53161" lon="5.69887">
        <ele>381.96</ele>
        <time>2019-03-30T10:51:22Z</time>
      </trkpt>
      <trkpt lat="43.53147" lon="5.69866">
        <ele>379.92</ele>
        <time>2019-03-30T10:51:25Z</time>
      </trkpt>
      <trkpt lat="43.53138" lon="5.69839">
        <ele>378.25</ele>
        <time>2019-03-30T10:51:28Z</time>
      </trkpt>
      <trkpt lat="43.53139" lon="5.69812">
        <ele>376.47</ele>
        <time>2019-03-30T10:51:31Z</time>
      </trkpt>
      <trkpt lat="43.53149" lon="5.69789">
        <ele>375.01</ele>
        <time>2019-03-30T10:51:34Z</time>
      </trkpt>
      <trkpt lat="43.53162" lon="5.6977">
        <ele>373.65</ele>
        <time>2019-03-30T10:51:37Z</time>
      </trkpt>
      <trkpt lat="43.53148" lon="5.69749">
        <ele>370.97</ele>
        <time>2019-03-30T10:51:42Z</time>
      </trkpt>
      <trkpt lat="43.5313" lon="5.69744">
        <ele>369.49</ele>
        <time>2019-03-30T10:51:45Z</time>
      </trkpt>
      <trkpt lat="43.53111" lon="5.69735">
        <ele>367.99</ele>
        <time>2019-03-30T10:51:48Z</time>
      </trkpt>
      <trkpt lat="43.53093" lon="5.69723">
        <ele>366.21</ele>
        <time>2019-03-30T10:51:51Z</time>
      </trkpt>
      <trkpt lat="43.53081" lon="5.69704">
        <ele>364.29</ele>
        <time>2019-03-30T10:51:54Z</time>
      </trkpt>
      <trkpt lat="43.53077" lon="5.69674">
        <ele>362.42</ele>
        <time>2019-03-30T10:51:57Z</time>
      </trkpt>
      <trkpt lat="43.53075" lon="5.69639">
        <ele>360.58</ele>
        <time>2019-03-30T10:52:00Z</time>
      </trkpt>
      <trkpt lat="43.53068" lon="5.69608">
        <ele>359.25</ele>
        <time>2019-03-30T10:52:03Z</time>
      </trkpt>
      <trkpt lat="43.53061" lon="5.69579">
        <ele>357.95</ele>
        <time>2019-03-30T10:52:06Z</time>
      </trkpt>
      <trkpt lat="43.53056" lon="5.69549">
        <ele>356.83</ele>
        <time>2019-03-30T10:52:09Z</time>
      </trkpt>
      <trkpt lat="43.53052" lon="5.69519">
        <ele>355.11</ele>
        <time>2019-03-30T10:52:12Z</time>
      </trkpt>
      <trkpt lat="43.53049" lon="5.69488">
        <ele>351.95</ele>
        <time>2019-03-30T10:52:15Z</time>
      </trkpt>
      <trkpt lat="43.53048" lon="5.6946">
        <ele>349.04</ele>
        <time>2019-03-30T10:52:18Z</time>
      </trkpt>
      <trkpt lat="43.53034" lon="5.69442">
        <ele>349.53</ele>
        <time>2019-03-30T10:56:50Z</time>
      </trkpt>
      <trkpt lat="43.53013" lon="5.69455">
        <ele>348.99</ele>
        <time>2019-03-30T10:56:55Z</time>
      </trkpt>
      <trkpt lat="43.52994" lon="5.69465">
        <ele>347.42</ele>
        <time>2019-03-30T10:56:59Z</time>
      </trkpt>
      <trkpt lat="43.52972" lon="5.69478">
        <ele>346.22</ele>
        <time>2019-03-30T10:57:03Z</time>
      </trkpt>
      <trkpt lat="43.52955" lon="5.69485">
        <ele>345.15</ele>
        <time>2019-03-30T10:57:06Z</time>
      </trkpt>
      <trkpt lat="43.52934" lon="5.69481">
        <ele>343.75</ele>
        <time>2019-03-30T10:57:10Z</time>
      </trkpt>
      <trkpt lat="43.52916" lon="5.69465">
        <ele>342.16</ele>
        <time>2019-03-30T10:57:14Z</time>
      </trkpt>
      <trkpt lat="43.52901" lon="5.69447">
        <ele>340.15</ele>
        <time>2019-03-30T10:57:18Z</time>
      </trkpt>
      <trkpt lat="43.52893" lon="5.69419">
        <ele>338.56</ele>
        <time>2019-03-30T10:57:22Z</time>
      </trkpt>
      <trkpt lat="43.52885" lon="5.69393">
        <ele>337.07</ele>
        <time>2019-03-30T10:57:25Z</time>
      </trkpt>
      <trkpt lat="43.5288" lon="5.69366">
        <ele>335.43</ele>
        <time>2019-03-30T10:57:28Z</time>
      </trkpt>
      <trkpt lat="43.52877" lon="5.69335">
        <ele>333.62</ele>
        <time>2019-03-30T10:57:31Z</time>
      </trkpt>
      <trkpt lat="43.52876" lon="5.69307">
        <ele>331.33</ele>
        <time>2019-03-30T10:57:34Z</time>
      </trkpt>
      <trkpt lat="43.52877" lon="5.69279">
        <ele>329.32</ele>
        <time>2019-03-30T10:57:37Z</time>
      </trkpt>
      <trkpt lat="43.52863" lon="5.69254">
        <ele>326.98</ele>
        <time>2019-03-30T10:57:41Z</time>
      </trkpt>
      <trkpt lat="43.52839" lon="5.6925">
        <ele>325.1</ele>
        <time>2019-03-30T10:57:44Z</time>
      </trkpt>
      <trkpt lat="43.52814" lon="5.69252">
        <ele>322.47</ele>
        <time>2019-03-30T10:57:47Z</time>
      </trkpt>
      <trkpt lat="43.52795" lon="5.69247">
        <ele>320.23</ele>
        <time>2019-03-30T10:57:50Z</time>
      </trkpt>
      <trkpt lat="43.52782" lon="5.6923">
        <ele>317.92</ele>
        <time>2019-03-30T10:57:53Z</time>
      </trkpt>
      <trkpt lat="43.52773" lon="5.69205">
        <ele>316.27</ele>
        <time>2019-03-30T10:57:56Z</time>
      </trkpt>
      <trkpt lat="43.52762" lon="5.69178">
        <ele>314.77</ele>
        <time>2019-03-30T10:57:59Z</time>
      </trkpt>
      <trkpt lat="43.52752" lon="5.6915">
        <ele>313.37</ele>
        <time>2019-03-30T10:58:02Z</time>
      </trkpt>
      <trkpt lat="43.52743" lon="5.69126">
        <ele>311.87</ele>
        <time>2019-03-30T10:58:05Z</time>
      </trkpt>
      <trkpt lat="43.52733" lon="5.69101">
        <ele>310.27</ele>
        <time>2019-03-30T10:58:08Z</time>
      </trkpt>
      <trkpt lat="43.52725" lon="5.69075">
        <ele>308.85</ele>
        <time>2019-03-30T10:58:11Z</time>
      </trkpt>
      <trkpt lat="43.52716" lon="5.69046">
        <ele>307.44</ele>
        <time>2019-03-30T10:58:15Z</time>
      </trkpt>
      <trkpt lat="43.52699" lon="5.69024">
        <ele>305.95</ele>
        <time>2019-03-30T10:58:19Z</time>
      </trkpt>
      <trkpt lat="43.52688" lon="5.69002">
        <ele>305.02</ele>
        <time>2019-03-30T10:58:22Z</time>
      </trkpt>
      <trkpt lat="43.52684" lon="5.68974">
        <ele>304.04</ele>
        <time>2019-03-30T10:58:25Z</time>
      </trkpt>
      <trkpt lat="43.5268" lon="5.68942">
        <ele>302.87</ele>
        <time>2019-03-30T10:58:28Z</time>
      </trkpt>
      <trkpt lat="43.52676" lon="5.68909">
        <ele>301.47</ele>
        <time>2019-03-30T10:58:31Z</time>
      </trkpt>
      <trkpt lat="43.52673" lon="5.68876">
        <ele>300.07</ele>
        <time>2019-03-30T10:58:34Z</time>
      </trkpt>
      <trkpt lat="43.52672" lon="5.68841">
        <ele>298.48</ele>
        <time>2019-03-30T10:58:37Z</time>
      </trkpt>
      <trkpt lat="43.52669" lon="5.68807">
        <ele>297.05</ele>
        <time>2019-03-30T10:58:40Z</time>
      </trkpt>
      <trkpt lat="43.52659" lon="5.68775">
        <ele>295.85</ele>
        <time>2019-03-30T10:58:43Z</time>
      </trkpt>
      <trkpt lat="43.52646" lon="5.68744">
        <ele>294.73</ele>
        <time>2019-03-30T10:58:46Z</time>
      </trkpt>
      <trkpt lat="43.52632" lon="5.68715">
        <ele>293.73</ele>
        <time>2019-03-30T10:58:49Z</time>
      </trkpt>
      <trkpt lat="43.52621" lon="5.68686">
        <ele>292.72</ele>
        <time>2019-03-30T10:58:52Z</time>
      </trkpt>
      <trkpt lat="43.5261" lon="5.68658">
        <ele>291.65</ele>
        <time>2019-03-30T10:58:55Z</time>
      </trkpt>
      <trkpt lat="43.52606" lon="5.6863">
        <ele>290.8</ele>
        <time>2019-03-30T10:58:58Z</time>
      </trkpt>
      <trkpt lat="43.52607" lon="5.68602">
        <ele>290.45</ele>
        <time>2019-03-30T10:59:01Z</time>
      </trkpt>
      <trkpt lat="43.52611" lon="5.68576">
        <ele>290.35</ele>
        <time>2019-03-30T10:59:04Z</time>
      </trkpt>
      <trkpt lat="43.52617" lon="5.68552">
        <ele>290.15</ele>
        <time>2019-03-30T10:59:07Z</time>
      </trkpt>
      <trkpt lat="43.52624" lon="5.68521">
        <ele>290.49</ele>
        <time>2019-03-30T10:59:11Z</time>
      </trkpt>
      <trkpt lat="43.52631" lon="5.68493">
        <ele>290.84</ele>
        <time>2019-03-30T10:59:15Z</time>
      </trkpt>
      <trkpt lat="43.52638" lon="5.68466">
        <ele>290.92</ele>
        <time>2019-03-30T10:59:19Z</time>
      </trkpt>
      <trkpt lat="43.52642" lon="5.68437">
        <ele>291.57</ele>
        <time>2019-03-30T10:59:23Z</time>
      </trkpt>
      <trkpt lat="43.52645" lon="5.68411">
        <ele>292.38</ele>
        <time>2019-03-30T10:59:27Z</time>
      </trkpt>
      <trkpt lat="43.52645" lon="5.68384">
        <ele>293.67</ele>
        <time>2019-03-30T10:59:32Z</time>
      </trkpt>
      <trkpt lat="43.52644" lon="5.68357">
        <ele>294.98</ele>
        <time>2019-03-30T10:59:37Z</time>
      </trkpt>
      <trkpt lat="43.52639" lon="5.68331">
        <ele>297.35</ele>
        <time>2019-03-30T10:59:43Z</time>
      </trkpt>
      <trkpt lat="43.52636" lon="5.68303">
        <ele>300.24</ele>
        <time>2019-03-30T10:59:49Z</time>
      </trkpt>
      <trkpt lat="43.52632" lon="5.68277">
        <ele>303.9</ele>
        <time>2019-03-30T10:59:55Z</time>
      </trkpt>
      <trkpt lat="43.5263" lon="5.68251">
        <ele>305.17</ele>
        <time>2019-03-30T10:59:59Z</time>
      </trkpt>
      <trkpt lat="43.5263" lon="5.6822">
        <ele>306.55</ele>
        <time>2019-03-30T11:00:03Z</time>
      </trkpt>
      <trkpt lat="43.52635" lon="5.68188">
        <ele>308.31</ele>
        <time>2019-03-30T11:00:07Z</time>
      </trkpt>
      <trkpt lat="43.52636" lon="5.68154">
        <ele>304.47</ele>
        <time>2019-03-30T11:01:31Z</time>
      </trkpt>
    </trkseg>
  </trk>
</gpx>